[[[{"header":{"parameterUnit":"kt","parameterCategory":2,"dx":1,"dy":1,"la1":29.285339999999998,"la2":30.599998999999997,"lo1":-89.70041500000002,"lo2":-87.6738589999976,"nx":112,"ny":82,"refTime":"2022-11-01T12:00:00:Z","depth":0,"parameterNumber":1,"parameterNumberName":"U-component_of_WINDS"},"data":[1.7278,1.7627,1.7606,1.5608,1.5334,1.5006,1.2924,0.0,1.2914,0.0,0.0,0.0,0.0,0.0,0.0,0.0,0.0,0.0,0.0,0.6,0.0,0.0,0.0,0.0,0.0,0.0,0.0,0.0,0.0,0.0,0.0,1.0249,1.0244,1.0286,1.0323,1.0382,1.0466,1.0466,1.0466,1.0466,1.0466,1.0487,1.053,1.0609,1.0668,1.0705,1.0821,1.1081,1.1151,1.0948,1.1022,1.115,1.1075,1.1091,1.1139,1.0991,1.098,1.1054,1.1134,1.116,1.116,1.116,1.116,1.116,1.116,1.116,1.115,1.1107,1.1128,1.115,1.1107,1.1128,1.116,1.116,1.116,1.116,1.116,1.116,1.116,1.116,1.116,1.116,1.116,1.116,1.1091,1.0901,1.1038,1.0853,1.0811,1.0747,1.0699,1.0699,1.063,1.0572,1.0535,1.053,1.0514,1.0472,1.0503,1.0509,1.0466,1.0509,1.0509,1.0466,1.0466,1.0466,1.0466,1.0466,1.0466,1.0466,1.1114,1.144,1.639,1.6728,1.6718,1.4467,1.4192,0.0,0.0,0.0,0.0,0.0,0.0,0.0,0.0,0.0,0.0,0.0,0.0,0.0,0.0,0.0,0.0,0.0,0.0,0.0,0.0,0.0,0.0,0.0,0.9026,0.0,1.0122,1.0207,1.0228,1.0228,1.0344,1.0424,1.0466,1.0466,1.0466,1.0466,1.0466,1.0466,1.0472,1.0546,1.0583,1.0588,1.0699,1.0795,1.0864,1.0826,1.0901,1.1033,1.0954,1.0969,1.1022,1.0864,1.0858,1.0932,1.1012,1.1065,1.1102,1.1102,1.1128,1.116,1.116,1.116,1.116,1.116,1.116,1.116,1.116,1.116,1.116,1.116,1.116,1.115,1.1107,1.1102,1.1086,1.1049,1.1038,1.1038,1.1038,1.1038,1.0975,1.0779,1.0752,1.0736,1.0694,1.063,1.0583,1.0583,1.0514,1.0466,1.0466,1.0466,1.0466,1.0466,1.0466,1.0466,1.0466,1.0466,1.0466,1.0466,1.0466,1.0466,1.0466,1.0466,1.0466,1.0466,1.0466,1.0466,1.5746,1.5548,1.525,1.3051,0.0,0.0,0.0,0.0,1.0708,0.0,0.0,0.0,0.0,0.0,0.0,0.0,0.0,0.0,0.0,0.0,0.0,0.0,0.0,0.0,0.0,0.7791,0.8042,0.0,0.8623,0.8724,0.9873,1.0043,1.0111,1.0111,1.0228,1.0344,1.0466,1.0466,1.0466,1.0466,1.0466,1.0466,1.0466,1.0466,1.0466,1.0472,1.0588,1.0641,1.0652,1.0752,1.08,1.0805,1.08,1.08,1.0795,1.0795,1.08,1.08,1.08,1.1049,1.1151,1.1151,1.1054,1.115,1.115,1.115,1.115,1.115,1.115,1.115,1.115,1.115,1.115,1.115,1.115,1.1118,1.1001,1.1151,1.1114,1.0826,1.0805,1.0805,1.0805,1.08,1.0763,1.0652,1.0636,1.0593,1.0482,1.0466,1.0466,1.0466,1.0466,1.0466,1.0466,1.0466,1.0466,1.0466,1.0466,1.0466,1.0466,1.0466,1.0466,1.0466,1.0466,1.0466,1.0466,1.0466,1.0466,1.0466,1.0466,1.0466,1.4372,0.0,0.0,0.0,0.0,0.0,0.0,0.0,0.0,0.0,0.0,0.0,0.0,0.0,0.0,0.0,0.0,0.673,0.0,0.0,0.0,0.0,0.0,0.0,0.0,0.8909,0.9169,0.9942,0.9275,0.9153,0.9894,0.9968,1.0027,1.0111,1.0228,1.0344,1.0466,1.0466,1.0466,1.0466,1.0466,1.0466,1.0466,1.0466,1.0466,1.0466,1.0498,1.0567,1.0641,1.0583,1.0657,1.08,1.0721,1.0636,1.0562,1.0562,1.0615,1.0689,1.0689,1.0763,1.0853,1.0853,1.0879,1.0901,1.0901,1.0901,1.0901,1.0901,1.0901,1.0901,1.0901,1.0901,1.0901,1.0901,1.0901,1.0895,1.0864,1.0853,1.0848,1.0816,1.0805,1.0805,1.0805,1.0668,1.0551,1.0519,1.0514,1.0503,1.0472,1.0466,1.0466,1.0466,1.0466,1.0466,1.0466,1.0466,1.0466,1.0466,1.0466,1.0466,1.0466,1.0466,1.0466,1.0466,1.0466,1.0466,1.0466,1.0466,1.0466,1.0466,1.0466,1.0466,0.0,0.0,0.0,0.0,0.0,0.0,0.9908,0.0,0.8533,0.0,0.0,0.0,0.0,0.0,0.0,0.0,0.6792,0.0,0.0,0.0,0.7759,0.0,0.0,0.0,0.929,0.938,0.964,1.0175,0.9502,0.9301,0.9831,0.991,0.999,1.0111,1.0228,1.0344,1.0466,1.0466,1.0466,1.0466,1.0466,1.0466,1.0466,1.0466,1.0466,1.0466,1.0466,1.0503,1.0567,1.0493,1.0546,1.0657,1.0593,1.053,1.0466,1.0466,1.0509,1.0567,1.0567,1.0609,1.0673,1.0721,1.0768,1.0805,1.0805,1.0805,1.0805,1.0805,1.0805,1.0805,1.0805,1.0805,1.0805,1.0805,1.0805,1.0795,1.0747,1.0736,1.0726,1.0673,1.0662,1.0662,1.0662,1.0551,1.0466,1.0466,1.0466,1.0466,1.0466,1.0466,1.0466,1.0466,1.0466,1.0466,1.0466,1.0466,1.0466,1.0466,1.0466,1.0466,1.0466,1.0466,1.0466,1.0466,1.0466,1.0466,1.0466,1.0466,1.0493,1.054,1.054,1.0514,0.0,0.0,0.0,0.0,0.9596,0.0,0.0,0.0,0.7293,0.6988,0.0,0.0,0.0,0.0,0.0,0.0,0.0,0.0,0.6865,0.7532,0.8136,0.8348,0.9481,1.0053,0.9545,0.9349,0.9666,1.0064,0.9518,0.9338,0.9735,0.9857,0.9979,1.0111,1.0217,1.0334,1.0466,1.0466,1.0466,1.0466,1.0466,1.0466,1.0466,1.0466,1.0466,1.0466,1.0466,1.0466,1.0466,1.0466,1.0466,1.0466,1.0466,1.0466,1.0466,1.0466,1.0466,1.0466,1.0466,1.0466,1.0482,1.0588,1.0689,1.0768,1.0768,1.0768,1.0768,1.0768,1.0768,1.0768,1.0768,1.0768,1.0768,1.0768,1.0768,1.0742,1.0646,1.0625,1.0593,1.0487,1.0466,1.0466,1.0466,1.0466,1.0466,1.0466,1.0466,1.0466,1.0466,1.0466,1.0466,1.0466,1.0466,1.0466,1.0466,1.0466,1.0466,1.0466,1.0466,1.0466,1.0466,1.0466,1.0466,1.0466,1.0466,1.0466,1.0466,1.0466,1.0519,1.0625,1.0636,1.0578,0.0,0.0,0.0,0.0,0.0,0.9064,0.0,0.0,0.0,0.7679,0.7348,0.7108,0.7479,0.7437,0.7389,0.7527,0.0,0.0,0.0,0.8755,0.0,0.9455,0.9783,0.9995,0.9979,0.9979,0.9979,0.9968,0.9847,0.9767,0.9762,0.9783,0.9889,1.0106,1.0133,1.0249,1.0466,1.0466,1.0466,1.0466,1.0466,1.0466,1.0466,1.0466,1.0466,1.0466,1.0466,1.0466,1.0466,1.0466,1.0466,1.0466,1.0466,1.0466,1.0466,1.0466,1.0466,1.0466,1.0466,1.0466,1.0472,1.0493,1.0514,1.053,1.053,1.053,1.053,1.053,1.053,1.053,1.053,1.053,1.053,1.053,1.053,1.0525,1.0503,1.0498,1.0493,1.0472,1.0466,1.0466,1.0466,1.0466,1.0466,1.0466,1.0466,1.0466,1.0466,1.0466,1.0466,1.0466,1.0466,1.0466,1.0466,1.0466,1.0466,1.0466,1.0466,1.0466,1.0466,1.0466,1.0466,1.0466,1.0466,1.0466,1.0466,1.0466,1.0477,1.0503,1.0599,1.0578,0.8962,0.8566,0.8435,0.7816,0.0,0.0,0.0,0.6762,0.6847,0.7257,0.714,0.7156,0.7623,0.7727,0.7743,0.7924,0.857,0.9047,0.8988,0.9428,0.9783,0.9841,0.99,0.9984,1.0101,1.0111,1.009,1.0027,0.9968,0.9884,0.9767,0.9762,0.9841,1.0021,1.008,1.0196,1.0376,1.0434,1.0466,1.0466,1.0466,1.0466,1.0466,1.0466,1.0466,1.0466,1.0466,1.0466,1.0466,1.0466,1.0466,1.0466,1.0466,1.0466,1.0466,1.0466,1.0466,1.0466,1.0466,1.0466,1.0466,1.0466,1.0466,1.0466,1.0466,1.0466,1.0466,1.0466,1.0466,1.0466,1.0466,1.0466,1.0466,1.0466,1.0466,1.0466,1.0466,1.0466,1.0466,1.0466,1.0514,1.0206,0.8837,0.9694,1.0535,1.0477,1.0466,1.0466,1.0466,1.0466,1.0466,1.0466,1.0466,1.0466,1.0466,1.0466,1.0466,1.0466,1.0466,1.0466,1.0466,1.0466,1.0466,1.0466,1.0466,1.0466,1.0466,1.0466,1.0498,1.0556,1.0556,1.0493,0.7631,0.7267,0.7017,0.5971,0.581,0.0,0.5779,0.5938,0.6412,0.7087,0.7246,0.7415,0.7858,0.8108,0.8326,0.8231,0.8771,0.9333,0.9709,0.9762,0.9804,0.9921,0.9937,0.9984,1.0101,1.009,1.008,1.008,0.9968,0.9862,0.9767,0.9762,0.9815,0.9931,1.0053,1.017,1.0286,1.0408,1.0466,1.0466,1.0466,1.0466,1.0466,1.0466,1.0466,1.0466,1.0466,1.0466,1.0466,1.0466,1.0466,1.0466,1.0466,1.0466,1.0466,1.0466,1.0466,1.0466,1.0466,1.0466,1.0466,1.0466,1.0466,1.0466,1.0466,1.0466,1.0466,1.0466,1.0482,1.0493,1.0472,1.0155,0.9843,0.9679,0.9333,0.916,0.951,0.966,0.9655,0.9015,0.9087,0.8444,0.6221,0.7575,0.9087,0.9005,0.8992,0.9155,0.9645,0.9808,0.9976,1.0466,1.0466,1.0466,1.0466,1.0466,1.0466,1.0466,1.0466,1.0466,1.0466,1.0487,1.0498,1.0498,1.0525,1.0525,1.0498,1.0456,1.0472,1.054,1.0466,1.0371,0.5772,0.5733,0.5724,0.5912,0.5686,0.0,0.7341,0.75,0.7707,0.9121,0.9412,0.9433,0.9513,0.955,0.9561,0.955,0.9624,0.9704,0.9751,0.9762,0.9804,0.9921,0.9937,0.9984,1.0101,1.0016,0.9958,0.9958,0.9847,0.9772,0.9762,0.9762,0.9815,0.9931,1.0053,1.017,1.0286,1.0408,1.0466,1.0466,1.0466,1.0466,1.0466,1.0466,1.0466,1.0466,1.0466,1.0466,1.0466,1.0466,1.0466,1.0466,1.0466,1.0466,1.0466,1.0466,1.0466,1.0466,1.0466,1.0466,1.0466,1.0466,1.0466,1.0466,1.0466,1.0466,1.0466,1.0466,1.054,1.0599,1.0493,0.8891,0.7131,0.6966,0.5101,0.4093,0.6287,0.691,0.6391,0.3806,0.3484,0.331,0.3108,0.327,0.3435,0.343,0.343,0.4246,0.6698,0.7024,0.8008,1.0303,1.0466,1.0466,1.0466,1.0466,1.0466,1.0466,1.0466,1.0466,1.0466,1.0567,1.0625,1.0625,1.0721,1.0721,1.0625,1.0413,1.0265,1.0175,1.0265,1.0244,0.5238,0.5307,0.5445,0.5675,0.0,0.0,0.7082,0.741,0.7961,0.901,0.92,0.9275,0.9682,0.9762,0.9762,0.9762,0.9762,0.9762,0.9762,0.9762,0.9804,0.9921,0.9873,0.9878,1.0,0.99,0.9831,0.9831,0.9788,0.9762,0.9762,0.9762,0.9783,0.9831,0.9947,1.0069,1.0186,1.0302,1.0397,1.0466,1.0466,1.0466,1.0466,1.0466,1.0466,1.0466,1.0466,1.0466,1.0466,1.0466,1.0466,1.0303,0.8829,0.8171,0.8008,0.6371,0.5882,0.6045,0.7681,0.8171,0.8171,0.8171,0.8171,0.8008,0.6371,0.5882,0.5891,0.5926,0.5959,0.5983,0.5828,0.5155,0.4326,0.4186,0.3341,0.2834,0.3854,0.4176,0.3501,0.067,0.1517,0.2025,0.0501,0.1499,0.2658,0.2476,0.246,0.294,0.4083,0.4246,0.4573,0.5718,0.5882,0.6535,0.8171,0.8171,0.8196,0.8085,0.82,0.8196,0.8085,0.6752,0.7403,1.054,0.9092,0.9092,1.054,0.7453,0.5913,0.5843,0.5833,0.5812,0.508,0.0,0.0,0.0,0.0,0.0,0.7315,0.7664,0.8083,0.8951,0.9063,0.9158,0.9666,0.9762,0.9762,0.9762,0.9762,0.9762,0.9762,0.9762,0.9804,0.9921,0.9831,0.9804,0.9926,0.9831,0.9762,0.9762,0.9762,0.9762,0.9762,0.9762,0.9762,0.9762,0.9873,0.9668,0.8965,0.9893,1.0011,0.9438,1.0124,1.0466,1.0466,1.0466,1.0466,1.0466,1.0466,0.9645,0.8334,0.8334,0.8334,0.8171,0.6208,0.5555,0.5226,0.3266,0.2449,0.2777,0.4736,0.5555,0.5555,0.5555,0.5555,0.5068,0.3114,0.2461,0.2466,0.2495,0.2502,0.2511,0.2546,0.2037,0.1354,0.1361,0.085,0.0509,0.1187,0.085,-0.034,-0.2208,-0.1025,-0.0342,-0.237,-0.0844,0.0505,0.0334,0.0331,0.0656,0.1313,0.1473,0.1797,0.2449,0.2449,0.3266,0.5389,0.5555,0.5408,0.5287,0.5414,0.5411,0.5289,0.3619,0.4423,0.8334,0.6555,0.6545,0.8463,0.465,0.2695,0.2672,0.3263,0.3861,0.0,0.0,0.0,0.67,0.6854,0.7204,0.894,0.8914,0.8877,0.9587,0.973,0.9735,0.9757,0.9762,0.9762,0.9762,0.9762,0.9762,0.9762,0.9762,0.9804,0.9921,0.9831,0.9804,0.9926,0.9831,0.9762,0.9762,0.9762,0.9762,0.9762,0.9762,0.9762,0.9762,0.9873,0.8696,0.6372,0.89,0.9163,0.675,0.9271,1.0466,1.0466,1.0466,1.0466,1.0466,1.0466,0.7518,0.2777,0.2777,0.2777,0.2777,0.2613,0.2613,0.2613,0.2612,0.2449,0.2612,0.2613,0.2613,0.2613,0.2613,0.2613,0.2619,0.2481,0.249,0.2495,0.2523,0.2531,0.2543,0.2598,0.0526,-0.141,-0.1571,-0.3459,-0.4464,-0.2058,-0.346,-0.5391,-0.5335,-0.5324,-0.5309,-0.525,-0.524,-0.524,-0.5237,-0.5021,-0.4155,-0.1495,-0.1317,-0.0327,0.2287,0.2449,0.2612,0.2613,0.2613,0.2613,0.2615,0.2613,0.2613,0.2615,0.2641,0.2808,0.3103,0.3136,0.312,0.3217,0.2672,0.2486,0.264,0.491,0.7172,0.5638,0.5953,0.6451,0.7151,0.7701,0.7851,0.6787,0.8066,0.9032,0.7587,0.8539,0.9762,0.9762,0.8386,0.7777,0.9457,0.9762,0.9762,0.9762,0.9762,0.9772,0.9815,0.9783,0.9772,0.9815,0.9783,0.9762,0.9762,0.9762,0.9762,0.9762,0.9762,0.9762,0.9762,0.9873,0.9507,0.8798,0.9583,0.9658,0.9002,0.8229,0.7789,0.7845,0.6045,0.5226,0.5226,0.5226,0.4246,0.2449,0.2449,0.2449,0.2285,0.0653,0.0,-0.0327,-0.1961,-0.2615,-0.2454,-0.0659,0.0,0.0,-0.0167,-0.0168,-0.0507,-0.2205,-0.2902,-0.2924,-0.2955,-0.2962,-0.2968,-0.2813,-0.3532,-0.424,-0.4373,-0.5048,-0.5383,-0.4513,-0.5048,-0.5581,-0.556,-0.5557,-0.5552,-0.553,-0.5496,-0.5456,-0.5417,-0.5361,-0.4976,-0.4116,-0.3934,-0.3597,-0.2778,-0.2615,-0.1961,-0.0163,0.0,0.0,0.0,0.0,0.0,0.0,-0.1617,-0.0802,0.2716,0.1122,-0.0636,-0.2175,-0.2312,-0.2303,-0.2302,0.0153,0.0762,0.4957,0.5123,0.54,0.538,0.5853,0.5946,0.4569,0.5784,0.6707,0.5034,0.6101,0.7472,0.8234,0.6406,0.5644,0.7929,0.7625,0.7777,0.9452,0.8995,0.8386,0.8386,0.8386,0.8386,0.8386,0.7654,0.7364,0.8288,0.8473,0.8477,0.8445,0.9401,0.9868,0.9825,0.9937,1.0037,1.0111,1.0037,0.9603,0.8942,0.8144,0.7373,0.6455,0.4678,0.3397,0.2435,0.0649,-0.0162,-0.0161,-0.0163,-0.0163,-0.0323,-0.2109,-0.2755,-0.2909,-0.4545,-0.5202,-0.4884,-0.3293,-0.2817,-0.2831,-0.2864,-0.2893,-0.3264,-0.5005,-0.5557,-0.5594,-0.5629,-0.5639,-0.5644,-0.5663,-0.5668,-0.5666,-0.565,-0.5631,-0.5599,-0.5536,-0.5523,-0.5523,-0.5523,-0.5523,-0.5523,-0.5523,-0.5491,-0.5454,-0.5417,-0.5361,-0.5308,-0.5271,-0.5247,-0.5234,-0.5234,-0.5234,-0.458,-0.2943,-0.277,-0.2777,-0.2808,-0.2599,-0.258,-0.26,-0.4167,-0.3484,-0.0157,-0.1727,-0.3268,-0.4887,-0.4887,-0.4887,-0.4734,-0.2288,-0.1982,0.3413,0.3117,0.2793,0.1929,0.1778,0.1842,0.2256,0.2438,0.244,0.2287,0.244,0.3202,0.5339,0.3812,0.3049,0.5491,0.3964,0.4117,0.8691,0.732,0.5796,0.5796,0.5796,0.5796,0.5796,0.3697,0.3258,0.5589,0.596,0.5969,0.5909,0.8323,0.9588,0.9472,0.9583,0.9643,0.9628,0.9643,0.8533,0.6313,0.8525,0.8213,0.6004,0.5843,0.4606,0.2086,-0.2889,-0.5109,-0.5069,-0.5178,-0.5159,-0.5067,-0.5122,-0.5112,-0.5069,-0.5128,-0.4988,-0.5157,-0.5218,-0.5276,-0.5332,-0.539,-0.5451,-0.5509,-0.5565,-0.5583,-0.5586,-0.5589,-0.5591,-0.5605,-0.5658,-0.5668,-0.5679,-0.5735,-0.57,-0.561,-0.5446,-0.5411,-0.5411,-0.5411,-0.5411,-0.5411,-0.5411,-0.5411,-0.5409,-0.5406,-0.5358,-0.5321,-0.5318,-0.5268,-0.5234,-0.5234,-0.5234,-0.5231,-0.5228,-0.5178,-0.5167,-0.522,-0.517,-0.4975,-0.4975,-0.4973,-0.508,-0.4974,-0.4971,-0.4945,-0.4887,-0.4887,-0.4887,-0.4734,-0.2288,-0.122,0.5764,0.4194,0.2393,0.429,0.3462,0.1919,0.015,0.1213,0.1982,0.0152,0.122,0.2135,0.0915,0.0152,0.061,0.3049,0.2897,0.2897,0.4117,0.3812,0.3354,0.3354,0.3354,0.3354,0.3354,0.2905,0.2767,0.3258,0.3268,0.3282,0.3303,0.3942,0.4242,0.4193,0.4434,0.4443,0.4366,0.4443,0.4143,0.3475,0.2192,0.1258,0.064,-0.1268,-0.252,-0.3136,-0.4549,-0.5059,-0.5122,-0.5109,-0.5109,-0.5125,-0.4978,-0.4975,-0.513,-0.5189,-0.5212,-0.522,-0.5279,-0.5308,-0.5332,-0.539,-0.5451,-0.5501,-0.5517,-0.5552,-0.5597,-0.5636,-0.5647,-0.566,-0.5719,-0.5671,-0.561,-0.5626,-0.5552,-0.5464,-0.5419,-0.5411,-0.5411,-0.5411,-0.5411,-0.5411,-0.5411,-0.5411,-0.5395,-0.535,-0.5332,-0.5305,-0.526,-0.5244,-0.5234,-0.5234,-0.5234,-0.5215,-0.5173,-0.4993,-0.5133,-0.5104,-0.5051,-0.5019,-0.5019,-0.4977,-0.494,-0.491,-0.491,-0.4902,-0.4887,-0.4887,-0.4887,-0.4734,-0.2288,-0.2146,0.4008,0.2222,0.0131,0.0991,0.0293,-0.1042,-0.2396,-0.1665,-0.1068,-0.2441,-0.1678,-0.1221,-0.2594,-0.2746,-0.1983,0.0457,0.0,0.0,0.2271,0.152,0.0913,0.0908,0.0912,0.0915,0.0915,-0.0153,-0.0308,0.0621,0.078,0.0784,0.0789,0.1895,0.2526,0.2365,0.2555,0.2562,0.2382,0.2413,0.2575,0.2547,0.0939,-0.0312,-0.1256,-0.2653,-0.3909,-0.5051,-0.5051,-0.5059,-0.5075,-0.5117,-0.5109,-0.5075,-0.5125,-0.513,-0.5114,-0.5173,-0.5194,-0.5202,-0.5263,-0.53,-0.5332,-0.539,-0.5451,-0.5499,-0.5499,-0.5523,-0.5549,-0.5554,-0.5554,-0.5562,-0.5597,-0.5557,-0.5509,-0.5509,-0.5459,-0.5395,-0.5342,-0.5332,-0.5332,-0.5332,-0.5332,-0.5332,-0.5332,-0.5332,-0.5321,-0.5287,-0.5284,-0.5271,-0.5239,-0.5234,-0.5234,-0.5234,-0.5234,-0.522,-0.5186,-0.5159,-0.5144,-0.5136,-0.5056,-0.5011,-0.5011,-0.4955,-0.4913,-0.4889,-0.4887,-0.4887,-0.4887,-0.4887,-0.4887,-0.4889,-0.353,-0.3705,0.0099,-0.0787,-0.2063,-0.3808,-0.4365,-0.4714,-0.4775,-0.4834,-0.4879,-0.4887,-0.4887,-0.4887,-0.4887,-0.4887,-0.4123,-0.1982,-0.3511,-0.3347,0.0902,-0.0302,-0.1668,-0.1655,-0.1665,-0.1675,-0.1677,-0.3697,-0.4188,-0.2018,-0.1724,-0.1736,-0.1895,0.0316,0.1589,0.144,0.1608,0.1616,0.1463,0.1468,0.1462,0.1446,0.1417,0.031,-0.1689,-0.1686,-0.296,-0.5133,-0.5133,-0.5083,-0.5008,-0.5152,-0.5128,-0.5008,-0.5106,-0.5114,-0.5077,-0.5136,-0.5157,-0.5165,-0.5215,-0.5268,-0.5318,-0.5369,-0.5422,-0.5464,-0.5464,-0.5464,-0.5454,-0.5411,-0.5398,-0.5401,-0.5409,-0.5403,-0.5398,-0.5398,-0.5393,-0.5358,-0.5255,-0.5234,-0.5234,-0.5234,-0.5234,-0.5234,-0.5234,-0.5234,-0.5234,-0.5234,-0.5234,-0.5234,-0.5234,-0.5234,-0.5234,-0.5234,-0.5234,-0.5231,-0.5223,-0.5175,-0.5165,-0.5207,-0.5114,-0.5053,-0.5046,-0.5,-0.495,-0.49,-0.49,-0.4894,-0.4887,-0.4887,-0.4887,-0.4889,-0.4947,-0.4979,-0.2787,-0.1248,0.0527,-0.1261,-0.3158,-0.4653,-0.4712,-0.4773,-0.4828,-0.4876,-0.4887,-0.4887,-0.4887,-0.4887,-0.4734,-0.4276,-0.4581,-0.4579,-0.3653,-0.393,-0.4225,-0.426,-0.4232,-0.4227,-0.4271,-0.4591,-0.477,-0.4505,-0.4359,-0.4383,-0.4422,-0.3986,-0.3659,-0.3755,-0.3858,-0.3882,-0.3814,-0.3886,-0.3902,-0.3697,-0.3842,-0.3992,-0.4459,-0.4417,-0.457,-0.5072,-0.5072,-0.5088,-0.5114,-0.5096,-0.5099,-0.5117,-0.4978,-0.4978,-0.5138,-0.5197,-0.5218,-0.522,-0.5231,-0.5242,-0.525,-0.526,-0.5271,-0.5279,-0.5279,-0.5279,-0.5287,-0.5326,-0.5337,-0.5348,-0.5398,-0.5374,-0.5337,-0.5337,-0.53,-0.5258,-0.5239,-0.5234,-0.5234,-0.5234,-0.5234,-0.5234,-0.5234,-0.5234,-0.5234,-0.5234,-0.5234,-0.5234,-0.5234,-0.5234,-0.5234,-0.5234,-0.5234,-0.5215,-0.5165,-0.4991,-0.5128,-0.5091,-0.5069,-0.5038,-0.4993,-0.4979,-0.4971,-0.4961,-0.4961,-0.4937,-0.4887,-0.4887,-0.4887,-0.4889,-0.4947,-0.5,-0.3349,-0.2551,-0.1564,-0.2563,-0.3788,-0.4629,-0.4659,-0.4735,-0.4807,-0.4836,-0.4841,-0.4849,-0.4881,-0.4887,-0.4887,-0.4887,-0.4887,-0.4865,-0.4804,-0.4799,-0.4786,-0.4754,-0.4751,-0.4775,-0.4836,-0.4841,-0.4865,-0.4926,-0.4929,-0.4966,-0.5053,-0.5056,-0.5075,-0.5109,-0.5159,-0.5175,-0.5149,-0.5205,-0.522,-0.5191,-0.5159,-0.4985,-0.4985,-0.5149,-0.5149,-0.5149,-0.5149,-0.5146,-0.4985,-0.5149,-0.5146,-0.4988,-0.5178,-0.5191,-0.5194,-0.5223,-0.5234,-0.5234,-0.5234,-0.5234,-0.5234,-0.5234,-0.5234,-0.5234,-0.5234,-0.5234,-0.5239,-0.5268,-0.5276,-0.5281,-0.5311,-0.5297,-0.5276,-0.5276,-0.5255,-0.5234,-0.5234,-0.5234,-0.5234,-0.5234,-0.5234,-0.5234,-0.5234,-0.5234,-0.5234,-0.5234,-0.5234,-0.5234,-0.5234,-0.5234,-0.5234,-0.5234,-0.5234,-0.5223,-0.5194,-0.5191,-0.5178,-0.5152,-0.512,-0.5091,-0.5064,-0.5064,-0.5051,-0.5019,-0.5019,-0.499,-0.4934,-0.4934,-0.4918,-0.4889,-0.4977,-0.5032,-0.3445,-0.3784,-0.4142,-0.4237,-0.4407,-0.4561,-0.4611,-0.4696,-0.4762,-0.4762,-0.4751,-0.4767,-0.4852,-0.4847,-0.4844,-0.4881,-0.4887,-0.4855,-0.4762,-0.4778,-0.477,-0.469,-0.4709,-0.4754,-0.4812,-0.4831,-0.4857,-0.4902,-0.4918,-0.4963,-0.5053,-0.503,-0.5069,-0.5191,-0.5175,-0.5181,-0.5215,-0.5228,-0.5234,-0.5234,-0.5186,-0.5157,-0.4985,-0.5207,-0.5234,-0.5234,-0.5234,-0.5207,-0.5167,-0.5215,-0.5207,-0.517,-0.5215,-0.5234,-0.5234,-0.5234,-0.5234,-0.5234,-0.5234,-0.5234,-0.5234,-0.5234,-0.5234,-0.5234,-0.5234,-0.5234,-0.5234,-0.5234,-0.5234,-0.5234,-0.5234,-0.5234,-0.5234,-0.5234,-0.5234,-0.5234,-0.5234,-0.5234,-0.5234,-0.5234,-0.5234,-0.5234,-0.5234,-0.5234,-0.5234,-0.5234,-0.5234,-0.5234,-0.5234,-0.5234,-0.5234,-0.5234,-0.5234,-0.5234,-0.5234,-0.5234,-0.5234,-0.5234,-0.5191,-0.5159,-0.4985,-0.5157,-0.5136,-0.5077,-0.5064,-0.5035,-0.4993,-0.4982,-0.4958,-0.4926,-0.503,-0.5077,-0.3877,-0.4189,-0.4232,-0.4449,-0.4404,-0.4364,-0.4574,-0.4632,-0.464,-0.464,-0.4595,-0.4611,-0.4778,-0.472,-0.4698,-0.486,-0.4887,-0.4884,-0.4873,-0.4831,-0.4815,-0.4857,-0.482,-0.4815,-0.4873,-0.4929,-0.4963,-0.4969,-0.5014,-0.5046,-0.5056,-0.5104,-0.5112,-0.5075,-0.5173,-0.5202,-0.4993,-0.5207,-0.5234,-0.5234,-0.5228,-0.5197,-0.4985,-0.5207,-0.5234,-0.5234,-0.5234,-0.5231,-0.5226,-0.5231,-0.5231,-0.5226,-0.5231,-0.5234,-0.5234,-0.5234,-0.5234,-0.5234,-0.5234,-0.5234,-0.5234,-0.5234,-0.5234,-0.5234,-0.5234,-0.5234,-0.5234,-0.5234,-0.5234,-0.5234,-0.5234,-0.5234,-0.5234,-0.5234,-0.5234,-0.5234,-0.5234,-0.5234,-0.5234,-0.5234,-0.5234,-0.5234,-0.5234,-0.5234,-0.5234,-0.5234,-0.5234,-0.5234,-0.5234,-0.5234,-0.5234,-0.5234,-0.5234,-0.5234,-0.5234,-0.5234,-0.5234,-0.5234,-0.5228,-0.5202,-0.4985,-0.5197,-0.5197,-0.4978,-0.5085,-0.5053,-0.5051,-0.5,-0.4998,-0.5043,-0.5106,-0.4978,-0.335,-0.3569,-0.3797,-0.3925,-0.4118,-0.4309,-0.4439,-0.4468,-0.4497,-0.46,-0.4603,-0.4608,-0.468,-0.4714,-0.4741,-0.4775,-0.4841,-0.4876,-0.4839,-0.4815,-0.4794,-0.4783,-0.4759,-0.477,-0.4828,-0.4855,-0.4884,-0.4921,-0.4977,-0.5022,-0.5056,-0.5114,-0.5152,-0.5162,-0.521,-0.5223,-0.5199,-0.5223,-0.5234,-0.5234,-0.5234,-0.522,-0.5199,-0.5223,-0.5234,-0.5234,-0.5234,-0.5234,-0.5234,-0.5234,-0.5234,-0.5234,-0.5234,-0.5234,-0.5234,-0.5234,-0.5234,-0.5234,-0.5234,-0.5234,-0.5234,-0.5234,-0.5234,-0.5234,-0.5234,-0.5234,-0.5234,-0.5234,-0.5234,-0.5234,-0.5234,-0.5234,-0.5234,-0.5234,-0.5234,-0.5234,-0.5234,-0.5234,-0.5234,-0.5234,-0.5234,-0.5234,-0.5234,-0.5234,-0.5234,-0.5234,-0.5234,-0.5234,-0.5234,-0.5234,-0.5234,-0.5234,-0.5234,-0.5234,-0.5234,-0.5234,-0.5234,-0.5234,-0.5234,-0.5223,-0.5199,-0.522,-0.5223,-0.5199,-0.5175,-0.5146,-0.5109,-0.5088,-0.5069,-0.5059,-0.5117,-0.4985,-0.305,-0.3249,-0.349,-0.3601,-0.3877,-0.4155,-0.4282,-0.4298,-0.4346,-0.4553,-0.4542,-0.4516,-0.4584,-0.4637,-0.468,-0.4706,-0.481,-0.4873,-0.4831,-0.4826,-0.481,-0.4767,-0.4762,-0.4781,-0.482,-0.4841,-0.4868,-0.491,-0.4966,-0.5024,-0.508,-0.5122,-0.5173,-0.5231,-0.5234,-0.5234,-0.5234,-0.5234,-0.5234,-0.5234,-0.5234,-0.5234,-0.5234,-0.5234,-0.5234,-0.5234,-0.5234,-0.5234,-0.5234,-0.5234,-0.5234,-0.5234,-0.5234,-0.5234,-0.5234,-0.5234,-0.5234,-0.5234,-0.5234,-0.5234,-0.5234,-0.5234,-0.5234,-0.5234,-0.5234,-0.5234,-0.5234,-0.5234,-0.5234,-0.5234,-0.5234,-0.5234,-0.5234,-0.5234,-0.5234,-0.5234,-0.5234,-0.5234,-0.5234,-0.5234,-0.5234,-0.5234,-0.5234,-0.5234,-0.5234,-0.5234,-0.5234,-0.5234,-0.5234,-0.5234,-0.5234,-0.5234,-0.5234,-0.5234,-0.5234,-0.5234,-0.5234,-0.5234,-0.5234,-0.5234,-0.5234,-0.5234,-0.5234,-0.5234,-0.5218,-0.5197,-0.517,-0.5136,-0.5106,-0.5083,-0.5109,-0.512,-0.3345,-0.3416,-0.3566,-0.3694,-0.3638,-0.3834,-0.4252,-0.4145,-0.4184,-0.4476,-0.4351,-0.4264,-0.4492,-0.4305,-0.4305,-0.4675,-0.481,-0.4887,-0.4887,-0.4887,-0.4887,-0.4887,-0.4887,-0.4887,-0.4887,-0.494,-0.4974,-0.4974,-0.5024,-0.5083,-0.498,-0.4985,-0.5173,-0.5231,-0.5234,-0.5234,-0.5234,-0.5234,-0.5234,-0.5234,-0.5234,-0.5234,-0.5234,-0.5234,-0.5234,-0.5234,-0.5234,-0.5234,-0.5234,-0.5234,-0.5234,-0.5234,-0.5234,-0.5234,-0.5234,-0.5234,-0.5234,-0.5234,-0.5234,-0.5234,-0.5234,-0.5234,-0.5234,-0.5234,-0.5234,-0.5234,-0.5234,-0.5234,-0.5234,-0.5234,-0.5234,-0.5234,-0.5234,-0.5234,-0.5234,-0.5234,-0.5234,-0.5234,-0.5234,-0.5234,-0.5234,-0.5234,-0.5234,-0.5234,-0.5234,-0.5234,-0.5234,-0.5234,-0.5234,-0.5234,-0.5234,-0.5234,-0.5234,-0.5234,-0.5234,-0.5234,-0.5234,-0.5234,-0.5234,-0.5234,-0.5234,-0.5234,-0.5234,-0.5234,-0.5175,-0.5175,-0.5231,-0.5114,-0.5088,-0.4983,-0.5085,-0.5059,-0.2984,-0.3233,-0.3424,-0.3474,-0.3633,-0.3808,-0.402,-0.4147,-0.4248,-0.4338,-0.4333,-0.4319,-0.4351,-0.4457,-0.4566,-0.4637,-0.4749,-0.4841,-0.4881,-0.4887,-0.4887,-0.4887,-0.4887,-0.4887,-0.4887,-0.4905,-0.4916,-0.4916,-0.4969,-0.5008,-0.5027,-0.5064,-0.5112,-0.517,-0.5173,-0.5194,-0.5234,-0.5234,-0.5234,-0.5234,-0.5234,-0.5234,-0.5234,-0.5234,-0.5234,-0.5234,-0.5234,-0.5234,-0.5234,-0.5234,-0.5234,-0.5234,-0.5234,-0.5234,-0.5234,-0.5234,-0.5234,-0.5234,-0.5234,-0.5234,-0.5234,-0.5234,-0.5234,-0.5234,-0.5234,-0.5234,-0.5234,-0.5234,-0.5234,-0.5234,-0.5234,-0.5234,-0.5234,-0.5234,-0.5234,-0.5234,-0.5234,-0.5234,-0.5234,-0.5234,-0.5234,-0.5234,-0.5234,-0.5234,-0.5234,-0.5234,-0.5234,-0.5234,-0.5234,-0.5234,-0.5234,-0.5234,-0.5234,-0.5234,-0.5234,-0.5234,-0.5234,-0.5234,-0.5234,-0.5234,-0.5234,-0.5194,-0.5173,-0.5173,-0.5114,-0.5093,-0.5112,-0.5075,-0.5067,-0.5085,-0.5067,-0.5056,-0.2944,-0.3103,-0.3367,-0.3506,-0.3546,-0.3699,-0.3874,-0.3983,-0.4065,-0.4129,-0.419,-0.4227,-0.4213,-0.4402,-0.4558,-0.4558,-0.4693,-0.4812,-0.4849,-0.4873,-0.4887,-0.4887,-0.4887,-0.4887,-0.4887,-0.4887,-0.4887,-0.4887,-0.4921,-0.4953,-0.4974,-0.5008,-0.5053,-0.5109,-0.5112,-0.5141,-0.5199,-0.5199,-0.5199,-0.5199,-0.5199,-0.5212,-0.5234,-0.5234,-0.5234,-0.5234,-0.5234,-0.5234,-0.5234,-0.5234,-0.5234,-0.5234,-0.5234,-0.5234,-0.5234,-0.5234,-0.5234,-0.5234,-0.5234,-0.5234,-0.5234,-0.5234,-0.5234,-0.5234,-0.5234,-0.5234,-0.5234,-0.5234,-0.5234,-0.5234,-0.5234,-0.5234,-0.5234,-0.5234,-0.5234,-0.5234,-0.5234,-0.5234,-0.5234,-0.5234,-0.5234,-0.5234,-0.5234,-0.5234,-0.5234,-0.5234,-0.5234,-0.5234,-0.5234,-0.5234,-0.5234,-0.5234,-0.5234,-0.5234,-0.5234,-0.5234,-0.5234,-0.5234,-0.5191,-0.5167,-0.5167,-0.5133,-0.5112,-0.5112,-0.5077,-0.5056,-0.5056,-0.5035,-0.5027,-0.5027,-0.5003,-0.4993,-0.3055,-0.3175,-0.3372,-0.3432,-0.3493,-0.3556,-0.3718,-0.3707,-0.3707,-0.3856,-0.394,-0.4004,-0.406,-0.4266,-0.4436,-0.446,-0.4643,-0.4786,-0.4804,-0.4852,-0.4889,-0.4894,-0.4894,-0.4892,-0.4889,-0.4887,-0.4887,-0.4887,-0.4887,-0.491,-0.4966,-0.4969,-0.4995,-0.5051,-0.5051,-0.508,-0.4978,-0.4978,-0.4978,-0.4978,-0.4978,-0.5167,-0.522,-0.5226,-0.5228,-0.5228,-0.5231,-0.5234,-0.5234,-0.5234,-0.5234,-0.5234,-0.5234,-0.5234,-0.5234,-0.5234,-0.5234,-0.5234,-0.5234,-0.5234,-0.5234,-0.5234,-0.5234,-0.5234,-0.5234,-0.5234,-0.5234,-0.5234,-0.5234,-0.5234,-0.5234,-0.5234,-0.5234,-0.5234,-0.5234,-0.5234,-0.5234,-0.5234,-0.5234,-0.5234,-0.5234,-0.5234,-0.5234,-0.5234,-0.5234,-0.5234,-0.5234,-0.5234,-0.5234,-0.5231,-0.5228,-0.5234,-0.5226,-0.5223,-0.5226,-0.5223,-0.522,-0.522,-0.5117,-0.5056,-0.5056,-0.5053,-0.5051,-0.5051,-0.5048,-0.5046,-0.5046,-0.4995,-0.4971,-0.4974,-0.4916,-0.4889,-0.2757,-0.3047,-0.3342,-0.3383,-0.3527,-0.3758,-0.3755,-0.3707,-0.3638,-0.3654,-0.3644,-0.3752,-0.3766,-0.3993,-0.4269,-0.4539,-0.459,-0.4659,-0.4841,-0.4879,-0.4905,-0.495,-0.4955,-0.4937,-0.4892,-0.4887,-0.4887,-0.4887,-0.4887,-0.4894,-0.4908,-0.4908,-0.4934,-0.4993,-0.4995,-0.5022,-0.5077,-0.5077,-0.5077,-0.5077,-0.5077,-0.5085,-0.5099,-0.5146,-0.5165,-0.5167,-0.5215,-0.5234,-0.5234,-0.5234,-0.5234,-0.5234,-0.5234,-0.5234,-0.5234,-0.5234,-0.5234,-0.5234,-0.5234,-0.5234,-0.5234,-0.5234,-0.5234,-0.5234,-0.5234,-0.5234,-0.5234,-0.5234,-0.5234,-0.5234,-0.5234,-0.5234,-0.5234,-0.5234,-0.5234,-0.5234,-0.5234,-0.5234,-0.5234,-0.5234,-0.5234,-0.5234,-0.5234,-0.5234,-0.5234,-0.5234,-0.5234,-0.5234,-0.5234,-0.5194,-0.5183,-0.5228,-0.5152,-0.5117,-0.5162,-0.5125,-0.5099,-0.5099,-0.5072,-0.5056,-0.5056,-0.5016,-0.4995,-0.4995,-0.495,-0.4926,-0.4926,-0.4916,-0.4932,-0.4974,-0.4916,-0.4913,-0.2737,-0.3066,-0.3236,-0.32,-0.3297,-0.3498,-0.3411,-0.3387,-0.3358,-0.3364,-0.3339,-0.3474,-0.3636,-0.375,-0.3951,-0.4357,-0.4465,-0.455,-0.4704,-0.4773,-0.4839,-0.4924,-0.491,-0.4902,-0.4926,-0.4902,-0.4887,-0.4887,-0.4887,-0.4887,-0.4887,-0.4887,-0.4902,-0.4934,-0.4934,-0.4963,-0.5019,-0.4993,-0.4993,-0.5019,-0.5019,-0.5032,-0.5059,-0.5091,-0.5104,-0.5106,-0.5138,-0.5152,-0.5154,-0.5181,-0.5194,-0.5197,-0.5223,-0.5234,-0.5234,-0.5234,-0.5234,-0.5234,-0.5234,-0.5234,-0.5234,-0.5234,-0.5234,-0.5234,-0.5234,-0.5234,-0.5234,-0.5234,-0.5234,-0.5234,-0.5234,-0.5234,-0.5234,-0.5234,-0.5234,-0.5234,-0.5234,-0.5234,-0.5234,-0.5234,-0.5212,-0.5194,-0.5194,-0.517,-0.5152,-0.5152,-0.5152,-0.5152,-0.5152,-0.5125,-0.5117,-0.5149,-0.5096,-0.5069,-0.5101,-0.5075,-0.5056,-0.5056,-0.5008,-0.4993,-0.5019,-0.5016,-0.5014,-0.5014,-0.4958,-0.4929,-0.4929,-0.4929,-0.4929,-0.4934,-0.4929,-0.4932,-0.2857,-0.3103,-0.323,-0.2992,-0.3053,-0.314,-0.3032,-0.3024,-0.3042,-0.3042,-0.3087,-0.3222,-0.353,-0.354,-0.3633,-0.4031,-0.4258,-0.442,-0.4521,-0.4637,-0.4751,-0.486,-0.4831,-0.4836,-0.4926,-0.4897,-0.4873,-0.4873,-0.4881,-0.4887,-0.4887,-0.4887,-0.4887,-0.4887,-0.4887,-0.491,-0.4961,-0.4913,-0.4913,-0.4963,-0.4963,-0.4987,-0.5032,-0.504,-0.5046,-0.5046,-0.5053,-0.5056,-0.5061,-0.5112,-0.5133,-0.5136,-0.5186,-0.5207,-0.5207,-0.5207,-0.5212,-0.522,-0.522,-0.5226,-0.5234,-0.5234,-0.5234,-0.5234,-0.5234,-0.5234,-0.5228,-0.5212,-0.5207,-0.5207,-0.5207,-0.5207,-0.5207,-0.5207,-0.5207,-0.5207,-0.5207,-0.5207,-0.5207,-0.5207,-0.5167,-0.5133,-0.5133,-0.5091,-0.5056,-0.5056,-0.5056,-0.5056,-0.5056,-0.5051,-0.5048,-0.5056,-0.504,-0.5035,-0.5043,-0.5035,-0.5032,-0.5032,-0.494,-0.491,-0.4961,-0.5006,-0.5032,-0.5032,-0.4985,-0.4963,-0.4963,-0.4963,-0.4942,-0.4902,-0.4942,-0.494,-0.2716,-0.2952,-0.3169,-0.3277,-0.3233,-0.327,-0.3206,-0.3082,-0.2981,-0.2981,-0.3026,-0.31,-0.3204,-0.3411,-0.3476,-0.366,-0.3901,-0.4184,-0.4492,-0.4637,-0.4735,-0.4804,-0.4804,-0.4786,-0.4754,-0.4788,-0.4812,-0.4812,-0.486,-0.4887,-0.4887,-0.4887,-0.4887,-0.4887,-0.4887,-0.4892,-0.49,-0.4892,-0.4892,-0.49,-0.49,-0.4905,-0.4916,-0.4966,-0.4987,-0.499,-0.5038,-0.5056,-0.5059,-0.5067,-0.5069,-0.5072,-0.508,-0.5085,-0.5085,-0.5085,-0.5114,-0.5159,-0.5159,-0.5191,-0.5234,-0.5234,-0.5234,-0.5234,-0.5234,-0.5234,-0.5212,-0.5112,-0.5085,-0.5085,-0.5085,-0.5085,-0.5085,-0.5085,-0.5085,-0.5085,-0.5085,-0.5085,-0.5085,-0.5085,-0.5077,-0.5069,-0.5069,-0.5064,-0.5056,-0.5056,-0.5056,-0.5056,-0.5056,-0.5016,-0.5006,-0.5053,-0.4971,-0.4934,-0.4985,-0.4942,-0.4913,-0.4913,-0.4897,-0.4892,-0.49,-0.491,-0.4913,-0.4913,-0.4905,-0.49,-0.49,-0.49,-0.4921,-0.4961,-0.4921,-0.4924,-0.2894,-0.428,-0.5791,-0.5684,-0.4787,-0.4043,-0.3969,-0.3401,-0.2873,-0.2873,-0.2963,-0.3008,-0.3161,-0.3273,-0.3309,-0.3522,-0.3784,-0.3983,-0.4304,-0.4476,-0.4616,-0.4738,-0.4722,-0.472,-0.4754,-0.4754,-0.4765,-0.4796,-0.4826,-0.4855,-0.4887,-0.4887,-0.4887,-0.4887,-0.4887,-0.4887,-0.4887,-0.4887,-0.4887,-0.4887,-0.4887,-0.4887,-0.4889,-0.4916,-0.4929,-0.4929,-0.4955,-0.4966,-0.4969,-0.5,-0.5014,-0.5016,-0.5046,-0.5056,-0.5056,-0.5056,-0.5075,-0.5099,-0.5099,-0.5114,-0.5138,-0.5138,-0.5138,-0.5138,-0.5138,-0.5138,-0.5128,-0.5072,-0.5056,-0.5056,-0.5056,-0.5056,-0.5056,-0.5056,-0.5056,-0.5056,-0.5056,-0.5056,-0.5056,-0.5056,-0.5032,-0.5014,-0.5014,-0.4987,-0.4966,-0.4966,-0.4966,-0.4966,-0.4966,-0.4942,-0.4937,-0.4963,-0.4918,-0.4897,-0.4926,-0.4902,-0.4887,-0.4887,-0.4887,-0.5665,-0.7541,-0.7545,-0.8491,-1.0247,-0.8491,-0.7545,-0.7545,-0.5856,-0.4932,-0.4929,-0.4932,-0.5853,-0.4953,0.0,-0.8825,-0.7836,-0.6472,-0.5293,0.0,-0.4251,-0.3736,-0.4311,-0.4143,-0.4069,-0.4357,-0.3878,-0.3582,-0.3953,-0.3809,-0.3813,-0.4236,-0.4277,-0.471,-0.5469,-0.5031,-0.4907,-0.5588,-0.5142,-0.4709,-0.4754,-0.4783,-0.4818,-0.4865,-0.4879,-0.4887,-0.4887,-0.4873,-0.4873,-0.4887,-0.4887,-0.4887,-0.4887,-0.4887,-0.4887,-0.4887,-0.4887,-0.4887,-0.4887,-0.4887,-0.4887,-0.4892,-0.4937,-0.4955,-0.4958,-0.5,-0.5016,-0.5016,-0.5016,-0.5027,-0.5038,-0.5038,-0.5046,-0.5056,-0.5056,-0.5056,-0.5056,-0.5056,-0.5038,-0.5016,-0.5016,-0.5016,-0.5016,-0.5016,-0.5016,-0.5016,-0.5016,-0.5016,-0.5016,-0.5016,-0.5016,-0.5016,-0.5016,-0.4985,-0.4955,-0.4955,-0.4918,-0.4887,-0.4887,-0.4887,-0.4887,-0.4887,-0.4887,-0.4887,-0.4887,-0.4887,-0.4887,-0.4887,-0.6257,-0.7172,-0.7172,-0.7172,-0.8265,-1.0957,-1.0957,-1.2241,-1.4682,-1.2241,-1.0957,-1.0957,-0.85,-0.7234,-0.7172,-0.7238,-0.8613,0.0,-1.1062,-1.1147,-0.8451,-0.7605,-0.7191,-0.6548,-0.5994,0.0,-0.844,-0.7948,-0.7105,-0.7394,-0.5964,-0.4798,-0.4894,-0.4179,-0.3691,-0.3983,-0.4084,-0.5102,-0.7893,-0.6088,-0.5441,-0.8089,-0.6131,-0.4632,-0.4635,-0.4735,-0.4802,-0.4804,-0.4857,-0.4887,-0.4887,-0.4834,-0.4831,-0.4887,-0.4887,-0.4887,-0.4887,-0.4887,-0.4887,-0.4887,-0.4887,-0.4887,-0.4887,-0.4887,-0.4887,-0.4887,-0.4892,-0.4894,-0.4894,-0.4897,-0.49,-0.49,-0.49,-0.4934,-0.4982,-0.4982,-0.5014,-0.5056,-0.5056,-0.5056,-0.5056,-0.5056,-0.4982,-0.49,-0.49,-0.49,-0.49,-0.49,-0.49,-0.49,-0.49,-0.49,-0.49,-0.49,-0.49,-0.49,-0.49,-0.4897,-0.4894,-0.4894,-0.4889,-0.4887,-0.4887,-0.4887,-0.4887,-0.4887,-0.4887,-0.4887,-0.4887,-0.4887,-0.4887,-0.4887,-1.036,-1.3854,-1.3854,-1.3854,-1.4005,-1.4172,-1.4172,-1.4324,-1.4644,-1.4324,-1.4172,-1.4172,-1.402,-1.3861,-1.3854,-1.3861,-1.4013,-1.5883,-1.596,-1.5461,-1.4275,-1.2669,-1.1171,-1.0345,-0.9192,-0.8653,-0.9584,-0.9382,-0.9317,-0.996,-0.9015,-0.8431,-0.9213,-0.8457,-0.8022,-0.8665,-0.9059,-0.9668,-1.0968,-1.0607,-1.0524,-1.1637,-1.0752,-1.0283,-1.0222,-0.858,-0.749,-0.7549,-0.5806,-0.5521,-0.7455,-0.757,-0.757,-0.7455,-0.567,-0.5692,-0.7688,-0.5736,-0.4852,-0.4887,-0.4887,-0.4887,-0.4887,-0.4887,-0.4887,0.0,-0.4887,-0.4887,-0.4887,-0.4887,-0.4887,-0.4887,-0.4887,-0.4902,-0.4921,-0.4921,-0.4934,-0.495,-0.495,-0.495,-0.495,-0.495,-0.7679,-1.0968,-1.0968,-0.9447,-0.7925,-0.7925,-0.6409,-0.5344,-0.7472,-0.7925,-0.8382,-1.0512,-1.0968,-1.0968,-1.0968,-1.0968,-1.0968,-1.0968,-1.0968,-1.0968,-1.0968,-1.0968,-1.0968,-1.0968,-1.0968,-1.0968,-1.0968,-1.0968,-1.0968,-1.0968,-1.3088,-1.4604,-1.4604,-1.4604,-1.5513,-1.7481,-1.7632,-1.8538,-2.0511,-2.0662,-1.9606,-1.7632,-1.7632,-1.6573,-1.4604,-1.4604,-1.5665,-1.9841,-1.9891,-1.9303,-1.8016,-1.6286,-1.4615,-1.336,-1.2037,-1.1362,-1.2164,-1.1867,-1.1816,-1.2734,-1.1774,-1.1067,-1.2168,-1.1421,-1.1028,-1.1837,-1.2206,-1.2604,-1.2826,-1.3987,-1.4518,-1.3601,-1.3517,-1.3596,-1.3573,-1.1782,-1.0558,-1.0503,-0.8649,-0.8507,-1.0509,-1.0509,-1.0533,-1.0569,-0.8521,-0.8702,-1.07,-0.8627,-0.7792,-0.7886,-0.7886,-0.7899,-0.7929,-0.7929,-0.7929,-0.7929,-0.7929,-0.7929,-0.7929,-0.7929,-0.7929,-0.7929,-0.7929,-0.7929,-0.7929,-0.7929,-0.7929,-0.7929,-0.7929,-0.7929,-0.7929,-0.7929,-1.112,-1.4604,-1.4604,-1.2936,-1.1253,-1.1211,-0.9542,-0.8327,-1.0548,-1.0987,-1.1588,-1.3838,-1.4288,-1.4288,-1.4288,-1.4335,-1.4525,-1.4525,-1.4572,-1.4604,-1.4604,-1.4604,-1.4604,-1.4604,-1.4604,-1.4604,-1.4604,-1.4604,-1.5362,-1.7481,-1.7632,-1.7632,-1.7632,-1.7632,-1.8689,-2.0813,-2.0964,-2.203,-2.4301,-2.4301,-2.3235,-2.0964,-2.0964,-1.9757,-1.7632,-1.7632,-1.8851,-2.1791,-2.2428,-2.212,-1.8603,-1.7697,-1.7054,-1.5232,-1.4273,-1.4468,-1.6688,-1.5792,-1.4912,-1.5987,-1.4052,-1.2493,-1.3141,-1.2352,-1.1818,-1.2412,-1.2792,-1.3037,-1.3405,-1.5889,-1.6519,-1.3838,-1.3593,-1.3689,-1.3689,-1.3707,-1.3659,-1.3659,-1.3824,-1.384,-1.3667,-1.3659,-1.3746,-1.3772,-1.378,-1.378,-1.378,-1.378,-1.3873,-1.4193,-1.4193,-1.4288,-1.4604,-1.4604,-1.4604,-1.4604,-1.4604,-1.4604,-1.4604,-1.4604,-1.4604,-1.4604,-1.4604,-1.4604,-1.4604,-1.4604,-1.4604,-1.4604,-1.4604,-1.4604,-1.4604,-1.4604,-1.4604,-1.4604,-1.4604,-1.4604,-1.4564,-1.4382,-1.4193,-1.4146,-1.3965,-1.378,-1.3926,-1.3926,-1.3926,-1.3934,-1.3934,-1.4075,-1.4342,-1.4342,-1.4493,-1.4604,-1.4604,-1.4604,-1.4604,-1.4604,-1.4604,-1.4604,-1.4604,-1.4604,-1.7329,-2.3699,-2.4301,-2.4301,-2.4301,-2.4301,-2.4301,-2.4301,-2.4301,-2.4301,-2.4301,-2.4301,-2.4287,-2.4287,-2.4287,-2.4287,-2.4287,-2.4287,-2.4287,-2.2938,-2.3527,-2.3277,-2.1721,-2.1015,-2.0078,-1.7884,-1.6897,-1.6699,-1.7244,-1.6957,-1.6951,-1.8091,-1.7108,-1.6432,-1.7398,-1.703,-1.6881,-1.76,-1.838,-1.8896,-1.9224,-2.0249,-2.0468,-1.9903,-1.9857,-1.9892,-1.9892,-1.7983,-1.6745,-1.6745,-1.8795,-1.8947,-1.6886,-1.6745,-1.6774,-1.6842,-1.483,-1.4898,-1.6779,-1.5171,-1.4294,-1.4193,-1.4319,-1.4556,-1.4604,-1.4604,-1.4604,-1.4604,-1.4604,-1.4604,-1.4604,-1.4604,-1.4604,-1.4604,-1.4604,-1.4604,-1.4604,-1.4604,-1.4604,-1.4604,-1.4604,-1.4604,-1.5345,-1.9863,-2.1032,-2.0892,-2.0892,-2.0892,-2.0282,-1.7994,-1.5628,-1.4437,-1.6727,-1.7155,-1.7884,-2.0224,-2.0799,-2.0927,-2.0927,-2.1137,-2.13,-2.13,-2.1369,-2.1416,-2.1416,-2.1416,-2.1416,-2.1416,-2.1416,-2.1416,-2.1416,-2.1416,-2.2181,-2.415,-2.4301,-2.4301,-2.4301,-2.4301,-2.4301,-2.4301,-2.4116,-2.401,-2.401,-2.38,-2.3694,-2.3694,-2.3694,-2.3589,-2.3378,-2.3378,-2.3285,-2.3961,-2.4318,-2.4047,-2.3163,-2.2616,-2.1726,-1.932,-1.8498,-1.8233,-1.7868,-1.7813,-1.8155,-1.9276,-1.8535,-1.8299,-1.9608,-1.9226,-1.9237,-2.0345,-2.1044,-2.1598,-2.2006,-2.2204,-2.2389,-2.2573,-2.2586,-2.2586,-2.2586,-2.0883,-1.9892,-1.9892,-2.1595,-2.1735,-1.9892,-1.9892,-1.9892,-1.9892,-1.8197,-1.8271,-1.9841,-1.8413,-1.7718,-1.7652,-1.779,-1.8048,-1.8138,-1.8227,-1.8267,-1.8277,-1.8357,-1.8387,-1.8387,-1.8387,-1.8387,-1.8387,-1.8387,-1.8387,-1.8387,-1.8387,-1.8387,-1.8387,-1.8387,-1.8277,-1.8851,-2.2571,-2.3589,-2.3589,-2.3589,-2.3589,-2.3008,-2.1108,-1.8973,-1.7867,-1.9807,-2.0226,-2.0823,-2.2814,-2.3404,-2.3575,-2.3694,-2.3945,-2.4142,-2.4142,-2.4235,-2.4301,-2.4301,-2.4301,-2.4301,-2.4301,-2.4301,-2.4301,-2.4301,-2.4301,-2.4301,-2.4301,-2.4195,-2.4142,-2.4142,-2.4024,-2.3958,-2.3958,-2.38,-2.3707,-2.3707,-2.3536,-2.3589,-2.3589,-2.3589,-2.3351,-2.318,-2.318,-2.3088,-2.4672,-2.4831,-2.4575,-2.3292,-2.3035,-2.2298,-1.9812,-1.9187,-1.8965,-1.8328,-1.8201,-1.8534,-1.9534,-1.8836,-1.86,-2.0069,-1.9637,-1.9686,-2.0914,-2.1532,-2.194,-2.2481,-2.2573,-2.2573,-2.2547,-2.2573,-2.2573,-2.2547,-2.2573,-2.256,-2.2507,-2.2534,-2.256,-2.2586,-2.2586,-2.2586,-2.2586,-2.2613,-2.2613,-2.2586,-2.2639,-2.2784,-2.2995,-2.3022,-2.3193,-2.3602,-2.3734,-2.3852,-2.3865,-2.4116,-2.4221,-2.4221,-2.4221,-2.4221,-2.4221,-2.4221,-2.4221,-2.4221,-2.4221,-2.4221,-2.4221,-2.4221,-2.3852,-2.3404,-2.3404,-2.3391,-2.3364,-2.3364,-2.3364,-2.3364,-2.3364,-2.3167,-2.2903,-2.2639,-2.2613,-2.2692,-2.2942,-2.3035,-2.3153,-2.343,-2.372,-2.3931,-2.3931,-2.4142,-2.4301,-2.4301,-2.4301,-2.4301,-2.4301,-2.4301,-2.4261,-2.4156,-2.4142,-2.4142,-2.4142,-2.3918,-2.3773,-2.3773,-2.3523,-2.3364,-2.3364,-2.3364,-2.3364,-2.3364,-2.3364,-2.3364,-2.3364,-2.3364,-2.3351,-2.3469,-2.3469,-2.3312,-2.4674,-2.4831,-2.4703,-2.3918,-2.3277,-2.2364,-2.0191,-1.9168,-1.856,-1.758,-1.7587,-1.7934,-1.8518,-1.863,-1.8853,-1.9454,-1.9896,-2.0305,-2.0859,-2.1571,-2.2099,-2.2217,-2.2441,-2.2494,-2.2257,-2.2455,-2.2494,-2.2257,-2.2455,-2.2375,-2.1914,-2.2112,-2.2349,-2.2573,-2.2586,-2.2586,-2.2586,-2.2797,-2.2797,-2.2586,-2.3048,-2.3167,-2.3008,-2.3246,-2.3391,-2.3444,-2.3509,-2.3536,-2.3549,-2.3602,-2.3628,-2.3628,-2.3628,-2.3628,-2.3628,-2.3628,-2.3628,-2.3628,-2.3628,-2.3628,-2.3628,-2.3628,-2.3391,-2.3088,-2.3088,-2.2942,-2.2771,-2.2771,-2.2771,-2.2771,-2.2771,-2.2718,-2.2652,-2.26,-2.2745,-2.2929,-2.2982,-2.3364,-2.372,-2.3786,-2.4024,-2.4208,-2.4208,-2.4261,-2.4301,-2.4301,-2.4301,-2.4301,-2.4301,-2.4301,-2.3958,-2.3048,-2.2956,-2.2956,-2.2956,-2.2903,-2.2863,-2.2863,-2.2811,-2.2771,-2.2771,-2.2771,-2.2771,-2.2771,-2.2771,-2.2771,-2.2771,-2.2771,-2.2652,-2.2415,-2.2415,-2.2296,-2.4721,-2.4831,-2.4687,-2.3662,-2.3148,-2.2385,-2.0328,-1.9658,-1.9134,-1.8023,-1.8197,-1.8493,-1.8708,-1.881,-1.9068,-1.9572,-2.0047,-2.0398,-2.0965,-2.1439,-2.1782,-2.1914,-2.2191,-2.231,-2.2151,-2.2283,-2.231,-2.2151,-2.2151,-2.2033,-2.1851,-2.1848,-2.1993,-2.2151,-2.2296,-2.2375,-2.2375,-2.2652,-2.2731,-2.2586,-2.289,-2.2956,-2.2811,-2.2956,-2.3035,-2.3035,-2.318,-2.3233,-2.3246,-2.3391,-2.3589,-2.3589,-2.3589,-2.3589,-2.3589,-2.3589,-2.3589,-2.3589,-2.3589,-2.3589,-2.3404,-2.3127,-2.2929,-2.2771,-2.2626,-2.2586,-2.2534,-2.2244,-2.2257,-2.2336,-2.2191,-2.2165,-2.2191,-2.2336,-2.2481,-2.2626,-2.2771,-2.3153,-2.3509,-2.3654,-2.3681,-2.372,-2.3865,-2.3654,-2.3523,-2.3654,-2.3562,-2.3483,-2.3483,-2.3589,-2.3444,-2.285,-2.2666,-2.2586,-2.2586,-2.2455,-2.2375,-2.2375,-2.2244,-2.2165,-2.2165,-2.2165,-2.223,-2.2375,-2.2375,-2.2441,-2.2586,-2.2586,-2.2507,-2.2349,-2.2349,-2.2191,-2.4737,-2.4831,-2.4575,-2.3548,-2.3148,-2.2573,-2.058,-2.0244,-1.9973,-1.8914,-1.8976,-1.9301,-1.929,-1.9304,-1.9603,-2.0343,-2.0414,-2.0564,-2.124,-2.1294,-2.1426,-2.1611,-2.1888,-2.2046,-2.1993,-2.2033,-2.2046,-2.1993,-2.1716,-2.1545,-2.1545,-2.1598,-2.1624,-2.1624,-2.1914,-2.2085,-2.2138,-2.2389,-2.2534,-2.2586,-2.2586,-2.2586,-2.2586,-2.2586,-2.2586,-2.26,-2.2824,-2.2929,-2.2942,-2.3193,-2.3298,-2.3298,-2.3298,-2.3298,-2.3298,-2.3298,-2.3298,-2.3298,-2.3298,-2.3298,-2.3206,-2.2626,-2.2428,-2.2389,-2.2138,-2.2244,-2.2336,-2.1835,-2.1874,-2.2006,-2.1769,-2.1837,-2.189,-2.2006,-2.2059,-2.2151,-2.2441,-2.2692,-2.2956,-2.3298,-2.3206,-2.3153,-2.3404,-2.3008,-2.2731,-2.2969,-2.2797,-2.2652,-2.2652,-2.2718,-2.2771,-2.2771,-2.2573,-2.2428,-2.2428,-2.2204,-2.2059,-2.2059,-2.1835,-2.1837,-2.1837,-2.1756,-2.1888,-2.2138,-2.2138,-2.2257,-2.2507,-2.2455,-2.2428,-2.2428,-2.2428,-2.2296,-2.4407,-2.4831,-2.4815,-2.4687,-2.419,-2.3332,-2.1895,-2.1155,-2.0312,-1.8902,-1.8973,-1.9304,-1.9695,-2.0448,-2.1146,-2.1448,-2.1837,-2.1968,-2.1688,-2.1716,-2.1571,-2.136,-2.1584,-2.1663,-2.1294,-2.1611,-2.165,-2.128,-2.1123,-2.0951,-2.0951,-2.1202,-2.1202,-2.1202,-2.1611,-2.1888,-2.2138,-2.2178,-2.2336,-2.2586,-2.2586,-2.2586,-2.2586,-2.2586,-2.2586,-2.2586,-2.2626,-2.2639,-2.2639,-2.2679,-2.2705,-2.2705,-2.2705,-2.2705,-2.2705,-2.2705,-2.2705,-2.2705,-2.2705,-2.2705,-2.26,-2.2006,-2.1822,-2.1809,-2.1769,-2.1782,-2.1795,-2.1851,-2.1729,-2.1756,-2.1703,-2.1837,-2.1703,-2.1756,-2.189,-2.1835,-2.2138,-2.223,-2.2415,-2.2956,-2.3233,-2.3404,-2.3589,-2.3167,-2.2956,-2.2995,-2.2969,-2.2942,-2.2942,-2.231,-2.1874,-2.1874,-2.1835,-2.1822,-2.1822,-2.1917,-2.189,-2.189,-2.1851,-2.1837,-2.1837,-2.1954,-2.2099,-2.2138,-2.2138,-2.2165,-2.2204,-2.194,-2.1822,-2.1822,-2.1822,-2.1795,-2.3586,-2.4359,-2.4831,-2.4447,-2.3805,-2.313,-2.257,-2.1818,-2.1137,-2.04,-2.0023,-1.9837,-1.9603,-1.9867,-2.0501,-2.1288,-2.1684,-2.2029,-2.1748,-2.1838,-2.1555,-2.1044,-2.1281,-2.1413,-2.1163,-2.1387,-2.1413,-2.1163,-2.1264,-2.1219,-2.0833,-2.1224,-2.1291,-2.1031,-2.1149,-2.1439,-2.1888,-2.223,-2.2455,-2.2586,-2.2586,-2.2494,-2.2336,-2.2336,-2.2244,-2.2085,-2.2085,-2.2085,-2.2099,-2.227,-2.2336,-2.2349,-2.2521,-2.2586,-2.2586,-2.2586,-2.2481,-2.2336,-2.2336,-2.223,-2.2046,-2.1782,-2.1837,-2.1677,-2.1505,-2.1571,-2.1624,-2.1307,-2.1334,-2.1466,-2.1466,-2.1466,-2.1545,-2.1874,-2.1954,-2.2033,-2.2323,-2.2389,-2.2468,-2.2718,-2.2745,-2.2771,-2.2929,-2.2573,-2.2323,-2.2494,-2.2375,-2.3551,-2.7023,-2.705,-2.6911,-2.6911,-2.6717,-2.6736,-2.6736,-2.6736,-2.6736,-2.6736,-2.6736,-2.6736,-2.6736,-2.6749,-2.6927,-2.7002,-2.6792,-2.6658,-2.6866,-2.638,-2.6204,-2.6204,-2.6204,-2.6225,-2.3286,-2.3748,-2.4094,-2.4359,-2.3534,-2.266,-2.2533,-2.2208,-2.1812,-2.1481,-2.1016,-2.0645,-2.0128,-2.0038,-2.0272,-2.1164,-2.1783,-2.2089,-2.2134,-2.1932,-2.1701,-2.1104,-2.1031,-2.1045,-2.1045,-2.1045,-2.1424,-2.2078,-2.2505,-2.2249,-2.1091,-2.1734,-2.1863,-2.1348,-2.1348,-2.1434,-2.1745,-2.2265,-2.2434,-2.2362,-2.2362,-2.2244,-2.2033,-2.2033,-2.1901,-2.1837,-2.1837,-2.1837,-2.1851,-2.194,-2.2033,-2.2046,-2.227,-2.2362,-2.2362,-2.2362,-2.2217,-2.2292,-2.3553,-2.3848,-2.3455,-2.2792,-2.2527,-2.2353,-2.136,-2.1321,-2.1387,-2.0965,-2.1004,-2.1058,-2.1136,-2.1149,-2.128,-2.1914,-2.2033,-2.2085,-2.231,-2.2362,-2.2652,-2.3413,-2.3385,-2.3316,-2.3634,-2.337,-2.3361,-2.4268,-2.4229,-2.5741,-3.0068,-3.0622,-3.0622,-3.0622,-3.0479,-3.0295,-3.0295,-3.0295,-3.0295,-3.0295,-3.0295,-3.0295,-3.0295,-3.0295,-3.0442,-3.0622,-3.0218,-3.0012,-3.019,-2.9789,-2.9607,-2.9607,-2.9607,-2.9443,-2.4479,-2.3337,-2.2251,-2.4911,-2.3826,-2.187,-2.1266,-2.1851,-2.2288,-2.1491,-2.1599,-2.1827,-2.2086,-2.1928,-2.1855,-2.2158,-2.2778,-2.3123,-2.2935,-2.2517,-2.2209,-2.1776,-2.1233,-2.0859,-2.0859,-2.0859,-2.1877,-2.4431,-2.5311,-2.4544,-2.1863,-2.2506,-2.2906,-2.2763,-2.2763,-2.252,-2.1776,-2.2106,-2.2143,-2.1743,-2.1743,-2.1877,-2.1851,-2.1851,-2.1851,-2.1837,-2.1837,-2.1837,-2.1837,-2.1851,-2.1851,-2.1851,-2.1877,-2.1743,-2.1743,-2.1743,-2.1864,-2.2481,-2.7279,-2.8858,-2.8152,-2.5599,-2.4703,-2.4205,-2.1633,-2.0872,-2.0872,-2.0846,-2.0846,-2.0925,-2.1084,-2.1149,-2.1228,-2.165,-2.1851,-2.1729,-2.1877,-2.1743,-2.2752,-2.5885,-2.6459,-2.6433,-2.6779,-2.6543,-2.7241,-3.0113,-3.0499,-3.0354,-2.9857,-2.9803,-2.9803,-2.9803,-2.9785,-2.9767,-2.9767,-2.9767,-2.9767,-2.9767,-2.9767,-2.9767,-2.9767,-2.9767,-2.9785,-2.9803,-2.9534,-2.9334,-2.9352,-2.9098,-2.9042,-2.9042,-2.9042,-2.9024,-2.5287,-2.531,-2.5411,-2.7213,-2.6549,-2.5294,-2.4205,-2.398,-2.3333,-2.1489,-2.1202,-2.1366,-2.1404,-2.1112,-2.1193,-2.2327,-2.2392,-2.2246,-2.2134,-2.2477,-2.2505,-2.1877,-2.1606,-2.212,-2.3903,-2.5662,-2.6936,-2.7463,-2.8098,-2.8098,-2.7064,-2.7699,-2.8081,-2.8063,-2.8063,-2.8042,-2.7922,-2.8062,-2.8194,-2.8277,-2.8277,-2.8156,-2.7932,-2.7932,-2.7534,-2.7071,-2.7071,-2.6813,-2.6458,-2.6558,-2.664,-2.6673,-2.6771,-2.6869,-2.6869,-2.6869,-2.6838,-2.6853,-2.8547,-2.9097,-2.886,-2.7844,-2.7463,-2.7335,-2.6316,-2.6061,-2.6061,-2.6061,-2.6061,-2.6193,-2.6771,-2.692,-2.7085,-2.768,-2.7948,-2.7948,-2.7948,-2.7948,-2.8254,-2.9345,-2.9636,-2.9688,-2.9828,-2.974,-2.9838,-3.0536,-3.3633,-3.5801,-3.5497,-3.5475,-3.5475,-3.5475,-3.5475,-3.5475,-3.5475,-3.5475,-3.5475,-3.5475,-3.5475,-3.5475,-3.5475,-3.5475,-3.5475,-3.5475,-3.5108,-3.4849,-3.4849,-3.4394,-3.4156,-3.4156,-3.4156,-3.4156,-2.5981,-2.6198,-2.6707,-2.7849,-2.7626,-2.6771,-2.589,-2.5605,-2.5123,-2.368,-2.3428,-2.3453,-2.344,-2.3316,-2.3347,-2.4296,-2.3712,-2.313,-2.3119,-2.2763,-2.2635,-2.3134,-2.3134,-2.4144,-2.6699,-2.9602,-3.1224,-3.0992,-3.1642,-3.1496,-3.0341,-3.0992,-3.1244,-3.0953,-3.1205,-3.1236,-3.1129,-3.1129,-3.1137,-3.128,-3.128,-3.1144,-3.0874,-3.0874,-3.0464,-2.9962,-2.971,-2.9349,-2.9005,-2.9134,-2.9226,-2.9262,-2.9407,-2.9516,-2.9516,-2.9516,-3.0628,-3.2258,-3.2102,-3.1874,-3.1516,-3.0613,-3.0361,-3.0108,-2.9241,-2.8987,-2.8987,-2.8987,-2.8987,-2.9134,-2.9647,-2.9811,-2.9976,-3.0652,-3.0817,-3.0817,-3.0817,-3.0817,-3.1088,-3.2035,-3.2305,-3.2305,-3.2305,-3.3134,-3.3305,-3.1941,-3.567,-3.8598,-3.8411,-3.8223,-3.8129,-3.8129,-3.8129,-3.8129,-3.8129,-3.8129,-3.8129,-3.8129,-3.8129,-3.8129,-3.8129,-3.7965,-3.7871,-3.7871,-3.7519,-3.7331,-3.7331,-3.7167,-3.6949,-3.6847,-3.6847,-3.67,-2.6646,-2.5857,-2.5605,-2.6808,-2.6543,-2.5942,-2.5922,-2.6557,-2.7432,-2.7848,-2.8164,-2.8325,-2.8344,-2.8325,-2.8316,-2.8252,-2.696,-2.5991,-2.5852,-2.3632,-2.2991,-2.5662,-2.5901,-2.6792,-2.8969,-3.2126,-3.4406,-3.501,-3.5656,-3.4635,-3.137,-3.1894,-3.202,-3.137,-3.202,-3.202,-3.1244,-3.1244,-3.0846,-3.0215,-3.0215,-3.0215,-3.0215,-3.0215,-3.0215,-3.0215,-2.9475,-2.9241,-2.9241,-2.9241,-2.9241,-2.9241,-2.9241,-2.9222,-2.9241,-2.9241,-3.3006,-3.8067,-3.8067,-3.7695,-3.67,-3.4009,-3.3131,-3.2629,-2.9981,-2.9241,-2.9241,-2.9241,-2.9241,-2.9315,-2.9575,-2.9556,-2.9667,-2.9939,-3.0031,-3.0031,-3.0031,-3.0031,-3.0822,-3.3712,-3.4387,-3.4387,-3.4387,-3.678,-3.7713,-3.4779,-3.6757,-3.8411,-3.7894,-3.7378,-3.7073,-3.7073,-3.7073,-3.7073,-3.7073,-3.7073,-3.7073,-3.7073,-3.7073,-3.7073,-3.7073,-3.6604,-3.6346,-3.6346,-3.6346,-3.6346,-3.6346,-3.6839,-3.67,-3.6099,-3.6099,-3.5701,-2.8796,-2.8271,-2.7838,-2.8998,-2.9102,-2.8672,-2.7663,-2.7556,-2.7642,-2.7149,-2.7413,-2.781,-2.8094,-2.8151,-2.8164,-2.8335,-2.7555,-2.6979,-2.6962,-2.7102,-2.7403,-2.8153,-2.8551,-3.0245,-3.3948,-3.5972,-3.6801,-3.6552,-3.7174,-3.7298,-3.6801,-3.7423,-3.8043,-3.8267,-3.8391,-3.8143,-3.7547,-3.7523,-3.7174,-3.6552,-3.6552,-3.6552,-3.6552,-3.6552,-3.628,-3.5906,-3.5656,-3.5282,-3.4929,-3.4929,-3.4929,-3.4929,-3.4929,-3.5157,-3.5531,-3.5531,-3.6303,-3.7446,-3.7446,-3.7322,-3.6949,-3.6303,-3.6053,-3.5804,-3.5054,-3.4929,-3.4929,-3.4929,-3.4929,-3.4914,-3.5377,-3.5509,-3.5619,-3.6148,-3.6259,-3.6259,-3.6259,-3.6259,-3.6519,-3.7323,-3.7453,-3.7453,-3.7453,-3.8126,-3.8386,-3.7583,-3.7478,-3.7449,-3.7308,-3.7167,-3.7073,-3.7073,-3.7073,-3.7073,-3.7073,-3.7073,-3.7073,-3.7073,-3.7073,-3.7073,-3.7073,-3.6956,-3.6862,-3.6862,-3.6862,-3.6638,-3.6266,-3.6404,-3.6099,-3.5326,-3.5326,-3.5179,-2.8742,-2.8256,-2.7531,-2.8149,-2.8416,-2.865,-2.9124,-2.9051,-2.8961,-2.9301,-2.9836,-3.0232,-3.0503,-3.0778,-3.0925,-3.1031,-3.0018,-2.9118,-2.9071,-2.8917,-2.9191,-3.0068,-3.1433,-3.3362,-3.6138,-3.7103,-3.7489,-3.7583,-3.7976,-3.8443,-3.9059,-3.9455,-3.9826,-4.0171,-4.0417,-4.0417,-4.0047,-4.0047,-3.9826,-3.9455,-3.9455,-3.9455,-3.9455,-3.9702,-3.9553,-3.8935,-3.8687,-3.8316,-3.7943,-3.7943,-3.7943,-3.7943,-3.7943,-3.7943,-3.7995,-3.7562,-3.7293,-3.7238,-3.7238,-3.7133,-3.7073,-3.7073,-3.7073,-3.7073,-3.7073,-3.7073,-3.7073,-3.7073,-3.7073,-3.7144,-3.7449,-3.7519,-3.7613,-3.7918,-3.7988,-3.7988,-3.7988,-3.7988,-3.7988,-3.7988,-3.7988,-3.7988,-3.7988,-3.7988,-3.7988,-3.7988,-3.7472,-3.7073,-3.7073,-3.7073,-3.7073,-3.7073,-3.7073,-3.7073,-3.7073,-3.7073,-3.7073,-3.7073,-3.7073,-3.7073,-3.7073,-3.6885,-3.6768,-3.6768,-3.6768,-3.6645,-3.6274,-3.6132,-3.5701,-3.4929,-3.4701,-3.4232,-2.6817,-2.6118,-2.5669,-2.5604,-2.5716,-2.6695,0.0,-2.9976,-3.0182,-3.2267,-3.3054,-3.3525,-3.3643,-3.4188,-3.454,-3.47,-3.3145,-3.1778,-3.1795,-3.0179,-2.9658,-3.1352,-3.3798,-3.5669,-3.619,-3.6381,-3.6861,-3.7974,-3.8144,-3.8367,-3.8886,-3.896,-3.8985,-3.8985,-3.9528,-3.9924,-3.9924,-3.9924,-3.9924,-3.9924,-3.9924,-3.9924,-3.9949,-4.054,-4.054,-3.9949,-3.9331,-3.9059,-3.8985,-3.8812,-3.8787,-3.8664,-3.8664,-3.8393,-3.7754,-3.6766,-3.6694,-3.6983,-3.6983,-3.6881,-3.6745,-3.6792,-3.6815,-3.6839,-3.6885,-3.6909,-3.6909,-3.6909,-3.6956,-3.7003,-3.7003,-3.7026,-3.7073,-3.7073,-3.7073,-3.7073,-3.7073,-3.7073,-3.7073,-3.7073,-3.7073,-3.7073,-3.7073,-3.7073,-3.7073,-3.7073,-3.7073,-3.7073,-3.7073,-3.7073,-3.7073,-3.7073,-3.7073,-3.7073,-3.7073,-3.7073,-3.7073,-3.7073,-3.7073,-3.705,-3.7003,-3.6557,-3.6299,-3.6228,-3.6228,-3.6107,-3.5985,-3.5834,-3.5419,-3.465,-3.4048,-3.2934,0.0,0.0,0.0,0.0,0.0,0.0,0.0,-2.6456,-2.7015,-2.8392,-2.949,-3.0418,-3.1356,-3.165,-3.2256,-3.3878,-3.3507,-3.3128,-3.3521,-3.3562,-3.3241,-3.2397,-3.3525,-3.4492,-3.4487,-3.5378,-3.6068,-3.6717,-3.7337,-3.7744,-3.7868,-3.8169,-3.8391,-3.8391,-3.8959,-3.9207,-3.9207,-3.9207,-3.9207,-3.9207,-3.9207,-3.9207,-3.9207,-3.9331,-3.9331,-3.9207,-3.9084,-3.8836,-3.8416,-3.7345,-3.6671,-3.6214,-3.6214,-3.6454,-3.6718,-3.6092,-3.5689,-3.5291,-3.5291,-3.4961,-3.4656,-3.5055,-3.5196,-3.529,-3.5712,-3.5853,-3.5853,-3.5853,-3.6158,-3.6463,-3.6463,-3.6768,-3.7073,-3.7073,-3.7073,-3.7073,-3.7073,-3.7073,-3.7073,-3.7073,-3.7073,-3.7073,-3.7073,-3.7073,-3.7073,-3.7073,-3.7073,-3.7073,-3.7073,-3.7073,-3.7073,-3.7073,-3.7073,-3.7073,-3.7073,-3.7073,-3.7073,-3.7073,-3.7073,-3.6885,-3.6487,-3.6369,-3.6135,-3.5712,-3.5209,-3.4729,-3.415,-3.3614,-3.2931,-3.2345,-3.2223,-3.1598,0.0,0.0,0.0,0.0,0.0,0.0,0.0,0.0,0.0,0.0,0.0,-2.8813,-2.9154,0.0,-3.1075,-3.1892,-3.2255,-3.2672,-3.3195,-3.3504,-3.3267,-3.1794,-3.2469,-3.2872,-3.2913,-3.3631,-3.4384,-3.5169,-3.5566,-3.6274,-3.7521,-3.7794,-3.8087,-3.8327,-3.8602,-3.8631,-3.8268,-3.8268,-3.851,-3.8777,-3.8784,-3.8759,-3.8752,-3.851,-3.8119,-3.7848,-3.7848,-3.7699,-3.7452,-3.7071,-3.6715,-3.6405,-3.4913,-3.4629,-3.4836,-3.4836,-3.4887,-3.475,-3.475,-3.475,-3.4821,-3.5079,-3.5149,-3.5196,-3.5478,-3.5571,-3.5618,-3.5877,-3.6135,-3.6369,-3.6627,-3.6885,-3.7073,-3.7073,-3.7073,-3.7446,-3.8787,-3.8043,-3.7571,-3.8787,-3.8067,-3.7073,-3.7073,-3.9281,-4.0612,-3.9281,-3.9034,-3.8663,-3.7322,-3.6862,-3.7071,-3.7879,-3.761,-3.7583,-3.7583,-3.7583,-3.7224,-3.6421,-3.6322,-3.6205,-3.5947,-3.5449,-3.5074,-3.4818,-3.3701,-3.2965,-3.2639,-3.1703,-3.1241,-3.1128,-3.0085,-2.9532,0.0,0.0,0.0,0.0,0.0,0.0,0.0,0.0,0.0,0.0,0.0,0.0,0.0,0.0,0.0,-2.9949,-3.0715,-3.1548,-3.2074,-3.2012,-3.1596,-3.0747,-3.0996,-3.1278,-3.1348,-3.1948,-3.2763,-3.3708,-3.385,-3.5008,-3.7467,-3.7526,-3.781,-3.8422,-3.8627,-3.8298,-3.7366,-3.7465,-3.7819,-3.833,-3.8289,0.0,-3.833,-3.7836,-3.735,-3.6925,-3.681,-3.6644,-3.657,-3.6785,-3.6767,-3.6545,-3.499,-3.4243,-3.4036,-3.4221,-3.4684,-3.5138,-3.4676,-3.468,-3.5102,-3.5667,-3.5456,-3.5244,-3.581,-3.5952,0.0,-3.6695,-3.7152,-3.7588,-3.7778,-3.8219,-3.8539,-3.8043,-3.8291,-3.9158,-4.1323,-4.012,-3.9256,-4.1323,-4.012,-3.8663,-3.8663,-4.1871,-4.3681,-4.1297,-4.1093,-4.0444,-3.8075,-3.7612,-3.8017,-3.9319,-3.9084,-3.8797,-3.8797,-3.8395,-3.7859,-3.7022,-3.5974,-3.5264,-3.4747,-3.3864,-3.3494,-3.3628,-3.2012,-3.1276,-3.1679,-3.0308,-2.9737,-3.0063,-2.7615,-2.6958,0.0,0.0,0.0,0.0,0.0,0.0,0.0,0.0,0.0,0.0,0.0,0.0,0.0,0.0,0.0,0.0,-2.9824,-3.0488,-3.1006,-2.9899,-2.9193,-2.9494,-2.9588,-2.9799,-3.0245,-3.1301,-3.2165,-3.2767,-3.3225,-3.4719,-3.7535,-3.7587,0.0,0.0,0.0,-3.8825,-3.6702,-3.7181,-3.7642,-3.7838,-3.7777,-3.7777,-3.7838,-3.7725,-3.7673,-3.7621,-3.703,-3.6499,-3.5957,-3.5004,-3.4314,-3.4182,-3.7071,-3.7715,-3.6705,-3.587,-3.5973,-3.6265,-3.4173,0.0,0.0,-3.5745,-3.5252,-3.4004,-3.6475,-3.7307,-3.7436,-3.8205,-4.021,-4.1803,-4.0312,-4.1926,-4.34,-4.1103,-4.2302,-4.4129,-4.4372,-4.4251,-4.4129,-4.4372,-4.4251,-4.4008,-4.4008,-4.3325,-4.2346,-4.0684,-4.1549,-4.1855,-4.0232,-4.106,-4.1899,-4.2049,-4.211,0.0,-4.2054,-4.0351,-4.0018,-4.1706,-3.7569,-3.4057,-3.1713,-3.149,-3.1758,-3.2268,-3.0047,-2.9842,-3.171,-2.9415,-2.8257,-2.7795,-2.4039,-2.3982,0.0,0.0,0.0,0.0,0.0,0.0,0.0,0.0,0.0,0.0,0.0,0.0,0.0,0.0,0.0,0.0,-2.7662,-2.8532,-2.8275,-2.7899,-2.7875,-2.8391,-2.9682,-3.024,-2.9311,-3.0999,-3.2319,-3.2872,-3.3528,-3.5137,-3.8103,-3.8634,-3.8966,-3.9183,-3.9684,-3.9272,-3.7878,-3.812,-3.8586,-3.8913,-3.8914,-3.8914,-3.8885,-3.8559,-3.8231,-3.7904,-3.7689,-3.7419,-3.723,-3.7017,-3.6616,-3.619,0.0,0.0,0.0,0.0,-3.6278,-3.6584,-3.5637,-3.5165,-3.527,-3.6908,-3.6777,-3.6268,-3.7798,-3.8286,-3.8395,-3.9021,-4.0407,-4.1586,-4.1165,-4.2238,-4.3275,-4.2235,-4.2682,-4.4012,-4.5543,-4.4573,-4.3984,-4.5543,-4.4602,0.0,-4.6397,-4.6231,-4.5238,-4.3576,-4.3471,-4.2969,-4.1333,-4.1024,-4.1216,-4.2305,-4.211,-4.1873,-4.1873,-4.1133,0.0,0.0,0.0,-3.5846,-3.4721,-3.3764,0.0,0.0,0.0,-2.7051,-2.7964,-2.4833,0.0,0.0,-2.1818,-2.2036,0.0,0.0,0.0,0.0,0.0,0.0,0.0,0.0,0.0,0.0,0.0,0.0,0.0,0.0,0.0,0.0,-2.5262,-2.6653,-2.6885,-2.7476,-2.8068,-2.8462,-3.0395,-3.1153,-2.9536,-3.1493,-3.3037,-3.3363,-3.4044,-3.574,-3.8792,-3.9494,-3.9862,-4.0171,-4.0216,-3.9713,-3.8716,-3.8579,-3.8814,-3.9185,-3.9026,-3.8893,-3.898,-3.8539,-3.8076,-3.7749,-3.7518,-3.7518,-3.7547,-3.7796,-3.7637,-3.7303,-3.701,-3.7227,-3.7574,-3.7751,-3.7711,-3.732,-3.6887,-3.6742,-3.6927,-3.8121,-3.8161,-3.7732,-3.8883,-3.9235,-3.9379,-3.9907,-4.0963,-4.1952,-4.1969,-4.2856,-4.3718,-4.3211,-4.3611,-4.4637,-4.648,-4.5431,-4.4637,-4.6592,-4.5127,-4.4357,-4.7156,-4.7632,-4.6992,-4.5338,-4.4952,-4.4133,-4.2486,-4.1795,-4.1903,-4.3131,-4.291,-4.2635,-4.2344,-4.181,-4.1037,-3.9934,-3.7778,-3.6815,-3.7131,-3.4702,-3.2676,-3.1464,-2.7776,-2.5694,0.0,0.0,0.0,0.0,0.0,0.0,0.0,0.0,0.0,0.0,0.0,0.0,0.0,0.0,0.0,0.0,0.0,0.0,0.0,0.0,0.0,0.0,0.0,0.0,-2.8071,-2.9471,-3.025,-3.0278,-3.1509,-3.216,-3.1483,-3.3145,-3.4373,-3.4401,-3.4833,-3.6449,-3.9235,-3.9491,-3.988,-4.0946,-4.1124,-4.0222,-3.8318,-3.7925,-3.773,-3.7557,-3.7109,-3.6822,-3.6822,-3.6822,-3.6792,-3.6763,-3.6284,-3.6064,-3.5968,-3.5516,-3.5227,-3.5708,-3.9831,-4.1455,-4.1554,-4.2283,-4.1075,-3.8907,-3.7349,-3.6742,-3.7073,-3.9415,-3.8613,-3.7202,-3.9545,-4.0175,-4.0398,-4.1172,-4.3017,-4.4523,-4.333,-4.5014,-4.641,-4.4706,-4.6204,-4.8082,-4.8082,-4.8082,-4.8082,-4.8082,-4.6922,-4.5998,-4.6068,-4.6171,-4.5602,-4.4204,-4.5169,0.0,-4.4072,-4.5068,-4.5932,-4.5898,-4.5968,-4.5566,-4.4869,-4.2843,-4.1771,-4.223,-3.7641,-3.5392,-3.6564,-3.2006,-2.9457,-2.9431,-2.8016,-2.6855,-2.5838,0.0,0.0,0.0,0.0,0.0,0.0,0.0,0.0,0.0,0.0,0.0,0.0,0.0,0.0,0.0,0.0,0.0,0.0,0.0,0.0,0.0,0.0,0.0,0.0,-2.7968,-2.9431,-2.9526,-3.156,-3.2157,-3.0164,-3.263,-3.4382,-3.4382,-3.5908,-3.7832,-4.0163,-4.0617,-4.1032,-4.141,-4.145,-4.1163,-4.0455,-4.0337,-4.0243,-4.0174,-4.0019,-4.0019,-4.0019,-4.0019,-4.0019,-3.9893,-3.9799,-3.9705,-3.9705,-3.9517,-3.8886,-3.8156,-3.9636,-4.0176,-4.021,-4.0476,-4.0088,-3.9268,-3.8758,-3.8889,-3.9612,-4.1332,-4.0723,-3.9738,-4.1976,-4.1945,-4.1427,-4.2724,-4.3676,-4.4205,-4.425,-4.5383,-4.6226,-4.5621,-4.6106,-4.6767,-4.68,-4.6767,-4.6767,-4.6767,-4.3605,-4.0642,-3.961,-4.12,-4.1834,-3.9866,-4.1541,-4.2739,-4.1901,-4.2201,-4.2207,-4.1707,-4.1674,-4.1574,-4.1308,-4.0063,-3.938,-3.9499,-3.7156,-3.5892,-3.6287,-3.4048,-3.2852,-3.2852,-3.1641,-2.864,-2.3624,0.0,0.0,0.0,0.0,0.0,0.0,0.0,0.0,0.0,0.0,0.0,0.0,0.0,0.0,0.0,0.0,0.0,0.0,0.0,0.0,0.0,0.0,0.0,0.0,0.0,0.0,-3.0845,-3.249,0.0,-3.0465,-3.2556,-3.4046,-3.3966,-3.5456,-3.7205,-3.8978,-3.9411,-3.9866,-4.0312,-4.04,-4.0657,-4.1018,-4.0891,-4.0933,-4.1116,-4.0933,-4.0842,-4.0842,-4.0842,-4.0842,-4.0842,-4.0842,-4.0842,-4.0809,-4.0276,-3.9344,-3.8246,-3.8246,-3.8113,-3.7913,-3.8179,-3.8246,-3.8312,-3.8579,-3.8978,-3.9577,-4.0509,-3.9644,-3.8631,-4.021,-3.9677,-3.8878,-4.0666,-4.1367,-4.1867,-4.3039,-4.3738,-4.4236,-4.437,-4.4437,-4.4437,-4.447,-4.4037,-4.3902,-4.4337,-4.1774,-3.8965,-3.7293,-3.8538,-3.9519,-3.8532,-3.9387,-4.0589,-4.1828,-4.1332,-4.0779,-4.0796,-4.0377,-3.9838,-3.9306,-3.8573,-3.7721,-3.6759,-3.6151,-3.5688,-3.5228,-3.4444,-3.3451,-3.2341,-3.0862,-2.7437,0.0,0.0,0.0,0.0,0.0,0.0,0.0,0.0,0.0,0.0,0.0,0.0,0.0,0.0,0.0,0.0,0.0,0.0,0.0,0.0,0.0,0.0,0.0,0.0,0.0,0.0,0.0,-3.3794,-3.402,0.0,0.0,0.0,0.0,-3.2985,-3.3543,-3.4461,-3.5929,-3.6029,-3.6559,-3.7777,-3.8049,-3.8706,-3.9677,-3.9534,-3.9608,-4.0134,-3.9608,-3.9344,-3.9344,-3.9344,-3.9344,-3.9344,-3.9344,-3.9344,-3.9211,-3.7797,-3.6763,-3.6016,-3.5916,-3.545,-3.4839,-3.5683,-3.5949,-3.6082,-3.6997,-3.733,-3.733,-3.7197,-3.5762,-3.4085,-3.4507,-3.371,0.0,0.0,-3.6563,-3.7697,-3.9933,-4.0476,-4.0709,-4.1441,-4.1608,-4.1608,-4.1608,-4.0542,-3.9877,-4.0909,-4.1075,-4.0345,-3.8155,0.0,-3.8429,-3.9578,-3.8342,-3.8988,-4.3507,-4.2405,-4.1703,-4.2961,-4.1927,-4.0574,-3.8962,-3.8356,-3.6904,-3.4324,-3.4742,-3.4647,-3.365,-3.3027,-3.1343,-2.8207,-2.6182,0.0,0.0,0.0,0.0,0.0,0.0,0.0,0.0,0.0,0.0,0.0,0.0,0.0,0.0,0.0,0.0,0.0,0.0,0.0,0.0,0.0,0.0,0.0,0.0,0.0,0.0,-2.7597,-2.9853,-3.1272,-3.0763,-2.9849,0.0,0.0,0.0,0.0,0.0,0.0,-3.3479,-3.4056,-3.4973,-3.6173,-3.6754,-3.7394,-3.7966,-3.7915,-3.7898,-3.8066,-3.7898,-3.7813,-3.7813,-3.7813,-3.7813,-3.7813,-3.7813,-3.7813,-3.7764,-3.5729,-3.4762,-3.4428,-3.272,-3.1988,-3.1988,-3.3253,-3.3719,-3.3985,-3.5783,-3.6781,-3.6997,-3.4717,-3.4351,-3.4218,-3.1156,0.0,0.0,0.0,0.0,-3.5395,-3.7631,-3.8911,-4.0043,-4.1308,-4.1608,-4.1608,-4.1608,-4.1308,-3.9799,-3.5733,-3.4056,-3.2264,-2.8941,-3.0103,0.0,-2.9987,-3.3963,-3.7341,-3.8202,-4.0568,-4.211,-4.1819,-4.1535,-4.0519,-3.8365,-3.7445,-3.5954,-3.3466,-3.3446,-3.3351,-3.3085,-3.1731,-3.0019,-2.7938,0.0,0.0,0.0,0.0,0.0,0.0,0.0,0.0,0.0,0.0,0.0,0.0,0.0,0.0,0.0,0.0,0.0,0.0,0.0,0.0,0.0,0.0,0.0,0.0,0.0,0.0,0.0,-2.512,-2.7835,-2.8839,-2.8264,-2.7146,0.0,0.0,0.0,0.0,0.0,0.0,0.0,0.0,0.0,-3.2853,-3.3648,-3.4324,-3.4965,-3.5868,-3.6384,-3.6315,-3.6948,-3.7364,-3.7364,-3.7364,-3.7364,-3.7364,-3.7364,-3.6391,-3.4787,-3.3164,-3.2087,-3.1407,0.0,0.0,0.0,0.0,-3.0315,-3.0588,-3.2572,-3.3291,-3.3083,-3.1784,0.0,0.0,0.0,0.0,0.0,0.0,0.0,-3.3395,-3.5317,-3.7162,-3.8712,-3.9511,-3.971,-3.971,-3.971,-3.8421,-3.6134,-3.2335,-3.0943,-2.9469,-2.6373,-2.7137,0.0,0.0,0.0,-3.5235,-3.7423,-4.0016,-4.1718,-4.1773,-4.1188,-4.0167,-3.8351,-3.7376,-3.6106,-3.443,-3.4182,-3.3578,-3.2423,-3.0475,-2.7743,0.0,0.0,0.0,0.0,0.0,0.0,0.0,0.0,0.0,0.0,0.0,0.0,0.0,0.0,0.0,0.0,0.0,0.0,0.0,0.0,0.0,0.0,0.0,0.0,0.0,0.0,0.0,0.0,0.0,-2.6121,-2.6669,0.0,0.0,0.0,0.0,0.0,0.0,0.0,0.0,0.0,0.0,0.0,0.0,0.0,-3.0728,-3.1493,-3.3376,-3.4359,-3.4432,-3.5666,-3.6418,-3.6519,-3.6519,-3.6539,-3.6626,-3.6405,0.0,-3.1809,-3.053,0.0,0.0,0.0,0.0,0.0,0.0,0.0,0.0,0.0,0.0,0.0,0.0,0.0,0.0,0.0,0.0,0.0,0.0,0.0,0.0,0.0,0.0,-3.6687,-3.6889,-3.7024,-3.6923,-3.627,-3.3509,-3.0898,-2.9791,-2.9577,-2.8868,0.0,0.0,0.0,0.0,0.0,0.0,-3.8305,-4.0297,-4.1568,-4.2508,-4.1457,-4.0129,-3.9021,-3.8077,-3.7138,-3.6167,-3.5302,-3.3919,-3.1636,-2.9302,0.0,0.0,0.0,0.0,0.0,0.0,0.0,0.0,0.0,0.0,0.0,0.0,0.0,0.0,0.0,0.0,0.0,0.0,0.0,0.0,0.0,0.0,0.0,0.0,0.0,0.0,0.0,0.0,0.0,0.0,0.0,0.0,0.0,0.0,0.0,0.0,0.0,0.0,0.0,0.0,0.0,0.0,0.0,0.0,0.0,0.0,0.0,0.0,0.0,0.0,-3.1077,-3.1512,-3.2513,-3.2053,-3.2189,-3.2747,-3.1485,-3.1341,-3.1778,-2.8371,0.0,0.0,0.0,0.0,0.0,0.0,0.0,0.0,0.0,0.0,0.0,0.0,0.0,0.0,0.0,0.0,0.0,0.0,0.0,0.0,0.0,0.0,-3.3265,-3.4471,-3.5286,-3.4791,-3.0631,0.0,0.0,0.0,0.0,0.0,0.0,0.0,0.0,0.0,0.0,0.0,-3.5146,-4.0547,-4.4271,-4.4155,-4.392,-4.2779,-4.0313,-3.9974,-3.8988,-3.6931,-3.3386,-3.0943,0.0,0.0,0.0,0.0,0.0,0.0,0.0,0.0,0.0,0.0,0.0,0.0,0.0,0.0,0.0,0.0,0.0,0.0,0.0,0.0,0.0,0.0,0.0,0.0,0.0,0.0,0.0,0.0,0.0,0.0,0.0,0.0,0.0,0.0,0.0,0.0,0.0,0.0,0.0,0.0,0.0,0.0,0.0,0.0,0.0,0.0,0.0,0.0,0.0,0.0,0.0,0.0,0.0,0.0,0.0,0.0,0.0,0.0,-2.8172,-2.6129,0.0,0.0,0.0,0.0,0.0,0.0,0.0,0.0,0.0,0.0,0.0,0.0,0.0,0.0,0.0,0.0,0.0,0.0,0.0,0.0,0.0,0.0,0.0,0.0,0.0,0.0,0.0,0.0,0.0,0.0,0.0,0.0,0.0,0.0,0.0,0.0,0.0,0.0,0.0,0.0,-3.4124,-3.9829,-4.3622,-4.3469,-4.3239,-4.2586,-4.1232,-4.0803,-3.9282,-3.6438,-3.3087,0.0,0.0,0.0,0.0,0.0,0.0,0.0,0.0,0.0,0.0,0.0,0.0,0.0,0.0,0.0,0.0,0.0,0.0,0.0,0.0,0.0,0.0,0.0,0.0,0.0,0.0,0.0,0.0,0.0,0.0,0.0,0.0,0.0,0.0,0.0,0.0,0.0,0.0,0.0,0.0,0.0,0.0,0.0,0.0,0.0,0.0,0.0,0.0,0.0,0.0,0.0,0.0,0.0,0.0,0.0,0.0,0.0,0.0,0.0,-2.5234,-2.1868,0.0,0.0,0.0,0.0,0.0,0.0,0.0,0.0,0.0,0.0,0.0,0.0,0.0,0.0,0.0,0.0,0.0,0.0,0.0,0.0,0.0,0.0,0.0,0.0,0.0,0.0,0.0,0.0,0.0,0.0,0.0,0.0,0.0,0.0,0.0,0.0,0.0,0.0,0.0,0.0,-3.3749,-3.9187,-4.2813,-4.2739,-4.2739,-4.2592,-4.2074,-4.1404,-3.9439,-3.5586,-3.2513,0.0,0.0,0.0,0.0,0.0,0.0,0.0,0.0,0.0,0.0,0.0,0.0,0.0,0.0,0.0,0.0,0.0,0.0,0.0,0.0,0.0,0.0,0.0,0.0,0.0,0.0,0.0,0.0,0.0,0.0,0.0,0.0,0.0,0.0,0.0,0.0,0.0,0.0,0.0,0.0,0.0,0.0,0.0,0.0,0.0,0.0,0.0,0.0,0.0,0.0,0.0,0.0,0.0,0.0,0.0,0.0,0.0,0.0,0.0,0.0,0.0,0.0,0.0,0.0,0.0,0.0,0.0,0.0,0.0,0.0,0.0,0.0,0.0,0.0,0.0,0.0,0.0,0.0,0.0,0.0,0.0,0.0,0.0,0.0,0.0,0.0,0.0,0.0,0.0,0.0,0.0,0.0,0.0,0.0,0.0,0.0,0.0,0.0,0.0,0.0,0.0,-3.2973,-3.9735,-4.4348,-4.3974,-4.5087,-4.5015,-4.2838,-4.2617,-4.0297,-3.4991,0.0,0.0,0.0,0.0,0.0,0.0,0.0,0.0,0.0,0.0,0.0,0.0,0.0,0.0,0.0,0.0,0.0,0.0,0.0,0.0,0.0,0.0,0.0,0.0,0.0,0.0,0.0,0.0,0.0,0.0,0.0,0.0,0.0,0.0,0.0,0.0,0.0,0.0,0.0,0.0,0.0,0.0,0.0,0.0,0.0,0.0,0.0,0.0,0.0,0.0,0.0,0.0,0.0,0.0,0.0,0.0,0.0,0.0,0.0,0.0,0.0,0.0,0.0,0.0,0.0,0.0,0.0,0.0,0.0,0.0,0.0,0.0,0.0,0.0,0.0,0.0,0.0,0.0,0.0,0.0,0.0,0.0,0.0,0.0,0.0,0.0,0.0,0.0,0.0,0.0,0.0,0.0,0.0,0.0,0.0,0.0,0.0,0.0,0.0,0.0,0.0,0.0,-3.3871,-3.9923,-4.4075,-4.3894,-4.4169,-4.3988,-4.3093,-4.2649,-3.9808,-3.373,0.0,0.0,0.0,0.0,0.0,0.0,0.0,0.0,0.0,0.0,0.0,0.0,0.0,0.0,0.0,0.0,0.0,0.0,0.0,0.0,0.0,0.0,0.0,0.0,0.0,0.0,0.0,0.0,0.0,0.0,0.0,0.0,0.0,0.0,0.0,0.0,0.0,0.0,0.0,0.0,0.0,0.0,0.0,0.0,0.0,0.0,0.0,0.0,0.0,0.0,0.0,0.0,0.0,0.0,0.0,0.0,0.0,0.0,0.0,0.0,0.0,0.0,0.0,0.0,0.0,0.0,0.0,0.0,0.0,0.0,0.0,0.0,0.0,0.0,0.0,0.0,0.0,0.0,0.0,0.0,0.0,0.0,0.0,0.0,0.0,0.0,0.0,0.0,0.0,0.0,0.0,0.0,0.0,0.0,0.0,0.0,0.0,0.0,0.0,0.0,0.0,0.0,-3.4605,-4.0375,-4.4357,-4.4225,-4.4423,-4.4225,-4.3565,-4.3099,-3.9813,-3.2625,0.0,0.0,0.0,0.0,0.0,0.0,0.0,0.0,0.0,0.0,0.0,0.0,0.0,0.0,0.0,0.0,0.0,0.0,0.0,0.0,0.0,0.0,0.0,0.0,0.0,0.0,0.0,0.0,0.0,0.0,0.0,0.0,0.0,0.0,0.0,0.0,0.0,0.0,0.0,0.0,0.0,0.0,0.0,0.0,0.0,0.0,0.0,0.0,0.0,0.0,0.0,0.0,0.0,0.0,0.0,0.0,0.0,0.0,0.0,0.0,0.0,0.0,0.0,0.0,0.0,0.0,0.0,0.0,0.0,0.0,0.0,0.0,0.0,0.0,0.0,0.0,0.0,0.0,0.0,0.0,0.0,0.0,0.0,0.0,0.0,0.0,0.0,0.0,0.0,0.0,0.0,0.0,0.0,0.0,0.0,0.0,0.0,0.0,0.0,0.0,0.0,0.0,-3.4796,-4.1256,-4.5725,-4.5512,-4.6829,-4.6829,-4.4488,-4.4291,-4.0614,0.0,0.0,0.0,0.0,0.0,0.0,0.0,0.0,0.0,0.0,0.0,0.0,0.0,0.0,0.0,0.0,0.0,0.0,0.0,0.0,0.0,0.0,0.0,0.0,0.0,0.0,0.0,0.0,0.0,0.0,0.0,0.0,0.0,0.0,0.0,0.0,0.0,0.0,0.0,0.0,0.0,0.0,0.0,0.0,0.0,0.0,0.0,0.0,0.0,0.0,0.0,0.0,0.0,0.0,0.0,0.0,0.0,0.0,0.0,0.0,0.0,0.0,0.0,0.0,0.0,0.0,0.0,0.0,0.0,0.0,0.0,0.0,0.0,0.0,0.0,0.0,0.0,0.0,0.0,0.0,0.0,0.0,0.0,0.0,0.0,0.0,0.0,0.0,0.0,0.0,0.0,0.0,0.0,0.0,0.0,0.0,0.0,0.0,0.0,0.0,0.0,0.0,0.0,-3.4737,-3.915,-4.2739,-4.4641,-4.5122,-4.4879,-4.3852,-4.3605,-4.0561,-3.3544,0.0,0.0,0.0,0.0,0.0,0.0,0.0,0.0,0.0,0.0,0.0,0.0,0.0,0.0,0.0,0.0,0.0,0.0,0.0,0.0,0.0,0.0,0.0,0.0,0.0,0.0,0.0,0.0,0.0,0.0,0.0,0.0,0.0,0.0,0.0,0.0,0.0,0.0,0.0,0.0,0.0,0.0,0.0,0.0,0.0,0.0,0.0,0.0,0.0,0.0,0.0,0.0,0.0,0.0,0.0,0.0,0.0,0.0,0.0,0.0,0.0,0.0,0.0,0.0,0.0,0.0,0.0,0.0,0.0,0.0,0.0,0.0,0.0,0.0,0.0,0.0,0.0,0.0,0.0,0.0,0.0,0.0,0.0,0.0,0.0,0.0,0.0,0.0,0.0,0.0,0.0,0.0,0.0,0.0,0.0,0.0,0.0,0.0,0.0,0.0,0.0,0.0,0.0,-3.9139,-4.2477,-4.4162,-4.4058,-4.376,-4.3402,-4.3269,-4.0484,-3.4172,0.0,0.0,0.0,0.0,0.0,0.0,0.0,0.0,0.0,0.0,0.0,0.0,0.0,0.0,0.0,0.0,0.0,0.0,0.0,0.0,0.0,0.0,0.0,0.0,0.0,0.0,0.0,0.0,0.0,0.0,0.0,0.0,0.0,0.0,0.0,0.0,0.0,0.0,0.0,0.0,0.0,0.0,0.0,0.0,0.0,0.0,0.0,0.0,0.0,0.0,0.0,0.0,0.0,0.0,0.0,0.0,0.0,0.0,0.0,0.0,0.0,0.0,0.0,0.0,0.0,0.0,0.0,0.0,0.0,0.0,0.0,0.0,0.0,0.0,0.0,0.0,0.0,0.0,0.0,0.0,0.0,0.0,0.0,0.0,0.0,0.0,0.0,0.0,0.0,0.0,0.0,0.0,0.0,0.0,0.0,0.0,0.0,0.0,0.0,0.0,0.0,0.0,0.0,-4.0683,-4.4172,-4.4117,-4.376,-4.3462,-4.3209,-4.3148,-4.0484,-3.4172,-3.1884,0.0,0.0,0.0,0.0,0.0,0.0,0.0,0.0,0.0,0.0,0.0,0.0,0.0,0.0,0.0,0.0,0.0,0.0,0.0,0.0,0.0,0.0,0.0,0.0,0.0,0.0,0.0,0.0,0.0,0.0,0.0,0.0,0.0,0.0,0.0,0.0,0.0,0.0,0.0,0.0,0.0,0.0,0.0,0.0,0.0,0.0,0.0,0.0,0.0,0.0,0.0,0.0,0.0,0.0,0.0,0.0,0.0,0.0,0.0,0.0,0.0,0.0,0.0,0.0,0.0,0.0,0.0,0.0,0.0,0.0,0.0,0.0,0.0,0.0,0.0,0.0,0.0,0.0,0.0,0.0,0.0,0.0,0.0,0.0,0.0,0.0,0.0,0.0,0.0,0.0,0.0,0.0,0.0,0.0,0.0,0.0,0.0,0.0,0.0,0.0,0.0,0.0,-4.0364,-4.1992,-4.3878,-4.4046,-4.3808,-4.3209,-4.3148,-4.0484,-3.4172,-3.1884,0.0,0.0,0.0,0.0,0.0,0.0,0.0,0.0,0.0,0.0,0.0,0.0,0.0,0.0,0.0,0.0,0.0,0.0,0.0,0.0,0.0,0.0,0.0,0.0,0.0,0.0,0.0,0.0,0.0,0.0,0.0,0.0,0.0,0.0,0.0,0.0,0.0,0.0,0.0,0.0,0.0,0.0,0.0,0.0,0.0,0.0,0.0,0.0,0.0,0.0,0.0,0.0,0.0,0.0,0.0,0.0,0.0,0.0,0.0,0.0,0.0,0.0,0.0,0.0,0.0,0.0,0.0,0.0,0.0,0.0,0.0,0.0,0.0,0.0,0.0,0.0,0.0,0.0,0.0,0.0,0.0,0.0,0.0,0.0,0.0,0.0,0.0,0.0,0.0,0.0,0.0,0.0,0.0,0.0,0.0,0.0,0.0,0.0,0.0,0.0,0.0,0.0,-3.6067,-3.9037,-4.3649,-4.3868,-4.3569,-4.3209,-4.3148,-4.0297,-3.3518,-3.1604,0.0,0.0,0.0,0.0,0.0,0.0,0.0,0.0,0.0,0.0,0.0,0.0,0.0,0.0,0.0,0.0,0.0,0.0,0.0,0.0,0.0,0.0,0.0,0.0,0.0,0.0,0.0,0.0,0.0,0.0,0.0,0.0,0.0,0.0,0.0,0.0,0.0,0.0,0.0,0.0,0.0,0.0,0.0,0.0,0.0,0.0,0.0,0.0,0.0,0.0,0.0,0.0,0.0,0.0,0.0,0.0,0.0,0.0,0.0,0.0,0.0,0.0,0.0,0.0,0.0,0.0,0.0,0.0,0.0,0.0,0.0,0.0,0.0,0.0,0.0,0.0,0.0,0.0,0.0,0.0,0.0,0.0,0.0,0.0,0.0,0.0,0.0,0.0,0.0,0.0,0.0,0.0,0.0,0.0,0.0,0.0,0.0,0.0,0.0,0.0,0.0,0.0,0.0,-3.6901,-4.3027,-4.344,-4.3209,-4.3148,-4.3148,-4.0063,-3.2725,0.0,0.0,0.0,0.0,0.0,0.0,0.0,0.0,0.0,0.0,0.0,0.0,0.0,0.0,0.0,0.0,0.0,0.0,0.0,0.0,0.0,0.0,0.0,0.0,0.0,0.0,0.0,0.0,0.0,0.0,0.0,0.0,0.0,0.0,0.0,0.0,0.0,0.0,0.0,0.0,0.0,0.0,0.0,0.0,0.0,0.0,0.0,0.0,0.0,0.0,0.0,0.0,0.0,0.0,0.0,0.0,0.0,0.0,0.0,0.0,0.0,0.0,0.0,0.0,0.0,0.0,0.0,0.0,0.0,0.0,0.0,0.0,0.0,0.0,0.0,0.0,0.0,0.0,0.0,0.0,0.0,0.0,0.0,0.0,0.0,0.0,0.0,0.0,0.0,0.0,0.0,0.0,0.0,0.0,0.0,0.0,0.0,0.0,0.0,0.0,0.0,0.0,0.0,0.0,-3.8748,-4.1378,-4.2727,-4.3402,-4.3209,-4.3148,-4.0063,-3.2725,0.0,0.0,0.0,0.0,0.0,0.0,0.0,0.0,0.0,0.0,0.0,0.0,0.0,0.0]}],[{"header":{"parameterUnit":"kt","parameterCategory":2,"dx":1,"dy":1,"la1":29.285339999999998,"la2":30.599998999999997,"lo1":-89.70041500000002,"lo2":-87.6738589999976,"nx":112,"ny":82,"refTime":"2022-11-01T12:00:00:Z","depth":0,"parameterNumber":2,"parameterNumberName":"V-component_of_WINDS"},"data":[12.2939,12.5421,12.527,11.1059,10.9104,10.6773,9.196,0.0,9.1885,0.0,0.0,0.0,0.0,0.0,0.0,0.0,0.0,0.0,0.0,7.417,0.0,0.0,0.0,0.0,0.0,0.0,0.0,0.0,0.0,0.0,0.0,14.6569,14.6493,14.7099,14.763,14.8463,14.9675,14.9675,14.9675,14.9675,14.9675,14.9978,15.0584,15.172,15.2553,15.3083,15.475,15.6025,15.701,15.6568,15.7628,15.9446,15.8385,15.8613,15.9294,15.7174,15.7022,15.8083,15.9219,15.9597,15.9597,15.9597,15.9597,15.9597,15.9597,15.9597,15.9446,15.884,15.9143,15.9446,15.884,15.9143,15.9597,15.9597,15.9597,15.9597,15.9597,15.9597,15.9597,15.9597,15.9597,15.9597,15.9597,15.9597,15.8613,15.5886,15.5419,15.5204,15.4598,15.3689,15.3008,15.3008,15.2023,15.119,15.0659,15.0584,15.0356,14.975,15.0205,15.0281,14.9675,15.0281,15.0281,14.9675,14.9675,14.9675,14.9675,14.9675,14.9675,14.9675,14.9552,14.9527,11.6623,11.9029,11.8954,10.2938,10.0983,0.0,0.0,0.0,0.0,0.0,0.0,0.0,0.0,0.0,0.0,0.0,0.0,0.0,0.0,0.0,0.0,0.0,0.0,0.0,0.0,0.0,0.0,0.0,12.9072,0.0,14.4751,14.5963,14.6266,14.6266,14.7933,14.9069,14.9675,14.9675,14.9675,14.9675,14.9675,14.9675,14.975,15.0811,15.1341,15.1417,15.3008,15.4371,15.5356,15.4825,15.5886,15.778,15.6643,15.6871,15.7628,15.5356,15.528,15.634,15.7477,15.8234,15.8764,15.8764,15.9143,15.9597,15.9597,15.9597,15.9597,15.9597,15.9597,15.9597,15.9597,15.9597,15.9597,15.9597,15.9597,15.9446,15.884,15.8764,15.8537,15.8007,15.7855,15.7855,15.7855,15.7855,15.6946,15.4144,15.3765,15.3538,15.2932,15.2023,15.1341,15.1341,15.0356,14.9675,14.9675,14.9675,14.9675,14.9675,14.9675,14.9675,14.9675,14.9675,14.9675,14.9675,14.9675,14.9675,14.9675,14.9675,14.9675,14.9675,14.9675,14.9675,11.2037,10.9764,10.7659,9.2862,0.0,0.0,0.0,0.0,8.5667,0.0,0.0,0.0,0.0,0.0,0.0,0.0,0.0,0.0,0.0,0.0,0.0,0.0,0.0,0.0,0.0,11.1423,11.3232,0.0,12.3315,12.4754,14.1191,14.3615,14.46,14.46,14.6266,14.7933,14.9675,14.9675,14.9675,14.9675,14.9675,14.9675,14.9675,14.9675,14.9675,14.975,15.1417,15.2174,15.2326,15.3765,15.4447,15.4522,15.4447,15.4447,15.4371,15.4371,15.4447,15.4447,15.4447,15.5571,15.701,15.701,15.8083,15.9446,15.9446,15.9446,15.9446,15.9446,15.9446,15.9446,15.9446,15.9446,15.9446,15.9446,15.9446,15.8991,15.7325,15.701,15.648,15.4825,15.4522,15.4522,15.4522,15.4447,15.3916,15.2326,15.2099,15.1493,14.9902,14.9675,14.9675,14.9675,14.9675,14.9675,14.9675,14.9675,14.9675,14.9675,14.9675,14.9675,14.9675,14.9675,14.9675,14.9675,14.9675,14.9675,14.9675,14.9675,14.9675,14.9675,14.9675,14.9675,10.2262,0.0,0.0,0.0,0.0,0.0,0.0,0.0,0.0,0.0,0.0,0.0,0.0,0.0,0.0,0.0,0.0,9.0564,0.0,0.0,0.0,0.0,0.0,0.0,0.0,12.7405,13.1117,14.2176,13.2632,13.089,14.1494,14.2555,14.3388,14.46,14.6266,14.7933,14.9675,14.9675,14.9675,14.9675,14.9675,14.9675,14.9675,14.9675,14.9675,14.9675,15.0129,15.1114,15.2174,15.1341,15.2402,15.4447,15.331,15.2099,15.1038,15.1038,15.1796,15.2856,15.2856,15.3916,15.5204,15.5204,15.5583,15.5886,15.5886,15.5886,15.5886,15.5886,15.5886,15.5886,15.5886,15.5886,15.5886,15.5886,15.5886,15.581,15.5356,15.5204,15.5128,15.4674,15.4522,15.4522,15.4522,15.2553,15.0887,15.0432,15.0356,15.0205,14.975,14.9675,14.9675,14.9675,14.9675,14.9675,14.9675,14.9675,14.9675,14.9675,14.9675,14.9675,14.9675,14.9675,14.9675,14.9675,14.9675,14.9675,14.9675,14.9675,14.9675,14.9675,14.9675,14.9675,0.0,0.0,0.0,0.0,0.0,0.0,8.2935,0.0,8.0339,0.0,0.0,0.0,0.0,0.0,0.0,0.0,9.1397,0.0,0.0,0.0,11.2719,0.0,0.0,0.0,13.2859,13.4147,13.7858,14.5509,13.5889,13.301,14.0585,14.1721,14.2858,14.46,14.6266,14.7933,14.9675,14.9675,14.9675,14.9675,14.9675,14.9675,14.9675,14.9675,14.9675,14.9675,14.9675,15.0205,15.1114,15.0053,15.0811,15.2402,15.1493,15.0584,14.9675,14.9675,15.0281,15.1114,15.1114,15.172,15.2629,15.331,15.3992,15.4522,15.4522,15.4522,15.4522,15.4522,15.4522,15.4522,15.4522,15.4522,15.4522,15.4522,15.4522,15.4371,15.3689,15.3538,15.3386,15.2629,15.2477,15.2477,15.2477,15.0887,14.9675,14.9675,14.9675,14.9675,14.9675,14.9675,14.9675,14.9675,14.9675,14.9675,14.9675,14.9675,14.9675,14.9675,14.9675,14.9675,14.9675,14.9675,14.9675,14.9675,14.9675,14.9675,14.9675,14.9675,15.0053,15.0735,15.0735,15.0356,0.0,0.0,0.0,0.0,9.1298,0.0,0.0,0.0,8.4425,8.1936,0.0,0.0,0.0,0.0,0.0,0.0,0.0,0.0,9.8167,10.7711,11.6346,11.9376,13.5586,14.3766,13.6495,13.5823,13.8237,14.3918,13.6116,13.3541,13.9222,14.0964,14.2706,14.46,14.6115,14.7781,14.9675,14.9675,14.9675,14.9675,14.9675,14.9675,14.9675,14.9675,14.9675,14.9675,14.9675,14.9675,14.9675,14.9675,14.9675,14.9675,14.9675,14.9675,14.9675,14.9675,14.9675,14.9675,14.9675,14.9675,14.9902,15.1417,15.2856,15.3992,15.3992,15.3992,15.3992,15.3992,15.3992,15.3992,15.3992,15.3992,15.3992,15.3992,15.3992,15.3613,15.225,15.1947,15.1493,14.9978,14.9675,14.9675,14.9675,14.9675,14.9675,14.9675,14.9675,14.9675,14.9675,14.9675,14.9675,14.9675,14.9675,14.9675,14.9675,14.9675,14.9675,14.9675,14.9675,14.9675,14.9675,14.9675,14.9675,14.9675,14.9675,14.9675,14.9675,14.9675,15.0432,15.1947,15.2099,15.1265,0.0,0.0,0.0,0.0,0.0,8.6238,0.0,0.0,0.0,10.4884,10.3461,10.1652,10.6954,10.6348,10.5666,10.7635,0.0,0.0,0.0,12.5209,0.0,13.5207,13.9903,14.2933,14.2706,14.2706,14.2706,14.2555,14.0812,13.9676,13.96,13.9903,14.1418,14.4524,14.4903,14.6569,14.9675,14.9675,14.9675,14.9675,14.9675,14.9675,14.9675,14.9675,14.9675,14.9675,14.9675,14.9675,14.9675,14.9675,14.9675,14.9675,14.9675,14.9675,14.9675,14.9675,14.9675,14.9675,14.9675,14.9675,14.975,15.0053,15.0356,15.0584,15.0584,15.0584,15.0584,15.0584,15.0584,15.0584,15.0584,15.0584,15.0584,15.0584,15.0584,15.0508,15.0205,15.0129,15.0053,14.975,14.9675,14.9675,14.9675,14.9675,14.9675,14.9675,14.9675,14.9675,14.9675,14.9675,14.9675,14.9675,14.9675,14.9675,14.9675,14.9675,14.9675,14.9675,14.9675,14.9675,14.9675,14.9675,14.9675,14.9675,14.9675,14.9675,14.9675,14.9675,14.9826,15.0205,15.1568,15.1265,8.8997,8.6976,8.6607,8.5064,0.0,0.0,0.0,8.5916,8.9489,10.2174,10.2106,10.2333,11.0749,11.2264,11.2492,11.3316,12.2557,12.9375,12.8541,13.4828,13.9903,14.0737,14.157,14.2782,14.4448,14.46,14.4297,14.3388,14.2555,14.1343,13.9676,13.96,14.0737,14.3312,14.4145,14.5812,14.8387,14.922,14.9675,14.9675,14.9675,14.9675,14.9675,14.9675,14.9675,14.9675,14.9675,14.9675,14.9675,14.9675,14.9675,14.9675,14.9675,14.9675,14.9675,14.9675,14.9675,14.9675,14.9675,14.9675,14.9675,14.9675,14.9675,14.9675,14.9675,14.9675,14.9675,14.9675,14.9675,14.9675,14.9675,14.9675,14.9675,14.9675,14.9675,14.9675,14.9675,14.9675,14.9675,14.9675,15.0356,15.0682,14.9856,15.0411,15.0659,14.9826,14.9675,14.9675,14.9675,14.9675,14.9675,14.9675,14.9675,14.9675,14.9675,14.9675,14.9675,14.9675,14.9675,14.9675,14.9675,14.9675,14.9675,14.9675,14.9675,14.9675,14.9675,14.9675,15.0129,15.0962,15.0962,15.0053,8.5081,8.4122,8.4448,8.156,8.18,0.0,8.2639,8.4912,9.0283,10.1349,10.3621,10.6045,11.4158,11.7794,11.9073,11.771,12.5436,13.3465,13.8843,13.96,14.0206,14.1873,14.21,14.2782,14.4448,14.4297,14.4145,14.4145,14.2555,14.104,13.9676,13.96,14.0358,14.2024,14.3766,14.5433,14.7099,14.8841,14.9675,14.9675,14.9675,14.9675,14.9675,14.9675,14.9675,14.9675,14.9675,14.9675,14.9675,14.9675,14.9675,14.9675,14.9675,14.9675,14.9675,14.9675,14.9675,14.9675,14.9675,14.9675,14.9675,14.9675,14.9675,14.9675,14.9675,14.9675,14.9675,14.9675,14.9902,15.0053,14.975,14.9924,15.0174,15.0184,14.9902,14.976,15.0119,14.9881,14.9805,15.0073,15.1286,15.1628,14.9987,15.0837,15.1286,14.9922,14.9694,14.9685,14.9654,14.9643,14.9708,14.9675,14.9675,14.9675,14.9675,14.9675,14.9675,14.9675,14.9675,14.9675,14.9675,14.9978,15.0129,15.0129,15.0508,15.0508,15.0129,14.9523,14.975,15.0735,14.9675,14.8311,7.8833,7.8303,7.937,8.3239,8.0058,0.0,10.4984,10.7257,11.0211,13.0435,13.4601,13.4904,13.604,13.6571,13.6722,13.6571,13.7631,13.8767,13.9449,13.96,14.0206,14.1873,14.21,14.2782,14.4448,14.3236,14.2403,14.2403,14.0812,13.9752,13.96,13.96,14.0358,14.2024,14.3766,14.5433,14.7099,14.8841,14.9675,14.9675,14.9675,14.9675,14.9675,14.9675,14.9675,14.9675,14.9675,14.9675,14.9675,14.9675,14.9675,14.9675,14.9675,14.9675,14.9675,14.9675,14.9675,14.9675,14.9675,14.9675,14.9675,14.9675,14.9675,14.9675,14.9675,14.9675,14.9675,14.9675,15.0735,15.1568,15.0053,15.0765,15.1923,15.1931,15.0789,15.006,15.158,15.0717,15.0132,15.1663,15.205,15.1675,14.9932,14.9853,14.9925,14.9697,14.9697,14.9676,14.9663,14.9648,14.9674,14.9686,14.9675,14.9675,14.9675,14.9675,14.9675,14.9675,14.9675,14.9675,14.9675,15.1114,15.1947,15.1947,15.331,15.331,15.1947,14.8917,14.6796,14.5509,14.6796,14.6493,7.4913,7.5898,7.7867,7.9906,0.0,0.0,10.1273,10.5969,11.2096,12.8844,13.1571,13.2632,13.8464,13.96,13.96,13.96,13.96,13.96,13.96,13.96,14.0206,14.1873,14.1191,14.1267,14.3009,14.157,14.0585,14.0585,13.9979,13.96,13.96,13.96,13.9903,14.0585,14.2252,14.3994,14.566,14.7327,14.869,14.9675,14.9675,14.9675,14.9675,14.9675,14.9675,14.9675,14.9675,14.9675,14.9675,14.9675,14.9675,14.9686,14.9704,14.9665,14.9674,14.9677,14.9697,14.969,14.9691,14.9665,14.9665,14.9665,14.9665,14.9674,14.9677,14.9697,14.9924,15.0835,15.167,15.2277,15.2586,15.2383,15.2485,15.3476,15.3117,15.2823,15.3561,15.3096,15.281,15.3607,15.4513,15.4659,15.3001,15.269,15.2295,15.1311,15.0324,14.9708,14.9681,14.9676,14.9667,14.9703,14.9697,14.967,14.9665,14.9665,15.012,15.1115,15.0196,15.012,15.1115,15.0876,15.0694,15.0735,15.1362,15.1362,15.0735,14.841,14.6428,14.4683,14.4455,14.3924,7.2641,0.0,0.0,0.0,0.0,0.0,10.4606,10.9605,11.5589,12.8011,12.9602,13.0965,13.8237,13.96,13.96,13.96,13.96,13.96,13.96,13.96,14.0206,14.1873,14.0585,14.0206,14.1949,14.0585,13.96,13.96,13.96,13.96,13.96,13.96,13.96,13.96,14.1191,14.2727,14.3991,14.6061,14.7803,14.8982,14.947,14.9675,14.9675,14.9675,14.9675,14.9675,14.9675,14.9654,14.9656,14.9656,14.9656,14.9665,14.9684,14.9709,14.9645,14.9701,14.964,14.9711,14.9662,14.9709,14.9709,14.9709,14.9709,14.9803,15.0236,15.04,15.0703,15.245,15.2905,15.3437,15.5562,15.557,15.5198,15.5957,15.5809,15.543,15.5427,15.5809,15.6038,15.5719,15.6567,15.6798,15.5185,15.4822,15.4367,15.3153,15.1558,15.0418,15.0414,15.0033,14.9726,14.964,14.964,14.9701,14.9639,14.9709,15.0171,15.1391,15.0322,15.0246,15.1466,15.0756,15.0127,14.9656,15.0125,14.9897,14.9041,14.6929,14.5307,14.4093,14.241,14.1559,0.0,0.0,0.0,9.5819,9.8016,10.3015,12.5881,12.7481,12.6951,13.7101,13.9146,13.9222,13.9525,13.96,13.96,13.96,13.96,13.96,13.96,13.96,14.0206,14.1873,14.0585,14.0206,14.1949,14.0585,13.96,13.96,13.96,13.96,13.96,13.96,13.96,13.96,14.1191,14.2181,14.238,14.5516,14.7174,14.7228,14.8917,14.9675,14.9675,14.9675,14.9675,14.9675,14.9675,14.97,14.9711,14.9711,14.9711,14.9711,14.9714,14.9714,14.9714,14.9638,14.964,14.9638,14.9714,14.9714,14.9714,14.9714,14.9714,15.0017,15.1614,15.2146,15.245,15.4196,15.4651,15.541,15.8751,16.0822,16.1576,15.9979,15.8507,15.7342,15.724,15.8583,15.9364,15.7695,15.7391,15.6936,15.5191,15.4887,15.4887,15.4811,15.3375,15.2337,15.2311,15.087,14.9812,14.9719,14.964,14.9638,14.9714,14.9714,14.9714,14.979,14.9714,14.9714,14.979,15.1308,15.1381,14.9704,15.1298,15.0539,14.7423,14.4093,14.2425,14.2347,14.0615,13.9757,7.9376,8.5139,9.2259,10.2257,11.0135,11.7812,12.6852,13.1874,13.554,13.8975,13.9604,13.96,13.96,13.9614,13.9649,13.9621,13.96,13.96,13.96,13.96,13.9752,14.0358,13.9903,13.9752,14.0358,13.9903,13.96,13.96,13.96,13.96,13.96,13.96,13.96,13.96,14.1191,14.2662,14.3849,14.3799,14.4935,14.7183,14.7761,14.8621,14.9683,14.969,14.9645,14.9645,14.9645,14.9676,14.964,14.964,14.964,14.9643,14.9735,14.9812,14.9812,14.98,14.979,14.9944,15.1102,15.1483,15.1711,15.2774,15.3837,15.4823,15.5492,15.6467,15.7682,15.9352,15.9732,16.0036,16.1178,16.1847,16.1906,16.0307,15.9528,15.9137,15.9088,15.9528,15.9814,15.9207,15.9131,15.8979,15.8372,15.7385,15.6247,15.5109,15.3515,15.2009,15.0895,15.0216,14.9845,14.9787,14.979,14.98,14.9812,14.9812,15.0268,15.1407,14.9357,14.8597,14.9736,14.8209,14.7001,14.6446,14.6999,14.5711,14.243,14.1289,14.0758,14.0682,14.0093,13.9787,8.4062,9.0213,9.6966,10.9513,11.9144,12.6666,13.0826,13.587,13.9628,13.9775,13.9732,13.9666,13.9623,13.9719,13.9751,13.964,13.9657,13.9649,13.9546,13.9576,13.9614,13.9614,13.9614,13.9614,13.9614,14.0188,14.0508,14.0532,14.1054,14.113,14.0599,14.1071,14.1115,14.0509,14.21,14.3539,14.46,14.3539,14.4102,14.6198,14.6245,14.6818,14.7849,14.784,14.8255,14.8805,14.8824,14.8521,14.799,14.9281,14.9053,14.799,14.8734,14.8572,14.8113,14.8756,14.8962,14.9201,15.0915,15.1912,15.2671,15.4418,15.6012,15.7448,15.8162,15.9131,16.0193,16.118,16.1483,16.1635,16.2166,16.2318,16.2242,16.1787,16.1256,16.0345,15.8524,15.8144,15.8144,15.8144,15.8144,15.8144,15.8144,15.7234,15.6171,15.5109,15.3515,15.1998,15.0935,15.0252,14.9873,14.9873,14.9873,14.9894,14.9859,14.9331,14.9711,15.1381,14.8879,14.7816,14.8954,14.6868,14.5139,14.3966,14.3955,14.2637,13.9932,13.9932,13.9932,13.9937,13.9847,13.9775,8.6874,9.2128,9.8443,11.7905,12.535,12.9905,13.7873,13.9692,13.9768,13.9771,13.9768,13.9753,13.9763,13.9737,13.9756,13.9758,13.9733,13.9729,13.9595,13.9674,13.9745,13.9745,13.9745,13.9745,13.9745,14.1184,14.2182,14.2261,14.369,14.3918,14.2476,14.3801,14.3874,14.2132,14.3799,14.4708,14.448,14.4708,14.4701,14.4587,14.455,14.4644,14.4752,14.4683,14.5563,14.7064,14.7126,14.6306,14.5168,14.8279,14.7748,14.5092,14.6686,14.6382,14.5168,14.6837,14.745,14.7672,14.9418,15.1087,15.2681,15.435,15.6095,15.7765,15.9358,15.989,15.9966,16.0041,16.0117,16.0497,16.2014,16.2318,16.2622,16.4215,16.3229,16.0649,15.5944,15.4957,15.4957,15.4957,15.4957,15.4957,15.4957,15.4957,15.4881,15.4805,15.3439,15.2377,15.2301,15.0859,14.9873,14.9873,14.9873,14.9797,14.9721,14.8279,14.7976,14.9493,14.8052,14.7071,14.7071,14.6995,14.5472,14.2436,14.236,14.1601,13.9932,13.9932,13.9932,13.9937,13.9847,13.9784,9.5956,10.6753,11.5467,12.6809,13.2227,13.5296,13.7511,13.8949,13.9775,13.9789,13.9784,13.9773,13.9786,13.9789,13.9788,13.9756,13.9759,13.9759,13.9729,13.9737,13.9749,13.9749,13.9749,13.9749,13.9749,14.0139,14.0901,14.2182,14.2637,14.3245,14.4156,14.4519,14.3979,14.2309,14.5113,14.5416,14.2912,14.5416,14.6033,14.4759,14.3493,14.4188,14.6622,14.5327,14.4399,14.3704,14.3742,14.4864,14.6686,14.6306,14.6306,14.6762,14.7147,14.7071,14.6913,14.8583,14.9266,14.9493,15.1163,15.1998,15.2681,15.435,15.6095,15.7537,15.7993,15.8979,16.0269,16.1407,16.1711,16.209,16.376,16.2394,16.0649,16.1104,15.8979,15.6475,15.5185,15.4957,15.4957,15.4957,15.4957,15.4957,15.4957,15.4957,15.4502,15.3212,15.2681,15.1922,15.0632,15.0176,14.9873,14.9873,14.9873,14.9342,14.8128,14.7602,14.6989,14.6155,14.4637,14.3726,14.3726,14.2512,14.145,14.0615,14.0615,14.0387,13.9932,13.9932,13.9932,13.9937,13.9847,14.0532,9.4145,10.7192,11.9971,12.9839,13.4246,13.6444,13.7263,13.8716,13.9861,13.9844,13.9855,13.986,13.9841,13.9838,13.9851,13.9789,13.9789,13.9562,13.8784,13.9326,13.9483,13.8799,13.9331,13.9786,13.9786,14.0473,14.1308,14.2218,14.2976,14.3812,14.4723,14.4788,14.4703,14.4554,14.6373,14.6753,14.5541,14.7439,14.7512,14.5918,14.3431,14.2902,14.396,14.303,14.3305,14.4637,14.4637,14.4864,14.532,14.6534,14.6306,14.532,14.6762,14.6913,14.6458,14.8128,14.8735,14.8962,15.0708,15.177,15.2681,15.435,15.6095,15.7461,15.7461,15.8144,15.8903,15.9055,15.9055,15.9283,16.0269,15.9131,15.7765,15.7765,15.6323,15.4502,15.2984,15.2681,15.2681,15.2681,15.2681,15.2681,15.2681,15.2681,15.2377,15.1391,15.1315,15.0935,15.0025,14.9873,14.9873,14.9873,14.9873,14.9493,14.8507,14.7748,14.7293,14.7065,14.4789,14.3499,14.3499,14.1905,14.0691,14.0008,13.9932,13.9932,13.9932,13.9932,13.9932,14.0008,14.0656,14.1487,9.051,10.3112,11.8207,12.9255,13.334,13.4999,13.6745,13.8414,13.9704,13.9932,13.9932,13.9932,13.9932,13.9932,13.9957,13.9775,13.9897,13.9446,13.7812,13.865,13.902,13.7881,13.8792,13.9552,13.9779,14.1184,14.2158,14.2281,14.3652,14.4639,14.4788,14.5028,14.5627,14.6692,14.7374,14.8133,14.9046,14.9501,14.8894,14.73,14.4338,14.2219,14.0766,14.0539,14.2796,14.6989,14.6989,14.5547,14.3423,14.752,14.6837,14.3423,14.623,14.6458,14.5396,14.7065,14.7672,14.79,14.9342,15.0859,15.2301,15.3743,15.5261,15.6475,15.6475,15.6475,15.6171,15.4957,15.4578,15.4654,15.4881,15.473,15.4578,15.4578,15.4426,15.3439,15.048,14.9873,14.9873,14.9873,14.9873,14.9873,14.9873,14.9873,14.9873,14.9873,14.9873,14.9873,14.9873,14.9873,14.9873,14.9873,14.9873,14.9797,14.9569,14.8203,14.79,14.9114,14.6458,14.4713,14.4485,14.3195,14.1753,14.0311,14.0311,14.016,13.9932,13.9932,13.9932,14.0008,14.1677,14.2588,10.6419,11.4422,12.073,12.8394,13.1551,13.3254,13.4924,13.6669,13.8262,13.9628,13.9932,13.9932,13.9932,13.9932,13.9937,13.9952,13.9942,13.9866,13.9514,13.8519,13.8282,13.9421,13.851,13.8358,13.98,14.0246,14.1,14.2376,14.2684,14.3443,14.4733,14.6113,14.5818,14.3385,14.7332,14.8243,14.5662,14.8395,14.9002,14.7336,14.6725,14.6341,14.5948,14.4582,14.4425,14.5244,14.5244,14.5699,14.6458,14.5927,14.6003,14.6534,14.7147,14.7147,14.7141,14.881,14.9418,14.9493,14.9797,15.0101,15.0328,15.0632,15.0935,15.1163,15.1163,15.1163,15.1391,15.2529,15.2832,15.3136,15.4578,15.3895,15.2832,15.2832,15.177,15.0556,15.0025,14.9873,14.9873,14.9873,14.9873,14.9873,14.9873,14.9873,14.9873,14.9873,14.9873,14.9873,14.9873,14.9873,14.9873,14.9873,14.9873,14.9342,14.79,14.7526,14.6837,14.5775,14.5168,14.4257,14.2967,14.2588,14.236,14.2057,14.2057,14.1374,13.9932,13.9932,13.9932,14.0008,14.1677,14.3195,10.2301,11.1362,11.9506,12.3665,12.8572,13.2571,13.3406,13.5606,13.7655,13.849,13.8642,13.887,13.978,13.9932,13.9932,13.9932,13.9932,13.9325,13.7579,13.7428,13.7048,13.6138,13.6062,13.6745,13.849,13.8642,13.9325,14.107,14.1146,14.2208,14.4713,14.4789,14.532,14.6306,14.7748,14.8203,14.7445,14.9038,14.9493,14.8659,14.7748,14.7374,14.7374,14.7445,14.7445,14.7445,14.7445,14.7369,14.7374,14.7445,14.7369,14.745,14.8279,14.8659,14.8735,14.9569,14.9873,14.9873,14.9873,14.9873,14.9873,14.9873,14.9873,14.9873,14.9873,14.9873,15.0025,15.0859,15.1087,15.1239,15.2074,15.1694,15.1087,15.1087,15.048,14.9873,14.9873,14.9873,14.9873,14.9873,14.9873,14.9873,14.9873,14.9873,14.9873,14.9873,14.9873,14.9873,14.9873,14.9873,14.9873,14.9873,14.9873,14.9569,14.8735,14.8659,14.8279,14.752,14.661,14.5775,14.5016,14.5016,14.4637,14.3726,14.3726,14.2891,14.1298,14.1298,14.0843,14.0008,14.2512,14.4106,9.865,10.8364,11.8608,12.134,12.6197,13.0598,13.204,13.4468,13.6365,13.6365,13.6062,13.6517,13.8945,13.8794,13.8718,13.978,13.9932,13.9021,13.6365,13.6821,13.6593,13.4316,13.4848,13.6138,13.7807,13.8338,13.9097,14.0387,14.0843,14.2133,14.4713,14.403,14.5168,14.8659,14.8203,14.8355,14.9342,14.9721,14.9873,14.9873,14.8507,14.7672,14.7374,14.9114,14.9873,14.9873,14.9873,14.9114,14.7976,14.9342,14.9114,14.8052,14.9342,14.9873,14.9873,14.9873,14.9873,14.9873,14.9873,14.9873,14.9873,14.9873,14.9873,14.9873,14.9873,14.9873,14.9873,14.9873,14.9873,14.9873,14.9873,14.9873,14.9873,14.9873,14.9873,14.9873,14.9873,14.9873,14.9873,14.9873,14.9873,14.9873,14.9873,14.9873,14.9873,14.9873,14.9873,14.9873,14.9873,14.9873,14.9873,14.9873,14.9873,14.9873,14.9873,14.9873,14.9873,14.9873,14.8659,14.7748,14.7374,14.7672,14.7065,14.5396,14.5016,14.4181,14.2967,14.2664,14.1981,14.107,14.403,14.5396,11.102,11.6327,12.1188,12.7411,12.6121,12.4983,13.0978,13.2647,13.2875,13.2875,13.1585,13.204,13.6821,13.5151,13.4544,13.9173,13.9932,13.9856,13.9553,13.8338,13.7883,13.9097,13.8035,13.7883,13.9553,14.1146,14.2133,14.2284,14.3574,14.4485,14.4789,14.6155,14.6382,14.532,14.8128,14.8962,14.7602,14.9114,14.9873,14.9873,14.9721,14.881,14.7374,14.9114,14.9873,14.9873,14.9873,14.9797,14.9645,14.9797,14.9797,14.9645,14.9797,14.9873,14.9873,14.9873,14.9873,14.9873,14.9873,14.9873,14.9873,14.9873,14.9873,14.9873,14.9873,14.9873,14.9873,14.9873,14.9873,14.9873,14.9873,14.9873,14.9873,14.9873,14.9873,14.9873,14.9873,14.9873,14.9873,14.9873,14.9873,14.9873,14.9873,14.9873,14.9873,14.9873,14.9873,14.9873,14.9873,14.9873,14.9873,14.9873,14.9873,14.9873,14.9873,14.9873,14.9873,14.9873,14.9721,14.8962,14.7374,14.881,14.881,14.7147,14.5623,14.4713,14.4637,14.3195,14.3119,14.4409,14.623,14.7147,9.5919,10.2217,10.8743,11.2386,11.7925,12.3389,12.7107,12.7942,12.8777,13.1736,13.1812,13.1964,13.4013,13.4999,13.5758,13.6745,13.8642,13.9628,13.8566,13.7883,13.7276,13.6972,13.6289,13.6593,13.8262,13.9021,13.9856,14.0918,14.2512,14.3802,14.4789,14.6458,14.752,14.7824,14.919,14.9569,14.8886,14.9569,14.9873,14.9873,14.9873,14.9493,14.8886,14.9569,14.9873,14.9873,14.9873,14.9873,14.9873,14.9873,14.9873,14.9873,14.9873,14.9873,14.9873,14.9873,14.9873,14.9873,14.9873,14.9873,14.9873,14.9873,14.9873,14.9873,14.9873,14.9873,14.9873,14.9873,14.9873,14.9873,14.9873,14.9873,14.9873,14.9873,14.9873,14.9873,14.9873,14.9873,14.9873,14.9873,14.9873,14.9873,14.9873,14.9873,14.9873,14.9873,14.9873,14.9873,14.9873,14.9873,14.9873,14.9873,14.9873,14.9873,14.9873,14.9873,14.9873,14.9873,14.9873,14.9569,14.8886,14.9493,14.9569,14.8886,14.8203,14.7369,14.6306,14.5699,14.5168,14.4864,14.6534,14.7374,8.7344,9.3035,9.9941,10.3128,11.102,11.8988,12.263,12.3085,12.4451,13.037,13.0067,12.9308,13.1281,13.2799,13.4013,13.4772,13.7731,13.9553,13.8338,13.8187,13.7731,13.6517,13.6365,13.6897,13.8035,13.8642,13.9401,14.0615,14.2208,14.3878,14.5472,14.6686,14.8128,14.9797,14.9873,14.9873,14.9873,14.9873,14.9873,14.9873,14.9873,14.9873,14.9873,14.9873,14.9873,14.9873,14.9873,14.9873,14.9873,14.9873,14.9873,14.9873,14.9873,14.9873,14.9873,14.9873,14.9873,14.9873,14.9873,14.9873,14.9873,14.9873,14.9873,14.9873,14.9873,14.9873,14.9873,14.9873,14.9873,14.9873,14.9873,14.9873,14.9873,14.9873,14.9873,14.9873,14.9873,14.9873,14.9873,14.9873,14.9873,14.9873,14.9873,14.9873,14.9873,14.9873,14.9873,14.9873,14.9873,14.9873,14.9873,14.9873,14.9873,14.9873,14.9873,14.9873,14.9873,14.9873,14.9873,14.9873,14.9873,14.9873,14.9873,14.9873,14.9418,14.881,14.8052,14.7065,14.623,14.5547,14.6306,14.661,9.288,9.4853,9.9026,10.5784,10.7533,10.9806,11.8072,11.8684,11.9822,12.817,12.4603,12.2099,12.8625,12.7264,12.7264,13.3861,13.7731,13.9932,13.9932,13.9932,13.9932,13.9932,13.9932,13.9932,13.9932,14.145,14.2436,14.2436,14.3878,14.5547,14.7222,14.7374,14.8128,14.9797,14.9873,14.9873,14.9873,14.9873,14.9873,14.9873,14.9873,14.9873,14.9873,14.9873,14.9873,14.9873,14.9873,14.9873,14.9873,14.9873,14.9873,14.9873,14.9873,14.9873,14.9873,14.9873,14.9873,14.9873,14.9873,14.9873,14.9873,14.9873,14.9873,14.9873,14.9873,14.9873,14.9873,14.9873,14.9873,14.9873,14.9873,14.9873,14.9873,14.9873,14.9873,14.9873,14.9873,14.9873,14.9873,14.9873,14.9873,14.9873,14.9873,14.9873,14.9873,14.9873,14.9873,14.9873,14.9873,14.9873,14.9873,14.9873,14.9873,14.9873,14.9873,14.9873,14.9873,14.9873,14.9873,14.9873,14.9873,14.9873,14.9873,14.9873,14.8203,14.8203,14.9797,14.6458,14.5699,14.7298,14.5623,14.4864,8.5447,8.9768,9.508,9.9485,10.4038,10.9047,11.5118,11.876,12.1644,12.4224,12.4072,12.3693,12.4603,12.7639,13.075,13.2799,13.5986,13.8642,13.978,13.9932,13.9932,13.9932,13.9932,13.9932,13.9932,14.0463,14.0767,14.0767,14.2284,14.3423,14.3954,14.5016,14.6382,14.8052,14.8128,14.8735,14.9873,14.9873,14.9873,14.9873,14.9873,14.9873,14.9873,14.9873,14.9873,14.9873,14.9873,14.9873,14.9873,14.9873,14.9873,14.9873,14.9873,14.9873,14.9873,14.9873,14.9873,14.9873,14.9873,14.9873,14.9873,14.9873,14.9873,14.9873,14.9873,14.9873,14.9873,14.9873,14.9873,14.9873,14.9873,14.9873,14.9873,14.9873,14.9873,14.9873,14.9873,14.9873,14.9873,14.9873,14.9873,14.9873,14.9873,14.9873,14.9873,14.9873,14.9873,14.9873,14.9873,14.9873,14.9873,14.9873,14.9873,14.9873,14.9873,14.9873,14.9873,14.9873,14.9873,14.9873,14.9873,14.8735,14.8128,14.8128,14.6458,14.5851,14.6382,14.532,14.5092,14.5623,14.5092,14.4789,8.4308,8.8861,9.3487,9.7357,10.1534,10.5935,11.0944,11.4055,11.6408,11.8229,11.9974,12.1037,12.0657,12.6045,13.0522,13.0522,13.4392,13.7807,13.887,13.9553,13.9932,13.9932,13.9932,13.9932,13.9932,13.9932,13.9932,13.9932,14.0918,14.1829,14.2436,14.3423,14.4713,14.6306,14.6382,14.7217,14.8886,14.8886,14.8886,14.8886,14.8886,14.9266,14.9873,14.9873,14.9873,14.9873,14.9873,14.9873,14.9873,14.9873,14.9873,14.9873,14.9873,14.9873,14.9873,14.9873,14.9873,14.9873,14.9873,14.9873,14.9873,14.9873,14.9873,14.9873,14.9873,14.9873,14.9873,14.9873,14.9873,14.9873,14.9873,14.9873,14.9873,14.9873,14.9873,14.9873,14.9873,14.9873,14.9873,14.9873,14.9873,14.9873,14.9873,14.9873,14.9873,14.9873,14.9873,14.9873,14.9873,14.9873,14.9873,14.9873,14.9873,14.9873,14.9873,14.9873,14.9873,14.9873,14.8659,14.7976,14.7976,14.6989,14.6382,14.6382,14.5396,14.4789,14.4789,14.4181,14.3954,14.3954,14.3271,14.2967,8.7495,9.091,9.3638,9.8271,10.0016,10.1838,10.6467,10.6163,10.6163,11.0413,11.2841,11.4662,11.6256,12.2175,12.7031,12.7714,13.2951,13.7048,13.7579,13.8945,14.0008,14.016,14.016,14.0084,14.0008,13.9932,13.9932,13.9932,13.9932,14.0615,14.2208,14.2284,14.3043,14.4637,14.4637,14.5472,14.7147,14.7147,14.7147,14.7147,14.7147,14.7976,14.9493,14.9645,14.9721,14.9721,14.9797,14.9873,14.9873,14.9873,14.9873,14.9873,14.9873,14.9873,14.9873,14.9873,14.9873,14.9873,14.9873,14.9873,14.9873,14.9873,14.9873,14.9873,14.9873,14.9873,14.9873,14.9873,14.9873,14.9873,14.9873,14.9873,14.9873,14.9873,14.9873,14.9873,14.9873,14.9873,14.9873,14.9873,14.9873,14.9873,14.9873,14.9873,14.9873,14.9873,14.9873,14.9873,14.9873,14.9797,14.9721,14.9873,14.9645,14.9569,14.9645,14.9569,14.9493,14.9493,14.6534,14.4789,14.4789,14.4713,14.4637,14.4637,14.4561,14.4485,14.4485,14.3043,14.236,14.2436,14.0767,14.0008,8.1504,8.7268,9.2804,9.3942,10.1003,10.7605,10.7529,10.6163,10.419,10.1454,10.4342,10.7453,10.7833,11.4359,12.2251,12.9991,13.1433,13.3406,13.8642,13.9704,14.0463,14.1753,14.1905,14.1374,14.0084,13.9932,13.9932,13.9932,13.9932,14.016,14.0539,14.0539,14.1298,14.2967,14.3043,14.3802,14.5396,14.5396,14.5396,14.5396,14.5396,14.5623,14.6003,14.7369,14.79,14.7976,14.9342,14.9873,14.9873,14.9873,14.9873,14.9873,14.9873,14.9873,14.9873,14.9873,14.9873,14.9873,14.9873,14.9873,14.9873,14.9873,14.9873,14.9873,14.9873,14.9873,14.9873,14.9873,14.9873,14.9873,14.9873,14.9873,14.9873,14.9873,14.9873,14.9873,14.9873,14.9873,14.9873,14.9873,14.9873,14.9873,14.9873,14.9873,14.9873,14.9873,14.9873,14.9873,14.9873,14.8735,14.8431,14.9721,14.752,14.6534,14.7824,14.6762,14.6003,14.6003,14.5244,14.4789,14.4789,14.365,14.3043,14.3043,14.1753,14.107,14.107,14.0767,14.1222,14.2436,14.0767,14.0691,8.0896,8.7799,9.2656,8.8858,9.4401,10.0168,9.7664,9.6981,9.6146,9.3411,9.5615,9.9485,10.4114,10.7377,11.3145,12.4755,12.7866,13.0295,13.4696,13.6669,13.8566,14.0994,14.0615,14.0387,14.107,14.0387,13.9932,13.9932,13.9932,13.9932,13.9932,13.9932,14.0387,14.1298,14.1298,14.2133,14.3726,14.2967,14.2967,14.3726,14.3726,14.4106,14.4864,14.5775,14.6155,14.623,14.7141,14.752,14.7596,14.8355,14.8735,14.881,14.9569,14.9873,14.9873,14.9873,14.9873,14.9873,14.9873,14.9873,14.9873,14.9873,14.9873,14.9873,14.9873,14.9873,14.9873,14.9873,14.9873,14.9873,14.9873,14.9873,14.9873,14.9873,14.9873,14.9873,14.9873,14.9873,14.9873,14.9873,14.9266,14.8735,14.8735,14.8052,14.752,14.752,14.752,14.752,14.752,14.6762,14.6534,14.7445,14.5927,14.5168,14.6079,14.532,14.4789,14.4789,14.3423,14.2967,14.3726,14.365,14.3574,14.3574,14.1981,14.1146,14.1146,14.1146,14.1146,14.1298,14.1146,14.1222,8.1804,8.8861,9.2504,8.5674,8.742,8.9924,8.6812,8.6585,8.7116,8.7116,8.8406,9.2276,10.1079,10.1382,10.4038,11.5421,12.1947,12.6576,12.946,13.2799,13.6062,13.9173,13.8338,13.849,14.107,14.0235,13.9553,13.9553,13.978,13.9932,13.9932,13.9932,13.9932,13.9932,13.9932,14.0615,14.2057,14.0691,14.0691,14.2133,14.2133,14.2816,14.4106,14.4333,14.4485,14.4485,14.4713,14.4789,14.494,14.6382,14.6989,14.7065,14.8507,14.9114,14.9114,14.9114,14.9266,14.9493,14.9493,14.9645,14.9873,14.9873,14.9873,14.9873,14.9873,14.9873,14.9721,14.9266,14.9114,14.9114,14.9114,14.9114,14.9114,14.9114,14.9114,14.9114,14.9114,14.9114,14.9114,14.9114,14.7976,14.6989,14.6989,14.5775,14.4789,14.4789,14.4789,14.4789,14.4789,14.4637,14.4561,14.4789,14.4333,14.4181,14.4409,14.4181,14.4106,14.4106,14.145,14.0615,14.2057,14.3347,14.4106,14.4106,14.274,14.2133,14.2133,14.2133,14.1526,14.0387,14.1526,14.145,7.7782,8.4536,9.0758,9.0983,9.258,9.3642,9.1821,8.8254,8.5371,8.5371,8.6661,8.8785,9.1745,9.7664,10.2752,10.4797,11.1703,11.9822,12.8625,13.2799,13.5606,13.7579,13.7579,13.7048,13.6138,13.7124,13.7807,13.7807,13.9173,13.9932,13.9932,13.9932,13.9932,13.9932,13.9932,14.0084,14.0311,14.0084,14.0084,14.0311,14.0311,14.0463,14.0767,14.2208,14.2816,14.2891,14.4257,14.4789,14.4864,14.5092,14.5168,14.5244,14.5472,14.5623,14.5623,14.5623,14.6458,14.7748,14.7748,14.8659,14.9873,14.9873,14.9873,14.9873,14.9873,14.9873,14.9266,14.6382,14.5623,14.5623,14.5623,14.5623,14.5623,14.5623,14.5623,14.5623,14.5623,14.5623,14.5623,14.5623,14.5396,14.5168,14.5168,14.5016,14.4789,14.4789,14.4789,14.4789,14.4789,14.365,14.3347,14.4713,14.236,14.1298,14.274,14.1526,14.0691,14.0691,14.0235,14.0084,14.0311,14.0615,14.0691,14.0691,14.0463,14.0311,14.0311,14.0311,14.0918,14.2057,14.0918,14.0994,7.8004,8.3415,8.8346,8.8201,8.9471,9.0344,8.8675,8.6571,8.4918,8.4918,8.4839,8.6129,9.0531,9.3718,9.7819,10.4118,10.8364,11.4055,12.3237,12.817,13.2192,13.5682,13.5227,13.5151,13.6138,13.6138,13.6441,13.7352,13.8187,13.9021,13.9932,13.9932,13.9932,13.9932,13.9932,13.9932,13.9932,13.9932,13.9932,13.9932,13.9932,13.9932,14.0008,14.0767,14.1146,14.1146,14.1905,14.2208,14.2284,14.3195,14.3574,14.365,14.4485,14.4789,14.4789,14.4789,14.532,14.6003,14.6003,14.6458,14.7141,14.7141,14.7141,14.7141,14.7141,14.7141,14.6837,14.5244,14.4789,14.4789,14.4789,14.4789,14.4789,14.4789,14.4789,14.4789,14.4789,14.4789,14.4789,14.4789,14.4106,14.3574,14.3574,14.2816,14.2208,14.2208,14.2208,14.2208,14.2208,14.1526,14.1374,14.2133,14.0843,14.0235,14.107,14.0387,13.9932,13.9932,13.9932,14.0283,14.0955,14.103,14.1357,14.2078,14.1357,14.103,14.103,14.1187,14.1222,14.1146,14.1222,14.1111,8.2465,0.0,9.0613,8.956,8.9745,8.9747,0.0,8.6533,8.5569,8.5846,8.4334,8.4718,9.0709,9.1111,9.3783,10.3495,10.578,10.9199,11.7617,12.2478,12.6946,13.1855,13.1721,13.2257,13.4738,13.4604,13.4848,13.6138,13.6972,13.7959,13.9325,13.9704,13.9932,13.9932,13.9553,13.9553,13.9932,13.9932,13.9932,13.9932,13.9932,13.9932,13.9932,13.9932,13.9932,13.9932,13.9932,13.9932,14.0084,14.1374,14.1905,14.1981,14.3195,14.365,14.365,14.365,14.3954,14.4257,14.4257,14.4485,14.4789,14.4789,14.4789,14.4789,14.4789,14.4257,14.365,14.365,14.365,14.365,14.365,14.365,14.365,14.365,14.365,14.365,14.365,14.365,14.365,14.365,14.274,14.1905,14.1905,14.0843,13.9932,13.9932,13.9932,13.9932,13.9932,13.9932,13.9932,13.9932,13.9932,13.9932,13.9932,13.9801,13.9757,13.9757,13.9757,14.0153,14.1187,14.1187,14.1691,14.2681,14.1691,14.1187,14.1187,14.1509,14.0971,13.9757,14.1047,14.0817,0.0,9.9006,10.2816,10.3072,10.0854,9.822,9.6667,9.1453,0.0,8.8667,8.6501,8.5508,8.8988,9.0998,9.35,9.7449,10.075,10.5708,11.4055,11.6939,11.9863,12.4581,12.6735,12.7828,12.7688,13.061,13.2647,13.2723,13.5606,13.7504,13.7579,13.9097,13.9932,13.9932,13.8414,13.8338,13.9932,13.9932,13.9932,13.9932,13.9932,13.9932,13.9932,13.9932,13.9932,13.9932,13.9932,13.9932,13.9932,14.0084,14.016,14.016,14.0235,14.0311,14.0311,14.0311,14.1298,14.2664,14.2664,14.3574,14.4789,14.4789,14.4789,14.4789,14.4789,14.2664,14.0311,14.0311,14.0311,14.0311,14.0311,14.0311,14.0311,14.0311,14.0311,14.0311,14.0311,14.0311,14.0311,14.0311,14.0235,14.016,14.016,14.0008,13.9932,13.9932,13.9932,13.9932,13.9932,13.9932,13.9932,13.9932,13.9932,13.9932,13.9932,13.9405,13.9101,13.9101,13.9101,13.9086,13.9222,13.9222,13.9206,13.9326,13.9206,13.9222,13.9222,13.9237,13.9177,13.9101,13.9177,13.9162,9.8886,10.2948,10.502,10.4038,10.2257,9.9987,9.7404,9.3324,8.9867,8.9314,8.7426,8.6822,9.0037,9.0518,9.2862,10.0262,10.1777,10.4858,11.3262,11.6735,11.9505,12.229,12.598,12.8349,12.8176,12.9396,13.0653,13.1724,13.3135,13.4494,13.5555,13.6401,13.6717,13.6549,13.5934,13.5934,13.6549,13.6711,13.7242,13.8057,13.8304,13.8945,13.9932,13.9932,13.9932,13.9932,13.9932,13.9932,0.0,13.9932,13.9932,13.9932,13.9932,13.9932,13.9932,13.9932,14.0387,14.0918,14.0918,14.1298,14.1753,14.1753,14.1753,14.1753,14.1753,14.0643,13.9359,13.9359,13.947,13.9565,13.9565,13.9794,13.9915,13.9666,13.9565,13.9538,13.9394,13.9359,13.9359,13.9359,13.9359,13.9359,13.9359,13.9359,13.9359,13.9359,13.9359,13.9359,13.9359,13.9359,13.9359,13.9359,13.9359,13.9359,13.9359,13.9099,13.8948,13.8948,13.8948,13.885,13.8616,13.8596,13.8478,13.8276,13.8254,13.8408,13.8596,13.8596,13.8727,13.8948,13.8948,13.8833,10.5131,10.798,10.9475,10.8385,10.6585,10.3991,9.9795,9.5449,9.1707,8.9382,8.72,8.6824,9.0607,9.0966,9.3502,10.1859,10.3244,10.6036,11.3815,11.7364,11.9918,12.2033,12.5191,12.7423,12.8059,12.8603,12.9358,13.0505,13.1365,13.2307,13.3454,13.4196,13.4281,13.353,13.353,13.3833,13.4287,13.4508,13.5029,13.5952,13.6175,13.7215,13.8882,13.8882,13.911,13.964,13.964,13.964,13.964,13.964,13.964,13.964,13.964,13.964,13.964,13.964,13.964,13.964,13.964,13.964,13.964,13.964,13.964,13.964,13.964,13.9346,13.8948,13.8948,13.9113,13.9107,13.8577,13.8626,13.8628,13.7868,13.7681,13.7632,13.7424,13.7378,13.7378,13.7378,13.7831,13.8193,13.8193,13.8646,13.8948,13.8948,13.8948,13.8948,13.8948,13.8948,13.8948,13.8948,13.8948,13.8866,13.8616,13.8596,13.8596,13.8596,13.8596,13.8458,13.8231,13.8209,13.8119,13.7815,13.7815,13.7922,13.8209,13.8209,13.8386,13.8596,13.8596,13.8513,11.2102,11.5382,11.7914,11.829,11.5818,11.1614,10.5053,9.8441,9.2652,8.8958,8.5727,8.5113,9.009,9.264,9.5697,10.0666,10.436,10.9006,11.5663,11.7989,12.0254,12.3651,12.3816,12.4423,12.6353,12.7984,12.889,12.889,13.0415,13.1336,13.1336,13.2922,13.3073,13.1412,13.1336,13.2167,13.3843,13.3919,13.3919,13.3919,13.3919,13.4825,13.6472,13.6472,13.7378,13.8948,13.8948,13.8948,13.8948,13.8948,13.8948,13.8948,13.8948,13.8948,13.8948,13.8948,13.8948,13.8948,13.8948,13.8948,13.8948,13.8948,13.8948,13.8948,13.8948,13.8948,13.8948,13.8948,13.8948,13.8571,13.6834,13.6472,13.6019,13.4282,13.3919,13.3904,13.3904,13.3904,13.3979,13.3979,13.5339,13.6456,13.6456,13.7891,13.8948,13.8948,13.8948,13.8948,13.8948,13.8948,13.8948,13.8948,13.8948,13.8635,13.792,13.7815,13.7815,13.7815,13.7815,13.7815,13.7815,13.7815,13.7815,13.7815,13.7815,13.774,13.774,13.774,13.774,13.774,13.774,13.774,11.4662,11.6945,11.7692,11.7912,11.5493,11.1033,10.3402,9.8333,9.3511,8.7692,8.5736,8.6202,8.9923,9.1197,9.3789,9.9941,10.3854,10.8107,11.3528,11.771,12.1011,12.3111,12.4332,12.5681,12.7463,12.8085,12.831,12.831,12.8974,12.9371,12.9371,12.9626,12.968,12.9352,12.9371,12.9597,13.0124,13.1438,13.2042,13.1893,13.4456,13.6003,13.6472,13.768,13.8495,13.8948,13.8948,13.8948,13.8948,13.8948,13.8948,13.8948,13.8948,13.8948,13.8948,13.8948,13.8948,13.8948,13.8948,13.8948,13.8948,13.8948,13.8948,13.8715,13.699,13.5663,13.4763,13.4763,13.4763,13.4702,13.4414,13.4557,13.4537,13.3813,13.3682,13.3586,13.3329,13.4162,13.4988,13.4988,13.6338,13.7389,13.7389,13.7839,13.8139,13.8139,13.8139,13.8139,13.8139,13.8139,13.8139,13.8139,13.8139,13.8095,13.7842,13.7815,13.7815,13.7815,13.7815,13.7815,13.7815,13.6768,13.617,13.617,13.4974,13.4375,13.4375,13.4375,13.3777,13.2581,13.2581,13.2057,11.6469,11.7558,11.7537,11.7791,11.6351,11.2424,10.2989,9.9203,9.5466,8.7334,8.564,8.681,9.0686,9.1615,9.4139,10.1465,10.5014,10.9101,11.5382,11.9345,12.2486,12.4804,12.5926,12.6973,12.8019,12.8094,12.8094,12.8094,12.8229,12.831,12.831,12.8188,12.8164,12.831,12.831,12.831,12.831,12.9481,13.0007,12.9854,13.2058,13.3455,13.4077,13.5131,13.5939,13.6616,13.7294,13.7595,13.767,13.8272,13.8498,13.8498,13.8498,13.8498,13.8498,13.8498,13.8498,13.8498,13.8498,13.8498,13.8498,13.8498,13.767,13.629,13.4877,13.3777,13.2929,13.2929,13.2929,13.3031,13.3269,13.2899,13.2363,13.1549,13.1408,13.1469,13.1908,13.273,13.3702,13.4375,13.5796,13.6918,13.6918,13.7441,13.7815,13.7815,13.7815,13.7815,13.7815,13.7815,13.7815,13.7815,13.7815,13.7815,13.7815,13.7217,13.6918,13.6918,13.6245,13.5871,13.5871,13.4974,13.445,13.445,13.3478,13.2929,13.2929,13.2929,13.2431,13.1459,13.1459,13.0936,11.733,11.7451,11.7505,11.7766,11.7817,11.4711,10.3127,10.0464,9.7568,8.7161,8.517,8.6729,9.1408,9.3104,9.6247,10.3851,10.7255,11.1643,11.9368,12.2112,12.443,12.7496,12.8019,12.8019,12.787,12.8019,12.8019,12.787,12.8019,12.7945,12.7646,12.7795,12.7945,12.8094,12.8094,12.8094,12.8094,12.8244,12.8244,12.8094,12.8393,12.9216,13.0412,13.0562,13.1534,13.3004,13.46,13.5273,13.5348,13.6768,13.7367,13.7367,13.7367,13.7367,13.7367,13.7367,13.7367,13.7367,13.7367,13.7367,13.7367,13.7367,13.5273,13.273,13.273,13.2656,13.2506,13.2506,13.2506,13.2506,13.2506,13.1384,12.9889,12.8393,12.8244,12.8692,13.0113,13.0637,13.131,13.288,13.4525,13.5721,13.5721,13.6918,13.7815,13.7815,13.7815,13.7815,13.7815,13.7815,13.7591,13.6993,13.6918,13.6918,13.6918,13.5647,13.4824,13.4824,13.3403,13.2506,13.2506,13.2506,13.2506,13.2506,13.2506,13.2506,13.2506,13.2506,13.2431,13.2256,13.2256,13.2207,11.6708,11.7451,11.7478,11.7563,11.7692,11.4389,10.1506,9.8611,9.5481,8.406,8.2739,8.4373,8.6655,9.2603,9.8131,10.1263,10.8674,11.5158,11.8298,12.2336,12.5327,12.6,12.7272,12.7571,12.6225,12.7346,12.7571,12.6225,12.7346,12.6898,12.4281,12.5402,12.6748,12.8019,12.8094,12.8094,12.8094,12.9291,12.9291,12.8094,13.0711,13.1384,13.0487,13.1833,13.2656,13.2955,13.3329,13.3478,13.3553,13.3852,13.4002,13.4002,13.4002,13.4002,13.4002,13.4002,13.4002,13.4002,13.4002,13.4002,13.4002,13.4002,13.2656,13.0936,13.0936,13.0113,12.9141,12.9141,12.9141,12.9141,12.9141,12.8842,12.8468,12.8169,12.8991,13.0038,13.0337,13.2506,13.4525,13.4899,13.6245,13.7292,13.7292,13.7591,13.7815,13.7815,13.7815,13.7815,13.7815,13.7815,13.5871,13.0711,13.0188,13.0188,13.0188,12.9889,12.9665,12.9665,12.9365,12.9141,12.9141,12.9141,12.9141,12.9141,12.9141,12.9141,12.9141,12.9141,12.8468,12.7122,12.7122,12.6449,11.6931,11.7451,11.7404,11.7615,11.7717,11.5158,10.5193,10.3543,10.0783,8.9085,8.7964,8.8911,8.8012,9.3496,9.9249,10.2477,10.9495,11.5681,11.8897,12.1589,12.3533,12.4281,12.5851,12.6524,12.5627,12.6374,12.6524,12.5627,12.5627,12.4954,12.3135,12.3907,12.4729,12.5627,12.6449,12.6898,12.6898,12.8468,12.8917,12.8094,12.9814,13.0188,12.9365,13.0188,13.0637,13.0637,13.1459,13.1758,13.1833,13.2656,13.2929,13.2929,13.2929,13.2929,13.2929,13.2929,13.2929,13.2929,13.2929,13.2929,13.273,13.116,13.0038,12.9141,12.8319,12.8094,12.7795,12.615,12.6225,12.6673,12.5851,12.5701,12.5851,12.6673,12.7496,12.8319,12.9141,13.131,13.3329,13.4151,13.4301,13.4525,13.5348,13.4151,13.3403,13.4151,13.3628,13.3179,13.3179,13.3777,13.2955,12.959,12.8543,12.8094,12.8094,12.7346,12.6898,12.6898,12.615,12.5701,12.5701,12.5701,12.6075,12.6898,12.6898,12.7272,12.8094,12.8094,12.7646,12.6748,12.6748,12.5851,11.7005,11.7451,11.7505,11.7715,11.7717,11.6127,10.9705,10.9227,10.7115,9.6185,9.4857,9.4869,9.2235,9.5953,10.0847,10.5267,11.0817,11.5883,11.9696,12.0766,12.1514,12.2561,12.4131,12.5028,12.4729,12.4954,12.5028,12.4729,12.3159,12.2187,12.2187,12.2486,12.2635,12.2635,12.4281,12.5253,12.5552,12.6973,12.7795,12.8094,12.8094,12.8094,12.8094,12.8094,12.8094,12.8169,12.944,13.0038,13.0113,13.1534,13.2132,13.2132,13.2132,13.2132,13.2132,13.2132,13.2132,13.2132,13.2132,13.2132,13.1609,12.8319,12.7197,12.6973,12.5552,12.615,12.6673,12.3832,12.4056,12.4804,12.3458,12.306,12.3359,12.4804,12.5103,12.5627,12.7272,12.8692,13.0188,13.2132,13.1609,13.131,13.273,13.0487,12.8917,13.0263,12.9291,12.8468,12.8468,12.8842,12.9141,12.9141,12.8019,12.7197,12.7197,12.5926,12.5103,12.5103,12.3832,12.306,12.306,12.3383,12.4131,12.5552,12.5552,12.6225,12.7646,12.7346,12.7197,12.7197,12.7197,12.6449,11.5445,11.7451,11.7377,11.7404,11.7585,11.5977,10.945,10.8204,10.6356,9.8972,9.6483,9.5953,9.6803,10.1067,10.5109,10.7217,11.4336,11.9256,11.8458,12.0845,12.2336,12.114,12.2411,12.286,12.1537,12.2561,12.2785,12.1462,11.9794,11.8822,11.8822,12.0243,12.1013,12.1013,12.2561,12.4131,12.5552,12.5776,12.6673,12.8094,12.8094,12.8094,12.8094,12.8094,12.8094,12.8094,12.8319,12.8393,12.8393,12.8618,12.8767,12.8767,12.8767,12.8767,12.8767,12.8767,12.8767,12.8767,12.8767,12.8767,12.8169,12.4804,12.3757,12.3682,12.3458,12.3533,12.3608,12.3135,12.3234,12.3383,12.3084,12.306,12.3084,12.3383,12.3359,12.3832,12.5552,12.6075,12.7122,13.0188,13.1758,13.273,13.2929,13.1384,13.0188,13.0412,13.0263,13.0113,13.0113,12.6524,12.4056,12.4056,12.3832,12.3757,12.3757,12.3509,12.3359,12.3359,12.3135,12.306,12.306,12.4505,12.5327,12.5552,12.5552,12.5701,12.5926,12.443,12.3757,12.3757,12.3757,12.3608,11.0962,11.4602,11.7451,11.7532,11.7663,11.6947,11.4116,11.3566,11.1996,10.6184,10.3009,10.0879,9.9687,10.2807,10.6087,10.7636,11.4211,11.8858,11.8061,11.928,11.9948,11.9345,12.0691,12.1439,12.0789,12.1289,12.1439,12.0789,11.9075,11.808,11.8149,11.885,11.9224,11.927,11.9943,12.1589,12.4131,12.6075,12.7346,12.8094,12.8094,12.7571,12.6673,12.6673,12.615,12.5253,12.5253,12.5253,12.5327,12.63,12.6673,12.6748,12.772,12.8094,12.8094,12.8094,12.7496,12.6673,12.6673,12.6075,12.5028,12.3533,12.306,12.2935,12.1962,12.2336,12.2635,12.0841,12.099,12.1738,12.1738,12.1738,12.2187,12.4056,12.4505,12.4954,12.6599,12.6973,12.7421,12.8842,12.8991,12.9141,13.0038,12.8019,12.6599,12.7571,12.6898,12.6299,12.6456,12.4586,12.3295,12.3295,12.2405,12.1856,12.1856,12.1856,12.1856,12.1856,12.1856,12.1856,12.1856,12.2553,12.3369,12.4363,12.3399,12.3428,12.4393,12.2789,12.1972,12.1972,12.1972,12.1424,10.6133,11.0539,11.458,11.5843,11.6324,11.6575,11.6599,11.6971,11.6273,11.2471,10.9391,10.6833,10.4767,10.6176,10.8063,10.9517,11.4733,11.8461,11.7989,11.8336,11.8533,11.8178,11.927,12.0116,12.0116,12.0116,11.9972,11.9853,11.8537,11.789,11.8103,11.7986,11.7962,11.8057,11.8057,11.9276,12.1766,12.4681,12.6425,12.6823,12.6823,12.615,12.4954,12.4954,12.4206,12.306,12.306,12.306,12.3135,12.443,12.4954,12.5028,12.63,12.6823,12.6823,12.6823,12.6,12.483,12.4058,12.2687,12.1371,12.1497,12.1546,12.1347,12.0369,12.0916,12.1289,11.8897,11.9121,12.0191,12.064,12.0714,12.1462,12.4281,12.4954,12.5253,12.6524,12.6823,12.6849,12.7097,12.6175,12.5802,12.7519,12.5328,12.3785,12.4848,12.3927,12.3079,12.2876,12.2818,12.2818,12.2818,12.1679,12.0943,12.0943,12.0943,12.0943,12.0943,12.0943,12.0943,12.0943,12.0943,12.1532,12.2818,12.1197,12.0935,12.2221,12.0599,11.9862,11.9862,11.9862,11.9198,10.1964,10.5267,10.6975,11.1217,11.2697,11.317,11.3362,11.4411,11.5332,11.5251,11.3763,11.2946,11.4288,11.3468,11.3095,11.4661,11.7867,11.9656,11.7991,11.9308,11.9829,11.821,11.8155,11.8298,11.8298,11.8298,11.8037,11.7457,11.7193,11.7356,11.7962,11.7841,11.7842,11.7792,11.7792,11.7916,11.821,12.0002,12.1694,12.3308,12.3308,12.3285,12.3135,12.3135,12.3135,12.306,12.306,12.306,12.306,12.3135,12.3135,12.3135,12.3285,12.3308,12.3308,12.3308,12.321,12.279,11.9946,11.7935,11.67,11.7286,11.7478,11.7659,11.8159,11.8373,11.8373,11.8224,11.8224,11.8672,12.034,12.0714,12.1163,12.2785,12.3135,12.3234,12.3285,12.3308,12.3512,12.4445,12.448,12.5029,12.6663,12.5549,12.4156,12.3647,12.3474,12.2884,12.1442,12.1221,12.1221,12.1221,12.1147,12.1074,12.1074,12.1074,12.1074,12.1074,12.1074,12.1074,12.1074,12.1074,12.1147,12.1221,11.9567,11.8756,11.883,11.725,11.6481,11.6481,11.6481,11.6408,9.6045,10.0117,10.3847,10.8642,11.0056,11.0663,11.2072,11.2819,11.342,11.3861,11.1674,11.0561,11.3413,11.2541,11.2294,11.486,11.7245,11.8586,11.7989,11.8388,11.8537,11.8037,11.801,11.7914,11.7488,11.6961,11.6675,11.663,11.6478,11.6478,11.6645,11.6496,11.6404,11.6331,11.6331,11.6804,11.8004,11.8595,11.9734,12.1274,12.1274,12.0757,11.9795,11.9795,11.9264,11.8436,11.8436,11.8494,11.873,11.9796,12.0167,12.0315,12.1382,12.1827,12.1827,12.1827,12.1057,11.9886,11.7776,11.6702,11.6292,11.6539,11.663,11.666,11.6894,11.6951,11.6951,11.6951,11.6951,11.7544,12.0138,12.0805,12.1546,12.4214,12.4777,12.4777,12.4777,12.4777,12.4863,12.5235,12.5245,12.5467,12.6058,12.5688,12.4885,12.3621,12.1791,12.0379,11.9836,11.9763,11.9763,11.9763,11.9763,11.9763,11.9763,11.9763,11.9763,11.9763,11.9763,11.9763,11.9763,11.9763,11.9763,11.9763,11.805,11.7177,11.7177,11.5649,11.4848,11.4848,11.4848,11.4848,8.9867,9.4068,9.881,10.2591,10.493,10.6874,10.8887,10.9812,11.0469,11.1408,11.022,10.9748,11.2079,11.1485,11.1634,11.4305,11.59,11.6947,11.7568,11.7792,11.7817,11.7642,11.7642,11.7362,11.6807,11.6027,11.5522,11.5663,11.5566,11.5527,11.5757,11.5663,11.5596,11.5517,11.5449,11.6069,11.7198,11.7198,11.7746,11.8808,11.8808,11.8294,11.7266,11.7266,11.6745,11.5856,11.5921,11.6091,11.6334,11.7397,11.7766,11.7913,11.9051,11.9493,11.9493,11.9493,11.8429,11.6814,11.5754,11.5423,11.56,11.5764,11.5831,11.5897,11.6197,11.626,11.626,11.626,11.626,11.685,11.9461,12.0124,12.0787,12.3514,12.4177,12.4177,12.4177,12.4177,12.411,12.3869,12.3799,12.3799,12.3799,12.3658,12.3219,12.2403,12.0418,11.8794,11.8216,11.7638,11.7349,11.7349,11.7349,11.7349,11.7349,11.7349,11.7349,11.7349,11.7349,11.7349,11.7349,11.6844,11.6555,11.6555,11.5472,11.4894,11.4894,11.4388,11.414,11.4252,11.4252,11.422,8.3873,8.7292,9.1553,9.3106,9.7359,10.168,10.3486,10.5049,10.655,10.8168,10.989,11.1024,11.1097,11.1024,11.1496,11.3313,11.394,11.4865,11.6609,11.7466,11.7593,11.6961,11.6831,11.663,11.6187,11.5354,11.4773,11.4511,11.4391,11.4625,11.5561,11.5497,11.5462,11.5561,11.5462,11.5462,11.5596,11.5596,11.5624,11.579,11.579,11.579,11.579,11.579,11.579,11.579,11.6059,11.6197,11.6197,11.6197,11.6197,11.6197,11.6197,11.6123,11.6197,11.6197,11.5105,11.3772,11.3772,11.3896,11.422,11.4813,11.5069,11.5212,11.5929,11.6197,11.6197,11.6197,11.6197,11.6491,11.807,11.8544,11.8986,12.064,12.1008,12.1008,12.1008,12.1008,12.0809,12.0035,11.9922,11.9922,11.9922,11.9369,11.9157,11.9809,11.9297,11.8216,11.6627,11.5038,11.41,11.41,11.41,11.41,11.41,11.41,11.41,11.41,11.41,11.41,11.41,11.2655,11.1861,11.1861,11.1861,11.1861,11.1861,11.3377,11.422,11.4491,11.4491,11.4536,8.7008,8.7659,8.7956,9.1969,9.4085,9.5644,9.7678,9.9364,10.1388,10.4505,10.6476,10.8021,10.9123,10.9344,10.989,11.157,11.2078,11.2374,11.2847,11.3984,11.4693,11.4511,11.5586,11.539,11.3246,11.3655,11.4108,11.4188,11.3987,11.3946,11.4108,11.3905,11.37,11.3544,11.3503,11.3586,11.3865,11.3792,11.3987,11.4188,11.4188,11.4188,11.4188,11.4188,11.4195,11.4313,11.4391,11.4507,11.4695,11.4695,11.4695,11.4695,11.4695,11.4546,11.443,11.443,11.4267,11.3978,11.3978,11.4018,11.414,11.4267,11.4346,11.4425,11.4657,11.4695,11.4695,11.4695,11.4695,11.5096,11.6622,11.7058,11.7421,11.9165,11.9528,11.9528,11.9528,11.9528,11.9449,11.928,11.9239,11.9239,11.9239,11.9105,11.9022,11.9198,11.7081,11.5255,11.4822,11.4388,11.41,11.41,11.41,11.41,11.41,11.41,11.41,11.41,11.41,11.41,11.41,11.3738,11.345,11.345,11.345,11.3602,11.3721,11.4155,11.4491,11.4652,11.4652,11.4618,8.3178,8.2061,8.1105,8.4742,8.6174,8.8174,9.4157,9.5768,9.7381,10.2186,10.4481,10.5868,10.6817,10.6897,10.7407,10.9115,10.9634,11.0112,11.091,11.1813,11.2369,11.2216,11.2867,11.2628,11.0811,11.1292,11.2044,11.2733,11.2681,11.2844,11.3435,11.3378,11.3249,11.3046,11.2958,11.2958,11.309,11.309,11.3249,11.3378,11.3378,11.3378,11.3378,11.3292,11.3264,11.3478,11.3562,11.3688,11.3813,11.3813,11.3813,11.3813,11.3813,11.3813,11.3556,11.226,11.2269,11.2927,11.2927,11.3441,11.41,11.41,11.41,11.41,11.41,11.41,11.41,11.41,11.41,11.4316,11.5255,11.5472,11.5761,11.6699,11.6916,11.6916,11.6916,11.6916,11.6916,11.6916,11.6916,11.6916,11.6916,11.6916,11.6916,11.6916,11.5327,11.41,11.41,11.41,11.41,11.41,11.41,11.41,11.41,11.41,11.41,11.41,11.41,11.41,11.41,11.3522,11.3161,11.3161,11.3161,11.3201,11.332,11.4162,11.4536,11.4695,11.4843,11.4191,7.4437,7.2994,7.2992,7.4622,7.6028,7.9784,0.0,9.1576,9.2547,9.8575,10.1354,10.2798,10.3158,10.3299,10.3982,10.6008,10.6743,10.7712,10.9527,11.022,11.0204,10.9339,10.8846,10.8567,10.8555,10.8731,10.9371,11.0677,11.0779,11.1425,11.2933,11.3148,11.322,11.322,11.3192,11.3134,11.3134,11.3134,11.3134,11.3134,11.3134,11.3134,11.3205,11.2914,11.2914,11.3205,11.3421,11.3435,11.322,11.3119,11.3047,11.3089,11.3089,11.3101,11.2836,10.9883,10.9667,11.0932,11.0932,11.1845,11.3089,11.3233,11.3305,11.3377,11.3522,11.3594,11.3594,11.3594,11.3738,11.3883,11.3883,11.3955,11.41,11.41,11.41,11.41,11.41,11.41,11.41,11.41,11.41,11.41,11.41,11.41,11.41,11.41,11.41,11.41,11.41,11.41,11.41,11.41,11.41,11.41,11.41,11.41,11.41,11.41,11.41,11.4027,11.3883,11.2511,11.1716,11.15,11.15,11.1539,11.1579,11.3221,11.4067,11.4224,11.4484,11.2992,0.0,0.0,0.0,0.0,0.0,0.0,0.0,7.738,8.0157,8.394,8.8137,9.1909,9.4398,9.5981,9.8179,10.2362,10.3123,10.3883,10.5511,10.6852,10.6236,10.2362,10.2798,10.3838,10.5359,10.6504,10.7795,10.9339,10.9209,10.923,10.9589,11.0851,11.1497,11.1497,11.2747,11.3464,11.3464,11.3464,11.3464,11.3464,11.3464,11.3464,11.3464,11.3421,11.3421,11.3464,11.3507,11.2789,11.1569,11.041,10.9995,11.0226,11.0226,11.0147,10.9739,10.7867,10.7441,10.7812,10.7812,10.7201,10.6661,10.7889,10.8322,10.8611,10.9911,11.0344,11.0344,11.0344,11.1283,11.2222,11.2222,11.3161,11.41,11.41,11.41,11.41,11.41,11.41,11.41,11.41,11.41,11.41,11.41,11.41,11.41,11.41,11.41,11.41,11.41,11.41,11.41,11.41,11.41,11.41,11.41,11.41,11.41,11.41,11.41,11.3522,11.2294,11.1933,11.1211,10.9911,10.9994,11.0146,11.0406,11.0809,11.1172,11.1423,11.1458,10.9742,0.0,0.0,0.0,0.0,0.0,0.0,0.0,0.0,0.0,0.0,0.0,8.5801,8.7449,0.0,9.3212,9.5661,9.746,9.9082,10.0668,10.1606,10.0884,9.7851,9.8829,10.0055,10.0921,10.2363,10.4274,10.6653,10.6682,10.7245,10.8584,10.9374,10.9834,10.9751,11.054,11.1012,11.1138,11.1138,11.1054,11.1041,11.1843,11.1771,11.097,11.1054,11.0707,10.9917,10.9917,10.9486,10.8769,10.8819,10.8939,10.8803,10.6658,10.5792,10.5644,10.5644,10.6187,10.695,10.695,10.695,10.7167,10.7961,10.8178,10.8322,10.9189,10.9478,10.9622,11.0417,11.1211,11.1933,11.2727,11.3522,11.41,11.41,11.41,11.3978,11.3448,11.37,11.3937,11.3448,11.3772,11.41,11.41,11.3278,11.2727,11.3278,11.3363,11.349,11.4018,11.345,11.2422,11.1191,11.04,10.9928,10.9928,10.9928,11.045,11.1677,11.1789,11.1428,11.0633,10.9916,10.916,10.8365,10.6887,10.6163,10.6343,10.5754,10.5892,10.6795,10.4489,10.2989,0.0,0.0,0.0,0.0,0.0,0.0,0.0,0.0,0.0,0.0,0.0,0.0,0.0,0.0,0.0,8.8864,9.2131,9.4975,9.656,9.6021,9.5119,9.4279,9.5396,9.6262,9.6479,9.7961,10.0091,10.2977,10.341,10.4627,10.6914,10.7457,10.7518,10.7382,10.7954,10.8151,10.7754,10.8041,10.7918,10.7495,10.8879,0.0,10.7495,10.759,10.6955,10.5737,10.5777,10.5673,10.5458,10.683,10.7157,10.6511,10.2709,10.0878,10.0628,10.2648,10.4415,10.5784,10.5936,10.6734,10.7634,10.7768,10.7918,10.8067,10.8201,10.8234,0.0,11.0067,11.0635,11.1129,11.2908,11.3401,11.3533,11.37,11.3616,11.3321,11.2388,11.2903,11.3206,11.2388,11.2903,11.349,11.349,11.1617,11.0186,11.0454,11.1015,11.1496,11.1765,11.1201,11.0019,10.8027,10.6658,10.5873,10.5873,10.5131,10.5809,10.8675,10.7906,10.6942,10.6153,10.5002,10.4244,10.3882,10.1529,10.0725,10.1633,10.0703,10.0794,10.1489,9.3978,9.2113,0.0,0.0,0.0,0.0,0.0,0.0,0.0,0.0,0.0,0.0,0.0,0.0,0.0,0.0,0.0,0.0,8.9787,9.3485,9.5073,9.168,8.9515,9.0774,9.1063,9.1713,9.3085,9.4577,9.613,9.793,9.9298,10.0474,10.1402,10.292,0.0,0.0,0.0,10.6671,10.4366,10.5727,10.5564,10.396,10.4144,10.4144,10.396,10.4001,10.3858,10.3716,10.3848,10.3069,10.1892,10.2384,10.1816,10.0337,9.8495,9.6052,9.4082,9.7888,10.0193,10.1702,10.2504,0.0,0.0,10.1644,10.2379,10.312,10.3722,10.391,10.4267,10.5685,10.6482,10.7497,11.0009,11.1028,11.1602,11.2549,11.2023,11.1316,11.1219,11.1267,11.1316,11.1219,11.1267,11.1364,11.1364,10.8939,10.6141,10.3614,10.5477,10.6254,10.3791,10.5587,10.7052,10.6749,10.6562,0.0,10.642,10.2766,10.2244,10.6557,10.2523,9.8212,9.4439,9.4114,9.3222,9.1438,9.1792,9.3932,9.7958,9.8513,9.8141,9.6535,7.8324,7.4362,0.0,0.0,0.0,0.0,0.0,0.0,0.0,0.0,0.0,0.0,0.0,0.0,0.0,0.0,0.0,0.0,8.1782,8.5895,8.6699,8.5864,8.5791,8.738,8.8073,8.8766,8.9876,9.0994,9.2225,9.3801,9.5341,9.6539,9.7041,9.8709,9.9557,9.9472,10.0744,10.0987,9.9976,10.0615,10.0519,9.9741,10.0718,10.0718,9.967,9.9797,9.9272,9.8422,9.8505,9.812,9.7623,9.8678,9.826,9.6474,0.0,0.0,0.0,0.0,9.4817,9.6244,9.6599,9.6287,9.5925,9.7096,9.7714,9.8308,9.9438,9.9739,10.0023,10.1653,10.2907,10.4237,10.6198,10.7572,10.8468,10.8959,10.8703,10.8253,10.7618,10.7941,10.8183,10.7618,10.8012,0.0,10.4517,10.2928,10.2207,10.2349,10.2723,10.3099,10.3275,10.2826,10.2013,10.0578,9.9507,9.8947,9.8947,9.7199,0.0,0.0,0.0,9.7493,9.5721,9.5016,0.0,0.0,0.0,8.2945,8.4804,7.9668,0.0,0.0,6.8676,6.7569,0.0,0.0,0.0,0.0,0.0,0.0,0.0,0.0,0.0,0.0,0.0,0.0,0.0,0.0,0.0,0.0,7.4418,7.8517,7.8357,8.0081,8.1804,8.2954,8.4367,8.5303,8.5475,8.7118,8.8655,8.983,9.1359,9.2502,9.3077,9.4182,9.4769,9.4638,9.5031,9.4996,9.434,9.4889,9.4875,9.4311,9.569,9.5662,9.4396,9.4495,9.3945,9.2849,9.2861,9.2861,9.2931,9.414,9.404,9.262,8.8801,8.7969,8.9059,8.9478,9.0483,9.1794,9.2459,9.2681,9.2852,9.3763,9.4157,9.4575,9.5339,9.5605,9.5956,9.7545,9.8588,9.9738,10.1952,10.3146,10.3938,10.4643,10.4641,10.4208,10.3482,10.3864,10.4208,10.3431,10.3168,10.2013,9.8313,9.7661,9.797,9.8914,9.8923,9.9125,10.009,9.9063,9.7531,9.5747,9.443,9.3554,9.3186,9.201,9.2441,9.5232,9.4393,9.4365,9.579,9.2815,9.0082,8.7936,7.9817,7.5153,0.0,0.0,0.0,0.0,0.0,0.0,0.0,0.0,0.0,0.0,0.0,0.0,0.0,0.0,0.0,0.0,0.0,0.0,0.0,0.0,0.0,0.0,0.0,0.0,7.2184,7.4816,7.6794,7.6865,7.9481,8.0611,7.9164,8.3079,8.5614,8.5684,8.7311,8.8541,8.9169,8.9223,8.9049,8.8564,9.0237,8.9812,8.7084,8.9075,8.9157,8.7416,8.7689,8.781,8.781,8.781,8.774,8.767,8.7869,8.7878,8.7917,8.8182,8.8298,8.8105,8.6152,8.5467,8.5672,8.7175,8.8337,8.9479,9.1864,9.2681,9.263,9.1741,9.2081,9.266,9.1768,9.1576,9.181,9.3295,9.3044,9.3344,9.7321,9.7642,9.7575,10.0117,9.9937,9.9131,9.9131,9.9131,9.9131,9.9131,9.674,9.4572,9.4453,9.4403,9.3498,9.0631,9.2611,0.0,9.0611,9.266,9.4435,9.4367,9.4248,9.3684,9.225,8.8085,8.7085,9.0563,8.6055,8.5444,9.0216,8.2304,7.7752,7.7681,7.594,7.3535,7.0511,0.0,0.0,0.0,0.0,0.0,0.0,0.0,0.0,0.0,0.0,0.0,0.0,0.0,0.0,0.0,0.0,0.0,0.0,0.0,0.0,0.0,0.0,0.0,0.0,7.0103,7.377,7.4957,7.6429,7.6921,7.5848,7.8534,8.0267,8.0267,8.3578,8.5473,8.5159,8.612,8.6512,8.6332,8.6902,8.6786,8.5777,8.6503,8.6547,8.5909,8.6065,8.6065,8.6065,8.6065,8.6065,8.604,8.6083,8.6127,8.6127,8.6213,8.5082,8.3245,8.2635,8.2374,8.2442,8.2988,8.3344,8.3734,8.4556,8.5581,8.667,8.8385,8.7831,8.6947,8.9508,8.8936,8.7837,9.0332,9.0803,9.1138,9.3558,9.4616,9.5305,9.6185,9.6122,9.5886,9.5955,9.5886,9.5886,9.5886,8.9403,8.3329,8.1213,8.424,8.5536,8.1511,8.5172,8.7629,8.5672,8.6286,8.6537,8.5513,8.5445,8.524,8.4694,8.3525,8.3262,8.4464,8.4443,8.5071,8.6799,8.4271,8.2869,8.2869,8.0327,7.294,6.0552,0.0,0.0,0.0,0.0,0.0,0.0,0.0,0.0,0.0,0.0,0.0,0.0,0.0,0.0,0.0,0.0,0.0,0.0,0.0,0.0,0.0,0.0,0.0,0.0,0.0,0.0,7.2448,7.2974,0.0,7.1124,7.2695,7.3852,7.3889,7.7132,7.9334,7.9917,8.0804,8.1511,8.1969,8.2603,8.2899,8.2721,8.3377,8.3694,8.3604,8.3694,8.3739,8.3739,8.3739,8.3739,8.3739,8.3739,8.3739,8.367,8.2578,8.0667,7.8415,7.8415,7.8142,7.7733,7.8279,7.8415,7.8552,7.9098,7.9917,8.1145,8.3056,8.1282,7.8987,8.2442,8.135,7.9712,8.3148,8.4581,8.5604,8.8243,8.9676,9.0447,9.0973,9.1109,9.1109,9.1177,9.029,8.9765,9.0904,8.5649,7.967,7.5415,7.7933,7.9481,7.6239,7.8783,8.1408,8.2314,8.2225,8.1568,8.0284,8.0325,8.034,7.9925,8.0871,8.1355,8.1128,8.3142,8.4332,8.4526,8.4192,8.2793,8.0047,7.6386,6.7697,0.0,0.0,0.0,0.0,0.0,0.0,0.0,0.0,0.0,0.0,0.0,0.0,0.0,0.0,0.0,0.0,0.0,0.0,0.0,0.0,0.0,0.0,0.0,0.0,0.0,0.0,0.0,6.9097,6.8986,0.0,0.0,0.0,0.0,6.6703,6.8205,7.0461,7.3462,7.3667,7.4338,7.5768,7.7582,7.8274,7.7871,7.9728,8.0538,8.0277,8.0538,8.0667,8.0667,8.0667,8.0667,8.0667,8.0667,8.0667,8.0394,7.7282,7.5168,7.3843,7.3638,7.2683,7.1629,7.316,7.3706,7.3979,7.5645,7.6327,7.6327,7.6054,7.3121,6.9884,7.0946,6.9307,0.0,0.0,7.4758,7.7078,8.1648,8.2988,8.3466,8.4967,8.5308,8.5308,8.5308,8.3124,8.1759,8.3875,8.4216,8.2037,7.5493,0.0,7.4415,7.3466,7.3263,7.4895,7.9714,7.9962,7.9474,7.8714,7.927,7.9204,7.8147,7.9965,8.0979,8.0375,8.1847,8.2876,8.3286,8.149,7.7093,6.9597,6.4601,0.0,0.0,0.0,0.0,0.0,0.0,0.0,0.0,0.0,0.0,0.0,0.0,0.0,0.0,0.0,0.0,0.0,0.0,0.0,0.0,0.0,0.0,0.0,0.0,0.0,0.0,5.505,6.0204,6.2211,6.1702,5.9867,0.0,0.0,0.0,0.0,0.0,0.0,6.6966,6.812,6.9954,7.275,7.4326,7.5619,7.6776,7.7309,7.7487,7.7404,7.7487,7.7528,7.7528,7.7528,7.7528,7.7528,7.7528,7.7528,7.7214,7.3053,7.1075,7.0393,6.7086,6.5585,6.5585,6.8178,6.9134,6.968,7.3365,7.5412,7.5645,7.1181,7.043,7.0157,6.3879,0.0,0.0,0.0,0.0,7.2371,7.6941,7.978,8.2101,8.4694,8.5308,8.5308,8.5308,8.4694,8.1375,7.1866,6.812,6.3837,5.53,5.752,0.0,5.5518,6.3208,6.9496,6.9633,7.4138,7.6756,7.5443,7.5513,7.5805,7.6323,7.72,7.799,7.8842,8.0497,8.1522,8.1631,7.6605,7.1807,6.7656,0.0,0.0,0.0,0.0,0.0,0.0,0.0,0.0,0.0,0.0,0.0,0.0,0.0,0.0,0.0,0.0,0.0,0.0,0.0,0.0,0.0,0.0,0.0,0.0,0.0,0.0,0.0,4.9837,5.5525,5.706,5.6075,5.4002,0.0,0.0,0.0,0.0,0.0,0.0,0.0,0.0,0.0,6.4304,6.586,6.773,7.0128,7.2138,7.3577,7.4457,7.5754,7.6395,7.6395,7.6395,7.6395,7.6395,7.6395,7.3997,6.9962,6.6699,6.4181,6.1973,0.0,0.0,0.0,0.0,6.0143,6.0685,6.4447,6.587,6.5635,6.2888,0.0,0.0,0.0,0.0,0.0,0.0,0.0,6.7347,7.1225,7.5564,7.9371,8.1009,8.1418,8.1418,8.1418,7.7483,7.1495,6.312,6.0079,5.6309,4.8322,4.9721,0.0,0.0,0.0,6.2596,6.4493,6.966,7.2623,7.145,7.1701,7.2278,7.3086,7.4355,7.5486,7.6431,7.7456,7.7224,7.5241,6.9879,6.3615,0.0,0.0,0.0,0.0,0.0,0.0,0.0,0.0,0.0,0.0,0.0,0.0,0.0,0.0,0.0,0.0,0.0,0.0,0.0,0.0,0.0,0.0,0.0,0.0,0.0,0.0,0.0,0.0,0.0,5.1543,5.2201,0.0,0.0,0.0,0.0,0.0,0.0,0.0,0.0,0.0,0.0,0.0,0.0,0.0,5.7791,6.082,6.4804,6.7798,6.9629,7.2323,7.3645,7.3849,7.3849,7.4094,7.4474,7.3821,0.0,6.1597,5.9437,0.0,0.0,0.0,0.0,0.0,0.0,0.0,0.0,0.0,0.0,0.0,0.0,0.0,0.0,0.0,0.0,0.0,0.0,0.0,0.0,0.0,0.0,7.419,7.4598,7.487,7.4666,7.3549,6.5589,5.7959,5.5882,5.548,5.3447,0.0,0.0,0.0,0.0,0.0,0.0,6.175,6.6408,6.9011,6.8525,6.9166,6.9857,7.0396,7.2372,7.388,7.436,7.3598,7.1313,6.7269,6.266,0.0,0.0,0.0,0.0,0.0,0.0,0.0,0.0,0.0,0.0,0.0,0.0,0.0,0.0,0.0,0.0,0.0,0.0,0.0,0.0,0.0,0.0,0.0,0.0,0.0,0.0,0.0,0.0,0.0,0.0,0.0,0.0,0.0,0.0,0.0,0.0,0.0,0.0,0.0,0.0,0.0,0.0,0.0,0.0,0.0,0.0,0.0,0.0,0.0,0.0,5.8294,5.9266,6.0195,6.0441,6.1999,6.4444,6.0482,5.9099,5.9297,5.2939,0.0,0.0,0.0,0.0,0.0,0.0,0.0,0.0,0.0,0.0,0.0,0.0,0.0,0.0,0.0,0.0,0.0,0.0,0.0,0.0,0.0,0.0,6.2892,6.5346,6.6891,6.5779,5.8529,0.0,0.0,0.0,0.0,0.0,0.0,0.0,0.0,0.0,0.0,0.0,5.6383,6.5364,7.1542,7.1703,7.1847,7.2444,7.3671,7.4201,7.4895,7.5931,7.0389,6.6168,0.0,0.0,0.0,0.0,0.0,0.0,0.0,0.0,0.0,0.0,0.0,0.0,0.0,0.0,0.0,0.0,0.0,0.0,0.0,0.0,0.0,0.0,0.0,0.0,0.0,0.0,0.0,0.0,0.0,0.0,0.0,0.0,0.0,0.0,0.0,0.0,0.0,0.0,0.0,0.0,0.0,0.0,0.0,0.0,0.0,0.0,0.0,0.0,0.0,0.0,0.0,0.0,0.0,0.0,0.0,0.0,0.0,0.0,5.1752,4.7503,0.0,0.0,0.0,0.0,0.0,0.0,0.0,0.0,0.0,0.0,0.0,0.0,0.0,0.0,0.0,0.0,0.0,0.0,0.0,0.0,0.0,0.0,0.0,0.0,0.0,0.0,0.0,0.0,0.0,0.0,0.0,0.0,0.0,0.0,0.0,0.0,0.0,0.0,0.0,0.0,5.3436,6.3125,6.9979,7.0074,7.0216,7.0525,7.1237,7.1571,7.0685,6.8171,6.2557,0.0,0.0,0.0,0.0,0.0,0.0,0.0,0.0,0.0,0.0,0.0,0.0,0.0,0.0,0.0,0.0,0.0,0.0,0.0,0.0,0.0,0.0,0.0,0.0,0.0,0.0,0.0,0.0,0.0,0.0,0.0,0.0,0.0,0.0,0.0,0.0,0.0,0.0,0.0,0.0,0.0,0.0,0.0,0.0,0.0,0.0,0.0,0.0,0.0,0.0,0.0,0.0,0.0,0.0,0.0,0.0,0.0,0.0,0.0,4.4262,3.7877,0.0,0.0,0.0,0.0,0.0,0.0,0.0,0.0,0.0,0.0,0.0,0.0,0.0,0.0,0.0,0.0,0.0,0.0,0.0,0.0,0.0,0.0,0.0,0.0,0.0,0.0,0.0,0.0,0.0,0.0,0.0,0.0,0.0,0.0,0.0,0.0,0.0,0.0,0.0,0.0,5.1599,6.0924,6.7527,6.7574,6.7574,6.7667,6.799,6.84,6.6126,6.0113,5.4785,0.0,0.0,0.0,0.0,0.0,0.0,0.0,0.0,0.0,0.0,0.0,0.0,0.0,0.0,0.0,0.0,0.0,0.0,0.0,0.0,0.0,0.0,0.0,0.0,0.0,0.0,0.0,0.0,0.0,0.0,0.0,0.0,0.0,0.0,0.0,0.0,0.0,0.0,0.0,0.0,0.0,0.0,0.0,0.0,0.0,0.0,0.0,0.0,0.0,0.0,0.0,0.0,0.0,0.0,0.0,0.0,0.0,0.0,0.0,0.0,0.0,0.0,0.0,0.0,0.0,0.0,0.0,0.0,0.0,0.0,0.0,0.0,0.0,0.0,0.0,0.0,0.0,0.0,0.0,0.0,0.0,0.0,0.0,0.0,0.0,0.0,0.0,0.0,0.0,0.0,0.0,0.0,0.0,0.0,0.0,0.0,0.0,0.0,0.0,0.0,0.0,5.0292,5.9749,6.6529,6.6595,6.5755,6.5804,6.7242,6.7382,6.4803,5.8524,0.0,0.0,0.0,0.0,0.0,0.0,0.0,0.0,0.0,0.0,0.0,0.0,0.0,0.0,0.0,0.0,0.0,0.0,0.0,0.0,0.0,0.0,0.0,0.0,0.0,0.0,0.0,0.0,0.0,0.0,0.0,0.0,0.0,0.0,0.0,0.0,0.0,0.0,0.0,0.0,0.0,0.0,0.0,0.0,0.0,0.0,0.0,0.0,0.0,0.0,0.0,0.0,0.0,0.0,0.0,0.0,0.0,0.0,0.0,0.0,0.0,0.0,0.0,0.0,0.0,0.0,0.0,0.0,0.0,0.0,0.0,0.0,0.0,0.0,0.0,0.0,0.0,0.0,0.0,0.0,0.0,0.0,0.0,0.0,0.0,0.0,0.0,0.0,0.0,0.0,0.0,0.0,0.0,0.0,0.0,0.0,0.0,0.0,0.0,0.0,0.0,0.0,4.7377,5.649,6.2946,6.2979,6.2787,6.2821,6.3439,6.3829,6.0429,5.2064,0.0,0.0,0.0,0.0,0.0,0.0,0.0,0.0,0.0,0.0,0.0,0.0,0.0,0.0,0.0,0.0,0.0,0.0,0.0,0.0,0.0,0.0,0.0,0.0,0.0,0.0,0.0,0.0,0.0,0.0,0.0,0.0,0.0,0.0,0.0,0.0,0.0,0.0,0.0,0.0,0.0,0.0,0.0,0.0,0.0,0.0,0.0,0.0,0.0,0.0,0.0,0.0,0.0,0.0,0.0,0.0,0.0,0.0,0.0,0.0,0.0,0.0,0.0,0.0,0.0,0.0,0.0,0.0,0.0,0.0,0.0,0.0,0.0,0.0,0.0,0.0,0.0,0.0,0.0,0.0,0.0,0.0,0.0,0.0,0.0,0.0,0.0,0.0,0.0,0.0,0.0,0.0,0.0,0.0,0.0,0.0,0.0,0.0,0.0,0.0,0.0,0.0,4.5611,5.4192,6.0219,6.0316,6.0171,6.0316,6.0795,6.1126,5.7124,4.7139,0.0,0.0,0.0,0.0,0.0,0.0,0.0,0.0,0.0,0.0,0.0,0.0,0.0,0.0,0.0,0.0,0.0,0.0,0.0,0.0,0.0,0.0,0.0,0.0,0.0,0.0,0.0,0.0,0.0,0.0,0.0,0.0,0.0,0.0,0.0,0.0,0.0,0.0,0.0,0.0,0.0,0.0,0.0,0.0,0.0,0.0,0.0,0.0,0.0,0.0,0.0,0.0,0.0,0.0,0.0,0.0,0.0,0.0,0.0,0.0,0.0,0.0,0.0,0.0,0.0,0.0,0.0,0.0,0.0,0.0,0.0,0.0,0.0,0.0,0.0,0.0,0.0,0.0,0.0,0.0,0.0,0.0,0.0,0.0,0.0,0.0,0.0,0.0,0.0,0.0,0.0,0.0,0.0,0.0,0.0,0.0,0.0,0.0,0.0,0.0,0.0,0.0,4.5656,5.3524,5.9187,5.9447,5.8609,5.8609,6.0122,6.0268,5.5901,0.0,0.0,0.0,0.0,0.0,0.0,0.0,0.0,0.0,0.0,0.0,0.0,0.0,0.0,0.0,0.0,0.0,0.0,0.0,0.0,0.0,0.0,0.0,0.0,0.0,0.0,0.0,0.0,0.0,0.0,0.0,0.0,0.0,0.0,0.0,0.0,0.0,0.0,0.0,0.0,0.0,0.0,0.0,0.0,0.0,0.0,0.0,0.0,0.0,0.0,0.0,0.0,0.0,0.0,0.0,0.0,0.0,0.0,0.0,0.0,0.0,0.0,0.0,0.0,0.0,0.0,0.0,0.0,0.0,0.0,0.0,0.0,0.0,0.0,0.0,0.0,0.0,0.0,0.0,0.0,0.0,0.0,0.0,0.0,0.0,0.0,0.0,0.0,0.0,0.0,0.0,0.0,0.0,0.0,0.0,0.0,0.0,0.0,0.0,0.0,0.0,0.0,0.0,4.2706,4.8024,5.2544,5.5497,5.5597,5.5793,5.6508,5.6699,5.31,4.4414,0.0,0.0,0.0,0.0,0.0,0.0,0.0,0.0,0.0,0.0,0.0,0.0,0.0,0.0,0.0,0.0,0.0,0.0,0.0,0.0,0.0,0.0,0.0,0.0,0.0,0.0,0.0,0.0,0.0,0.0,0.0,0.0,0.0,0.0,0.0,0.0,0.0,0.0,0.0,0.0,0.0,0.0,0.0,0.0,0.0,0.0,0.0,0.0,0.0,0.0,0.0,0.0,0.0,0.0,0.0,0.0,0.0,0.0,0.0,0.0,0.0,0.0,0.0,0.0,0.0,0.0,0.0,0.0,0.0,0.0,0.0,0.0,0.0,0.0,0.0,0.0,0.0,0.0,0.0,0.0,0.0,0.0,0.0,0.0,0.0,0.0,0.0,0.0,0.0,0.0,0.0,0.0,0.0,0.0,0.0,0.0,0.0,0.0,0.0,0.0,0.0,0.0,0.0,4.6852,5.1186,5.3931,5.4407,5.4646,5.4932,5.5133,5.1817,4.3836,0.0,0.0,0.0,0.0,0.0,0.0,0.0,0.0,0.0,0.0,0.0,0.0,0.0,0.0,0.0,0.0,0.0,0.0,0.0,0.0,0.0,0.0,0.0,0.0,0.0,0.0,0.0,0.0,0.0,0.0,0.0,0.0,0.0,0.0,0.0,0.0,0.0,0.0,0.0,0.0,0.0,0.0,0.0,0.0,0.0,0.0,0.0,0.0,0.0,0.0,0.0,0.0,0.0,0.0,0.0,0.0,0.0,0.0,0.0,0.0,0.0,0.0,0.0,0.0,0.0,0.0,0.0,0.0,0.0,0.0,0.0,0.0,0.0,0.0,0.0,0.0,0.0,0.0,0.0,0.0,0.0,0.0,0.0,0.0,0.0,0.0,0.0,0.0,0.0,0.0,0.0,0.0,0.0,0.0,0.0,0.0,0.0,0.0,0.0,0.0,0.0,0.0,0.0,4.9024,5.3824,5.4359,5.4646,5.4884,5.518,5.5227,5.1817,4.3836,4.0902,0.0,0.0,0.0,0.0,0.0,0.0,0.0,0.0,0.0,0.0,0.0,0.0,0.0,0.0,0.0,0.0,0.0,0.0,0.0,0.0,0.0,0.0,0.0,0.0,0.0,0.0,0.0,0.0,0.0,0.0,0.0,0.0,0.0,0.0,0.0,0.0,0.0,0.0,0.0,0.0,0.0,0.0,0.0,0.0,0.0,0.0,0.0,0.0,0.0,0.0,0.0,0.0,0.0,0.0,0.0,0.0,0.0,0.0,0.0,0.0,0.0,0.0,0.0,0.0,0.0,0.0,0.0,0.0,0.0,0.0,0.0,0.0,0.0,0.0,0.0,0.0,0.0,0.0,0.0,0.0,0.0,0.0,0.0,0.0,0.0,0.0,0.0,0.0,0.0,0.0,0.0,0.0,0.0,0.0,0.0,0.0,0.0,0.0,0.0,0.0,0.0,0.0,4.8104,5.0602,5.4064,5.4514,5.4706,5.518,5.5227,5.1817,4.3836,4.0902,0.0,0.0,0.0,0.0,0.0,0.0,0.0,0.0,0.0,0.0,0.0,0.0,0.0,0.0,0.0,0.0,0.0,0.0,0.0,0.0,0.0,0.0,0.0,0.0,0.0,0.0,0.0,0.0,0.0,0.0,0.0,0.0,0.0,0.0,0.0,0.0,0.0,0.0,0.0,0.0,0.0,0.0,0.0,0.0,0.0,0.0,0.0,0.0,0.0,0.0,0.0,0.0,0.0,0.0,0.0,0.0,0.0,0.0,0.0,0.0,0.0,0.0,0.0,0.0,0.0,0.0,0.0,0.0,0.0,0.0,0.0,0.0,0.0,0.0,0.0,0.0,0.0,0.0,0.0,0.0,0.0,0.0,0.0,0.0,0.0,0.0,0.0,0.0,0.0,0.0,0.0,0.0,0.0,0.0,0.0,0.0,0.0,0.0,0.0,0.0,0.0,0.0,4.2888,4.6937,5.3663,5.4658,5.4896,5.518,5.5227,5.1577,4.2998,4.0543,0.0,0.0,0.0,0.0,0.0,0.0,0.0,0.0,0.0,0.0,0.0,0.0,0.0,0.0,0.0,0.0,0.0,0.0,0.0,0.0,0.0,0.0,0.0,0.0,0.0,0.0,0.0,0.0,0.0,0.0,0.0,0.0,0.0,0.0,0.0,0.0,0.0,0.0,0.0,0.0,0.0,0.0,0.0,0.0,0.0,0.0,0.0,0.0,0.0,0.0,0.0,0.0,0.0,0.0,0.0,0.0,0.0,0.0,0.0,0.0,0.0,0.0,0.0,0.0,0.0,0.0,0.0,0.0,0.0,0.0,0.0,0.0,0.0,0.0,0.0,0.0,0.0,0.0,0.0,0.0,0.0,0.0,0.0,0.0,0.0,0.0,0.0,0.0,0.0,0.0,0.0,0.0,0.0,0.0,0.0,0.0,0.0,0.0,0.0,0.0,0.0,0.0,0.0,4.4368,5.2897,5.4611,5.518,5.5227,5.5227,5.1278,4.198,0.0,0.0,0.0,0.0,0.0,0.0,0.0,0.0,0.0,0.0,0.0,0.0,0.0,0.0,0.0,0.0,0.0,0.0,0.0,0.0,0.0,0.0,0.0,0.0,0.0,0.0,0.0,0.0,0.0,0.0,0.0,0.0,0.0,0.0,0.0,0.0,0.0,0.0,0.0,0.0,0.0,0.0,0.0,0.0,0.0,0.0,0.0,0.0,0.0,0.0,0.0,0.0,0.0,0.0,0.0,0.0,0.0,0.0,0.0,0.0,0.0,0.0,0.0,0.0,0.0,0.0,0.0,0.0,0.0,0.0,0.0,0.0,0.0,0.0,0.0,0.0,0.0,0.0,0.0,0.0,0.0,0.0,0.0,0.0,0.0,0.0,0.0,0.0,0.0,0.0,0.0,0.0,0.0,0.0,0.0,0.0,0.0,0.0,0.0,0.0,0.0,0.0,0.0,0.0,4.6486,5.042,5.3237,5.4932,5.518,5.5227,5.1278,4.198,0.0,0.0,0.0,0.0,0.0,0.0,0.0,0.0,0.0,0.0,0.0,0.0,0.0,0.0]}]]]